[[{"header":{"parameterUnit":"m.s-1","parameterCategory":1,"la1":30.6,"la2":29.2853,"lo1":-89.7004,"lo2":-87.6739,"dy":0.0162,"dx":0.0183,"nx":112,"ny":82,"refTime":"2023-03-04T18:00:00:Z","depth":0,"parameterNumber":2,"parameterNumberName":"U-component_of_WINDS"},"data":[0.0,0.0,0.0,0.0,0.0,0.0,0.0,0.0,0.0,0.0,0.0,0.0,0.0,0.0,0.0,0.0,0.0,0.0,0.0,0.0,0.0,0.0,0.0,0.0,0.0,0.0,0.0,0.0,0.0,0.0,0.0,0.0,0.0,0.0,0.0,0.0,0.0,0.0,0.0,0.0,0.0,0.0,0.0,0.0,0.0,0.0,0.0,0.0,0.0,0.0,0.0,0.0,0.0,0.0,0.0,0.0,0.0,0.0,0.0,0.0,0.0,0.0,0.0,0.0,0.0,0.0,0.0,0.0,0.0,0.0,0.0,0.0,0.0,0.0,0.0,0.0,0.0,0.0,0.0,0.0,0.0,0.0,0.0,0.0,0.0,0.0,0.0,0.0,0.0,0.0,-3.2219,-3.2492,-3.3727,-3.4517,-3.4473,-3.2983,-3.2058,-3.2129,0.0,0.0,0.0,0.0,0.0,0.0,0.0,0.0,0.0,0.0,0.0,0.0,0.0,0.0,0.0,0.0,0.0,0.0,0.0,0.0,0.0,0.0,0.0,0.0,0.0,0.0,0.0,0.0,0.0,0.0,0.0,0.0,0.0,0.0,0.0,0.0,0.0,0.0,0.0,0.0,0.0,0.0,0.0,0.0,0.0,0.0,0.0,0.0,0.0,0.0,0.0,0.0,0.0,0.0,0.0,0.0,0.0,0.0,0.0,0.0,0.0,0.0,0.0,0.0,0.0,0.0,0.0,0.0,0.0,0.0,0.0,0.0,0.0,0.0,0.0,0.0,0.0,0.0,0.0,0.0,0.0,0.0,0.0,0.0,0.0,0.0,0.0,0.0,0.0,0.0,0.0,0.0,0.0,0.0,0.0,0.0,0.0,0.0,0.0,0.0,0.0,0.0,0.0,0.0,-3.2816,-3.424,-3.4607,-3.4758,-3.4747,-3.3211,-3.226,-3.2269,0.0,0.0,0.0,0.0,0.0,0.0,0.0,0.0,0.0,0.0,0.0,0.0,0.0,0.0,0.0,0.0,0.0,0.0,0.0,0.0,0.0,0.0,0.0,0.0,0.0,0.0,0.0,0.0,0.0,0.0,0.0,0.0,0.0,0.0,0.0,0.0,0.0,0.0,0.0,0.0,0.0,0.0,0.0,0.0,0.0,0.0,0.0,0.0,0.0,0.0,0.0,0.0,0.0,0.0,0.0,0.0,0.0,0.0,0.0,0.0,0.0,0.0,0.0,0.0,0.0,0.0,0.0,0.0,0.0,0.0,0.0,0.0,0.0,0.0,0.0,0.0,0.0,0.0,0.0,0.0,0.0,0.0,0.0,0.0,0.0,0.0,0.0,0.0,0.0,0.0,0.0,0.0,0.0,0.0,0.0,0.0,0.0,0.0,0.0,0.0,0.0,0.0,0.0,-3.1836,-3.293,-3.4619,-3.4798,-3.4798,-3.4798,-3.326,-3.2307,-3.2307,-2.9168,0.0,0.0,0.0,0.0,0.0,0.0,0.0,0.0,0.0,0.0,0.0,0.0,0.0,0.0,0.0,0.0,0.0,0.0,0.0,0.0,0.0,0.0,0.0,0.0,0.0,0.0,0.0,0.0,0.0,0.0,0.0,0.0,0.0,0.0,0.0,0.0,0.0,0.0,0.0,0.0,0.0,0.0,0.0,0.0,0.0,0.0,0.0,0.0,0.0,0.0,0.0,0.0,0.0,0.0,0.0,0.0,0.0,0.0,0.0,0.0,0.0,0.0,0.0,0.0,0.0,0.0,0.0,0.0,0.0,0.0,0.0,0.0,0.0,0.0,0.0,0.0,0.0,0.0,0.0,0.0,0.0,0.0,0.0,0.0,0.0,0.0,0.0,0.0,0.0,0.0,0.0,0.0,0.0,0.0,0.0,0.0,0.0,0.0,0.0,0.0,0.0,0.0,-3.2326,-3.2968,-3.464,-3.481,-3.481,-3.481,-3.3289,-3.2326,-3.2326,-2.9233,0.0,0.0,0.0,0.0,0.0,0.0,0.0,0.0,0.0,0.0,0.0,0.0,0.0,0.0,0.0,0.0,0.0,0.0,0.0,0.0,0.0,0.0,0.0,0.0,0.0,0.0,0.0,0.0,0.0,0.0,0.0,0.0,0.0,0.0,0.0,0.0,0.0,0.0,0.0,0.0,0.0,0.0,0.0,0.0,0.0,0.0,0.0,0.0,0.0,0.0,0.0,0.0,0.0,0.0,0.0,0.0,0.0,0.0,0.0,0.0,0.0,0.0,0.0,0.0,0.0,0.0,0.0,0.0,0.0,0.0,0.0,0.0,0.0,0.0,0.0,0.0,0.0,0.0,0.0,0.0,0.0,0.0,0.0,0.0,0.0,0.0,0.0,0.0,0.0,0.0,0.0,0.0,0.0,0.0,0.0,0.0,0.0,0.0,0.0,0.0,0.0,0.0,-3.2389,-3.3033,-3.4709,-3.4898,-3.4898,-3.4898,-3.3364,-3.2389,-3.2389,-2.9303,0.0,0.0,0.0,0.0,0.0,0.0,0.0,0.0,0.0,0.0,0.0,0.0,0.0,0.0,0.0,0.0,0.0,0.0,0.0,0.0,0.0,0.0,0.0,0.0,0.0,0.0,0.0,0.0,0.0,0.0,0.0,0.0,0.0,0.0,0.0,0.0,0.0,0.0,0.0,0.0,0.0,0.0,0.0,0.0,0.0,0.0,0.0,0.0,0.0,0.0,0.0,0.0,0.0,0.0,0.0,0.0,0.0,0.0,0.0,0.0,0.0,0.0,0.0,0.0,0.0,0.0,0.0,0.0,0.0,0.0,0.0,0.0,0.0,0.0,0.0,0.0,0.0,0.0,0.0,0.0,0.0,0.0,0.0,0.0,0.0,0.0,0.0,0.0,0.0,0.0,0.0,0.0,0.0,0.0,0.0,0.0,0.0,0.0,0.0,0.0,0.0,0.0,-3.2397,-3.3051,0.0,-3.4908,-3.4908,-3.4908,-3.34,-3.2469,-3.2469,0.0,0.0,0.0,0.0,0.0,0.0,0.0,0.0,0.0,0.0,0.0,0.0,0.0,0.0,0.0,0.0,0.0,0.0,0.0,0.0,0.0,0.0,0.0,0.0,0.0,0.0,0.0,0.0,0.0,0.0,0.0,0.0,0.0,0.0,0.0,0.0,0.0,0.0,0.0,0.0,0.0,0.0,0.0,0.0,0.0,0.0,0.0,0.0,0.0,0.0,0.0,0.0,0.0,0.0,0.0,0.0,0.0,0.0,0.0,0.0,0.0,0.0,0.0,0.0,0.0,0.0,0.0,0.0,0.0,0.0,0.0,0.0,0.0,0.0,0.0,0.0,0.0,0.0,0.0,0.0,0.0,0.0,0.0,0.0,0.0,0.0,0.0,0.0,0.0,0.0,0.0,0.0,0.0,0.0,0.0,0.0,0.0,0.0,0.0,0.0,0.0,0.0,-3.2151,-3.2397,-3.3051,0.0,-3.4908,-3.4917,-3.4927,-3.3446,-3.2503,-3.2539,0.0,0.0,0.0,0.0,0.0,0.0,0.0,0.0,0.0,0.0,0.0,0.0,0.0,0.0,0.0,0.0,0.0,0.0,0.0,0.0,0.0,0.0,0.0,0.0,0.0,0.0,0.0,0.0,0.0,0.0,0.0,0.0,0.0,0.0,0.0,0.0,0.0,0.0,0.0,0.0,0.0,0.0,0.0,0.0,0.0,0.0,0.0,0.0,0.0,0.0,0.0,0.0,0.0,0.0,0.0,0.0,0.0,0.0,0.0,0.0,0.0,0.0,0.0,0.0,0.0,0.0,0.0,0.0,0.0,0.0,0.0,0.0,0.0,0.0,0.0,0.0,0.0,0.0,0.0,0.0,0.0,0.0,0.0,0.0,0.0,0.0,0.0,0.0,0.0,0.0,0.0,0.0,0.0,0.0,0.0,0.0,0.0,0.0,0.0,0.0,0.0,0.0,-3.2075,-3.2397,-3.3051,-3.4718,-3.4908,-3.4927,-3.5001,-3.3463,-3.2539,0.0,0.0,0.0,0.0,0.0,0.0,0.0,0.0,0.0,0.0,0.0,0.0,0.0,0.0,0.0,0.0,0.0,0.0,0.0,0.0,0.0,0.0,0.0,0.0,0.0,0.0,0.0,0.0,0.0,0.0,0.0,0.0,0.0,0.0,0.0,0.0,0.0,0.0,0.0,0.0,0.0,0.0,0.0,0.0,0.0,0.0,0.0,0.0,0.0,0.0,0.0,0.0,0.0,0.0,0.0,0.0,0.0,0.0,0.0,0.0,0.0,0.0,0.0,0.0,0.0,0.0,0.0,0.0,0.0,0.0,0.0,0.0,0.0,0.0,0.0,0.0,0.0,0.0,0.0,0.0,0.0,0.0,0.0,0.0,0.0,0.0,0.0,0.0,0.0,0.0,0.0,0.0,0.0,0.0,0.0,0.0,0.0,0.0,0.0,0.0,0.0,0.0,0.0,-3.2151,-3.2397,-3.3051,-3.4718,-3.4908,-3.4927,-3.5001,-3.3508,-3.2591,-3.2594,0.0,0.0,0.0,0.0,0.0,0.0,0.0,0.0,0.0,0.0,0.0,0.0,0.0,0.0,0.0,0.0,0.0,0.0,0.0,0.0,0.0,0.0,0.0,0.0,0.0,0.0,0.0,0.0,0.0,0.0,0.0,0.0,0.0,0.0,0.0,0.0,0.0,0.0,0.0,0.0,0.0,0.0,0.0,0.0,0.0,0.0,0.0,0.0,0.0,0.0,0.0,0.0,0.0,0.0,0.0,0.0,0.0,0.0,0.0,0.0,0.0,0.0,0.0,0.0,0.0,0.0,0.0,0.0,0.0,0.0,0.0,0.0,0.0,0.0,0.0,0.0,0.0,0.0,0.0,0.0,0.0,0.0,0.0,0.0,0.0,0.0,0.0,0.0,0.0,0.0,0.0,0.0,0.0,0.0,0.0,0.0,0.0,0.0,0.0,0.0,0.0,0.0,-3.2132,-3.2397,-3.3051,-3.4718,-3.4908,-3.4936,-3.5029,-3.3544,-3.2608,-3.2634,0.0,0.0,0.0,0.0,0.0,0.0,0.0,0.0,0.0,0.0,0.0,0.0,0.0,0.0,0.0,0.0,0.0,0.0,0.0,0.0,0.0,0.0,0.0,0.0,0.0,0.0,0.0,0.0,0.0,0.0,0.0,0.0,0.0,0.0,0.0,0.0,0.0,0.0,0.0,0.0,0.0,0.0,0.0,0.0,0.0,0.0,0.0,0.0,0.0,0.0,0.0,0.0,0.0,0.0,0.0,0.0,0.0,0.0,0.0,0.0,0.0,0.0,0.0,0.0,0.0,0.0,0.0,0.0,0.0,0.0,0.0,0.0,0.0,0.0,0.0,0.0,0.0,0.0,0.0,0.0,0.0,0.0,0.0,0.0,0.0,0.0,0.0,0.0,0.0,0.0,0.0,0.0,0.0,0.0,0.0,0.0,0.0,0.0,0.0,0.0,0.0,0.0,-3.2094,-3.2473,-3.3126,-3.4737,-3.4908,-3.4945,-3.5084,-3.3638,-3.2719,-3.2691,0.0,0.0,0.0,0.0,0.0,0.0,0.0,0.0,0.0,0.0,0.0,0.0,0.0,0.0,0.0,0.0,0.0,0.0,0.0,0.0,0.0,0.0,0.0,0.0,0.0,0.0,0.0,0.0,0.0,0.0,0.0,0.0,0.0,0.0,0.0,0.0,0.0,0.0,0.0,0.0,0.0,0.0,0.0,0.0,0.0,0.0,0.0,0.0,0.0,0.0,0.0,0.0,0.0,0.0,0.0,0.0,0.0,0.0,0.0,0.0,-3.3878,0.0,0.0,0.0,0.0,0.0,0.0,0.0,0.0,0.0,0.0,0.0,0.0,0.0,0.0,0.0,0.0,0.0,0.0,0.0,0.0,0.0,0.0,0.0,0.0,0.0,0.0,0.0,0.0,0.0,0.0,0.0,0.0,0.0,0.0,0.0,0.0,0.0,0.0,0.0,0.0,0.0,-3.2246,-3.2994,-3.3809,-3.4794,-3.4908,-3.4945,-3.5084,-3.4141,-3.3299,-3.2749,-3.0949,0.0,0.0,0.0,0.0,0.0,0.0,0.0,0.0,0.0,0.0,0.0,0.0,0.0,0.0,0.0,0.0,0.0,0.0,0.0,0.0,0.0,0.0,0.0,0.0,0.0,0.0,0.0,0.0,0.0,0.0,0.0,0.0,0.0,0.0,0.0,0.0,0.0,0.0,0.0,0.0,0.0,0.0,0.0,0.0,0.0,0.0,0.0,0.0,0.0,0.0,0.0,0.0,0.0,0.0,0.0,0.0,0.0,0.0,0.0,0.0,-3.4621,0.0,0.0,0.0,0.0,0.0,0.0,0.0,0.0,0.0,0.0,0.0,0.0,0.0,0.0,0.0,0.0,0.0,0.0,0.0,0.0,0.0,0.0,0.0,0.0,0.0,0.0,0.0,0.0,0.0,0.0,0.0,0.0,0.0,0.0,0.0,0.0,0.0,0.0,0.0,0.0,-3.2825,-3.3392,-3.4017,-3.4813,-3.4908,-3.4936,-3.5038,-3.4285,-3.3652,-3.3298,-3.1699,0.0,0.0,0.0,0.0,0.0,0.0,0.0,0.0,0.0,0.0,0.0,0.0,0.0,0.0,0.0,0.0,0.0,0.0,0.0,0.0,0.0,0.0,0.0,0.0,0.0,0.0,0.0,0.0,0.0,0.0,0.0,0.0,0.0,0.0,0.0,0.0,0.0,0.0,0.0,0.0,0.0,0.0,0.0,0.0,0.0,0.0,0.0,0.0,0.0,0.0,0.0,0.0,0.0,-3.826,-3.8757,-3.9112,-3.9112,-3.9043,-3.8842,-3.6995,-3.5728,-3.4975,0.0,0.0,0.0,0.0,0.0,0.0,0.0,0.0,0.0,0.0,0.0,0.0,0.0,0.0,0.0,0.0,0.0,0.0,0.0,0.0,0.0,0.0,0.0,0.0,0.0,-3.3443,-3.2794,0.0,0.0,0.0,0.0,0.0,0.0,0.0,0.0,0.0,0.0,0.0,0.0,-3.3393,-3.3753,-3.415,-3.4841,-3.4898,-3.4936,-3.5001,-3.4391,-3.3978,-3.3903,-3.26,-3.1448,0.0,0.0,0.0,0.0,0.0,0.0,0.0,0.0,0.0,0.0,0.0,0.0,0.0,0.0,0.0,0.0,0.0,0.0,0.0,0.0,0.0,0.0,0.0,0.0,0.0,0.0,0.0,0.0,0.0,0.0,0.0,0.0,-3.0584,-3.1558,0.0,0.0,0.0,0.0,0.0,0.0,0.0,0.0,0.0,0.0,0.0,0.0,0.0,-3.7637,-3.7746,-3.7934,-3.8378,-3.9044,-3.9129,-3.9887,-4.1193,-4.1193,-4.0852,-4.0219,-3.9953,0.0,-3.7961,-3.7344,0.0,0.0,0.0,0.0,0.0,0.0,0.0,0.0,0.0,0.0,0.0,0.0,0.0,0.0,0.0,0.0,0.0,0.0,0.0,0.0,0.0,0.0,-3.5123,-3.5293,-3.5302,-3.5072,0.0,-3.2688,-3.1268,-3.128,-3.1295,0.0,0.0,0.0,0.0,0.0,0.0,0.0,-3.3468,-3.4186,-3.4715,-3.4878,-3.4907,-3.4927,-3.4992,-3.4897,-3.4571,-3.3941,-3.3683,-3.2902,-3.1395,-3.056,0.0,0.0,0.0,0.0,0.0,0.0,0.0,0.0,0.0,0.0,0.0,0.0,0.0,0.0,0.0,0.0,0.0,0.0,0.0,0.0,0.0,0.0,0.0,0.0,0.0,0.0,0.0,0.0,0.0,-3.0028,-3.1253,-3.2089,-3.258,-3.3056,0.0,0.0,0.0,0.0,0.0,0.0,0.0,0.0,0.0,-3.8062,-3.9197,-3.9832,-3.9881,-4.0289,-4.0713,-4.1103,-4.1103,-4.1495,-4.2202,-4.2202,-4.2031,-4.1724,-4.1724,-4.1184,-4.0175,-3.8563,-3.771,-3.7428,0.0,0.0,0.0,0.0,-3.6599,-3.6148,-3.5774,-3.5401,0.0,0.0,0.0,0.0,0.0,0.0,0.0,0.0,0.0,0.0,0.0,0.0,0.0,-3.554,-3.5573,-3.5514,-3.5266,-3.4482,-3.3482,0.0,-3.1808,-3.1616,-3.1774,0.0,0.0,0.0,0.0,-3.3563,-3.4064,-3.4482,-3.4768,-3.4848,-3.4848,-3.4877,-3.4936,-3.4946,-3.4821,-3.4551,-3.4126,-3.3584,-3.2875,-3.1637,-3.0593,0.0,0.0,0.0,0.0,0.0,0.0,0.0,0.0,0.0,0.0,0.0,0.0,0.0,0.0,0.0,0.0,0.0,0.0,0.0,0.0,0.0,0.0,0.0,0.0,0.0,0.0,0.0,0.0,-3.1328,-3.2256,-3.2925,-3.3452,-3.4048,0.0,0.0,0.0,0.0,0.0,0.0,-3.8678,-3.9251,-3.9648,-3.9834,-4.0916,-4.1474,-4.1474,-4.2016,-4.2441,-4.2724,-4.2724,-4.2879,-4.3199,-4.3199,-4.3053,-4.2866,-4.2866,-4.2457,-4.1631,-3.9617,-3.8692,-3.8504,-3.8391,-3.8345,-3.8368,-3.8572,-3.8276,-3.7733,-3.7226,-3.6755,-3.6241,-3.5702,0.0,-3.5277,-3.5171,0.0,0.0,0.0,0.0,-3.6007,-3.5985,-3.6144,-3.6251,-3.6104,-3.6051,-3.603,-3.5915,-3.5943,-3.5434,0.0,-3.2708,-3.2322,-3.2317,0.0,0.0,0.0,0.0,-3.4136,-3.4802,-3.5097,-3.5208,-3.5036,-3.5038,-3.4994,-3.4866,-3.4859,-3.4898,-3.4983,-3.4457,-3.4088,-3.3917,-3.255,-3.144,-3.0638,0.0,0.0,0.0,0.0,0.0,0.0,0.0,0.0,0.0,0.0,0.0,0.0,0.0,0.0,0.0,0.0,0.0,0.0,0.0,0.0,0.0,0.0,0.0,0.0,0.0,0.0,0.0,0.0,0.0,-3.4358,-3.5753,0.0,0.0,0.0,0.0,-3.8397,-3.9269,-4.0103,-4.0826,-4.1008,-4.1407,-4.21,-4.2202,-4.2236,-4.2236,-4.2269,-4.2642,-4.3352,-4.3352,-4.3741,-4.4496,-4.4496,-4.409,-4.3352,-4.3352,-4.2946,-4.217,-4.089,-3.9973,-3.9262,-3.8504,-3.8213,-3.8213,-3.8236,-3.8288,-3.8345,-3.8311,-3.8434,-3.8616,-3.8581,-3.8144,-3.7502,-3.6893,-3.6786,0.0,0.0,-3.7061,-3.8093,-3.7482,-3.7856,-3.8286,-3.7739,-3.7578,-3.7434,-3.6785,-3.6708,-3.632,0.0,-3.472,-3.4582,-3.3839,0.0,-3.4012,-3.4123,-3.4921,-3.5521,-3.563,-3.6303,-3.6495,-3.5731,-3.5713,-3.5469,-3.4773,-3.4768,-3.483,-3.4908,-3.4879,-3.4565,-3.3922,-3.3085,-3.2297,-3.1551,-2.9926,0.0,0.0,0.0,0.0,0.0,0.0,0.0,0.0,0.0,0.0,0.0,0.0,0.0,0.0,0.0,0.0,0.0,0.0,0.0,0.0,0.0,0.0,0.0,0.0,0.0,0.0,0.0,0.0,-3.6117,-3.6894,0.0,-3.8885,-3.9313,-3.9796,-4.0511,-4.0875,-4.1414,-4.2244,-4.2852,-4.3535,-4.4266,-4.4868,-4.5196,-4.5196,-4.5196,-4.5331,-4.5585,-4.5585,-4.5483,-4.5314,-4.5314,-4.4891,-4.4164,-4.4164,-4.3724,-4.298,-4.2535,-4.1655,-4.0544,-4.033,-3.9971,-3.9562,-3.9658,-3.9422,-3.9035,-3.9035,-3.8757,-3.8437,-3.8504,-3.8439,-3.8295,-3.8126,-3.815,-3.8203,-3.8044,-3.8462,-3.8936,-3.8735,-3.8958,-3.9075,-3.8429,-3.827,-3.8112,-3.7488,-3.7362,-3.7091,-3.6164,-3.5774,-3.5516,-3.5308,-3.5381,-3.5468,-3.5536,-3.5898,-3.62,-3.6265,-3.6576,-3.667,-3.6416,-3.5997,-3.5637,-3.5375,-3.4935,-3.4697,-3.478,-3.485,-3.4803,-3.4546,-3.3329,-3.252,-3.2314,-3.0702,-2.9652,0.0,0.0,0.0,0.0,0.0,0.0,0.0,0.0,0.0,0.0,0.0,0.0,0.0,0.0,0.0,0.0,0.0,0.0,0.0,0.0,0.0,0.0,0.0,0.0,0.0,0.0,-3.5781,-3.7406,-3.8144,-3.9088,-4.0537,-4.0996,-4.1585,-4.2547,-4.2945,-4.341,-4.3964,-4.4624,-4.5215,-4.5673,-4.6296,-4.6625,-4.6625,-4.6625,-4.6638,-4.671,-4.671,-4.6473,-4.6058,-4.5821,-4.5432,-4.4942,-4.4716,-4.4282,-4.3809,-4.3809,-4.3081,-4.1931,-4.1765,-4.1231,-4.0629,-4.0687,-4.0302,-3.9703,-3.9751,-3.9409,-3.9006,-3.9076,-3.8991,-3.8895,-3.8991,-3.8936,-3.8816,-3.8964,-3.9264,-3.9532,-3.9399,-3.9626,-3.9708,-3.9091,-3.874,-3.8441,-3.8076,-3.7828,-3.7542,-3.7128,-3.6593,-3.6186,-3.6003,-3.6054,-3.6157,-3.6211,-3.6587,-3.686,-3.693,-3.722,-3.7349,-3.7124,-3.644,-3.5901,-3.5613,-3.4918,-3.4539,-3.4655,-3.4751,-3.484,-3.4908,-3.366,-3.2885,-3.2699,-3.113,-3.0094,-2.9646,0.0,0.0,0.0,0.0,0.0,0.0,0.0,0.0,0.0,0.0,0.0,0.0,0.0,0.0,0.0,0.0,0.0,0.0,0.0,0.0,0.0,0.0,0.0,-3.3409,-3.5899,-3.7849,-3.8264,-3.9634,-4.0915,-4.1811,-4.2846,-4.3734,-4.4381,-4.5398,-4.5982,-4.6015,-4.6219,-4.636,-4.6377,-4.6377,-4.6377,-4.6377,-4.6377,-4.6435,-4.6565,-4.6565,-4.6641,-4.6802,-4.6063,-4.5742,-4.5674,-4.4942,-4.4621,-4.4621,-4.4587,-4.4147,-4.3358,-4.2625,-4.188,-4.1238,-4.1238,-4.0841,-4.0364,-4.047,-4.0502,-4.0485,-4.0493,-3.999,-3.9433,-3.9517,-3.9112,-3.8675,-3.8832,-3.948,-4.0013,-3.9501,-3.9876,-4.0291,-3.9746,-3.9009,-3.8445,-3.8564,-3.8073,-3.7613,-3.7667,-3.7267,-3.6676,-3.5897,-3.5929,-3.6088,-3.6145,-3.6941,0.0,-3.7617,-3.8354,-3.8582,-3.7806,-3.7068,-3.6303,-3.5497,-3.4766,-3.4412,-3.4591,-3.4602,-3.4689,-3.487,-3.4111,-3.3371,-3.2672,-3.1194,-3.0469,-3.053,0.0,0.0,0.0,0.0,0.0,0.0,0.0,0.0,0.0,0.0,0.0,0.0,0.0,0.0,0.0,0.0,0.0,0.0,0.0,0.0,0.0,0.0,-3.58,-3.6093,-3.7033,-3.8494,-4.0625,-4.1483,-4.2395,-4.3767,-4.43,-4.472,-4.5045,-4.5415,-4.5871,-4.6399,-4.6768,-4.7191,-4.766,-4.7835,-4.7897,-4.7897,-4.7897,-4.7912,-4.7958,-4.7958,-4.7689,-4.7217,-4.7032,-4.6646,-4.6079,-4.5354,-4.5035,-4.4984,-4.4447,-4.4123,-4.3855,-4.332,-4.2658,-4.1999,-4.1999,-4.1551,-4.0951,-4.1002,-4.0671,-4.0238,-4.0313,-4.0218,-4.0056,-4.0202,-4.0096,-4.0014,-4.015,-4.0422,-4.0666,-4.0613,-4.0797,-4.0839,-4.0305,-3.9596,-3.8936,-3.8551,-3.7903,-3.741,-3.7485,-3.7452,-3.738,-3.7304,-3.7419,-3.7533,-3.755,-3.7877,0.0,-3.8183,-3.8444,-3.856,-3.8437,-3.7775,-3.7017,-3.6255,-3.5508,-3.4865,-3.4342,-3.4495,-3.4615,-3.4678,-3.4046,-3.309,-3.1782,-3.1431,-3.1293,0.0,0.0,0.0,0.0,0.0,0.0,0.0,0.0,0.0,0.0,0.0,0.0,0.0,0.0,0.0,0.0,0.0,0.0,0.0,0.0,0.0,0.0,-3.6863,-3.784,-3.859,-3.8999,-3.9866,-4.1675,-4.2571,-4.3586,-4.4962,-4.5225,-4.557,-4.6061,-4.6241,-4.6552,-4.7045,-4.7588,-4.795,-4.8115,-4.8544,-4.8593,-4.8308,-4.8308,-4.8324,-4.8388,-4.8388,-4.8202,-4.7847,-4.7546,-4.7178,0.0,-4.5975,-4.5474,-4.5156,-4.475,-4.4382,0.0,0.0,0.0,0.0,0.0,-4.2016,-4.166,-4.166,-4.1373,-4.0976,-4.0765,-4.0688,-4.062,-4.0464,-4.0412,-4.0436,-4.0583,-4.068,-4.0776,-4.0976,-4.1035,-4.1013,-4.0787,-3.9944,-3.9098,-3.883,-3.7939,-3.722,-3.7336,-3.7448,0.0,-3.7667,-3.7863,-3.8019,-3.8019,-3.817,-3.8267,-3.8267,-3.8382,-3.8496,-3.8562,-3.7894,-3.7144,-3.6435,-3.567,0.0,0.0,0.0,-3.4506,-3.4676,-3.4046,0.0,0.0,0.0,-3.2109,-3.221,0.0,0.0,0.0,-3.2252,-3.2535,0.0,0.0,0.0,0.0,0.0,0.0,0.0,0.0,0.0,0.0,0.0,0.0,0.0,0.0,0.0,0.0,-3.8098,-3.948,-4.083,-4.1351,-4.1751,-4.2149,-4.3311,-4.4564,-4.5677,-4.5896,-4.6392,-4.7293,-4.758,-4.7733,-4.7885,0.0,0.0,0.0,0.0,-4.8912,-4.8249,-4.8166,-4.8182,-4.8296,-4.8213,-4.826,-4.8435,-4.7768,-4.7467,-4.7433,-4.6684,-4.5982,-4.5394,-4.531,-4.4842,-4.4214,-4.4258,-4.3906,-4.3266,-4.274,-4.2489,-4.2422,-4.2422,0.0,0.0,-4.1441,-4.1204,-4.1094,-4.0476,-4.028,-4.0305,-4.0436,-4.0485,-4.0534,-4.0776,-4.0864,-4.0901,-4.1013,-3.9969,-3.9011,-3.9115,-3.8003,-3.7029,-3.722,-3.7317,-3.7355,-3.7392,-3.7667,-3.7881,-3.7881,-3.8002,-3.8086,-3.8086,-3.8236,-3.835,-3.8366,0.0,0.0,-3.6241,-3.554,-3.4857,-3.4192,-3.4185,-3.4363,-3.4758,-3.4159,-3.3834,-3.3881,-3.318,-3.2907,-3.3026,-3.3038,-3.3163,-3.3372,-3.3341,-3.3384,0.0,0.0,0.0,0.0,0.0,0.0,0.0,0.0,0.0,0.0,0.0,0.0,0.0,0.0,0.0,-3.9428,-3.997,-4.0685,-4.2204,-4.2973,-4.3546,-4.3871,-4.4424,-4.5336,-4.6681,-4.6989,-4.7457,-4.8329,-4.8609,-4.8803,-4.898,-4.9442,0.0,-4.9534,-4.982,-4.9939,-4.979,-4.9193,-4.8895,-4.8912,0.0,0.0,-4.8082,-4.7949,-4.7883,-4.785,-4.7103,-4.6704,-4.6522,-4.5924,-4.5305,-4.474,-4.4431,-4.4209,-4.4074,-4.4153,-4.3741,-4.32,-4.32,-4.2811,-4.2168,-4.1441,-4.1204,-4.1068,-4.0358,-4.0138,0.0,-4.0288,-4.0337,-4.0362,-4.0534,-4.0655,-4.0597,-4.0124,-3.9408,-3.8703,-3.821,-3.7417,-3.6888,-3.7027,-3.7126,-3.7185,-3.7297,-3.7558,-3.7739,-3.7739,-3.7863,-3.7933,-3.7933,-3.8019,-3.8103,-3.8152,-3.8127,-3.7535,-3.6167,-3.601,-3.5363,-3.396,-3.4086,-3.4328,-3.4634,-3.4617,-3.4311,-3.3749,-3.3696,-3.3704,-3.3798,-3.3896,-3.4327,-3.5017,-3.4497,-3.4256,0.0,0.0,0.0,0.0,0.0,0.0,0.0,0.0,0.0,0.0,0.0,-3.5879,0.0,0.0,-3.9001,-4.0197,-4.1315,-4.2315,-4.3102,-4.3871,-4.4402,-4.4391,-4.5189,-4.6101,-4.6998,-4.7489,-4.7951,-4.8524,-4.8723,-4.8941,-4.9138,-4.9801,-5.0082,-4.9928,-5.0344,-5.0464,-5.022,-4.9839,-4.9475,-4.911,-4.873,-4.8365,-4.8001,-4.8001,-4.8001,-4.7984,-4.7603,-4.7239,-4.6841,-4.6096,-4.5628,-4.5291,-4.4799,-4.4444,-4.4224,-4.4384,-4.4204,-4.3867,-4.3967,-4.3758,-4.3301,-4.2557,-4.2049,-4.161,-4.0865,-4.0375,-4.0096,-4.0188,-4.0188,-4.0238,-4.0362,-4.0453,-4.0424,-4.0158,-3.933,-3.853,-3.8265,-3.7384,-3.6708,-3.6869,-3.6989,-3.7087,-3.7184,-3.7373,-3.7522,-3.7541,-3.7703,-3.781,-3.781,-3.7898,-3.795,-3.8002,-3.7693,-3.7053,-3.5947,-3.5334,-3.4669,-3.3844,-3.4049,-3.4281,-3.445,-3.4612,-3.4571,-3.4264,-3.4356,-3.4478,-3.4592,-3.4672,-3.4971,-3.5483,-3.5162,-3.504,0.0,0.0,0.0,0.0,0.0,0.0,0.0,0.0,-3.5087,-3.5729,-3.6507,-3.7278,-3.7959,-3.9344,-4.0512,-4.0827,-4.24,-4.3655,-4.3793,-4.4492,-4.4933,-4.4705,-4.5776,-4.6711,-4.7331,-4.7908,-4.8402,-4.8733,-4.892,-4.9105,-4.9341,-5.0132,-5.0435,-5.0199,-5.0829,-5.0968,-5.0565,-5.0433,-5.0087,-4.9525,-4.9392,-4.8945,-4.8216,-4.8216,-4.815,-4.8001,-4.8001,-4.7669,-4.7057,-4.6311,-4.6013,-4.5962,-4.5324,-4.4714,-4.4223,-4.4246,-4.4253,-4.4281,-4.4457,-4.4485,-4.4367,-4.3591,-4.2831,-4.2124,-4.1371,-4.0654,-4.0096,-4.0096,-4.0096,-4.0121,-4.0238,-4.028,-4.0279,-4.0266,-3.9268,-3.8357,-3.835,-3.7344,-3.6523,-3.6708,-3.6849,-3.6968,-3.7011,-3.7145,-3.7278,-3.7373,-3.7522,-3.7631,-3.7631,-3.7757,-3.781,-3.7648,-3.7073,-3.6367,-3.5571,-3.4393,-3.3739,-3.3807,-3.3998,-3.4173,-3.4281,-3.445,-3.4615,-3.4762,-3.485,-3.4964,-3.5132,-3.5166,-3.5266,-3.5439,-3.5489,-3.5595,-3.1222,-3.149,-3.1815,-3.2126,-3.3036,-3.4053,0.0,0.0,-3.6432,-3.706,-3.8197,-3.9146,-3.942,-4.0752,-4.2028,-4.2845,-4.3306,-4.3824,-4.4409,-4.5087,-4.5565,-4.5702,-4.6169,-4.6991,-4.8302,-4.8669,-4.9147,-5.0015,-5.0101,-5.0294,-5.0671,-5.0946,-5.1187,-5.1308,-5.1578,-5.1776,-5.1908,-5.1248,-5.094,-5.1067,-5.0386,-4.9707,-4.8978,-4.8978,-4.863,-4.8001,-4.8001,-4.7951,-4.7819,-4.7073,-4.6775,-4.6709,-4.5995,-4.5249,-4.458,-4.4244,-4.4126,-4.4126,-4.4155,-4.4155,-4.4037,-4.3283,-4.2629,-4.1981,-4.1247,-4.0577,-4.0096,-4.0096,-4.0096,-4.0096,-4.0138,-4.0213,-4.0135,-3.9513,-3.8775,-3.8088,-3.7568,-3.6857,-3.6364,-3.6523,-3.6643,-3.6742,-3.6745,-3.6908,-3.7105,-3.7278,-3.7373,-3.743,-3.743,-3.7595,-3.747,-3.6807,-3.6715,-3.6167,-3.4844,-3.3948,-3.3549,-3.3793,-3.3834,-3.3947,-3.4197,-3.4293,-3.442,-3.4615,-3.4739,-3.4849,-3.4926,-3.5053,-3.5157,-3.5242,-3.5424,-3.5534,-3.1999,-3.2624,-3.3336,0.0,-3.4706,-3.5779,-3.6181,-3.6984,-3.7778,-3.8437,-3.9334,-4.0149,-4.0598,-4.1738,-4.2705,0.0,-4.3722,-4.4425,-4.5064,-4.5403,-4.5919,-4.6784,-4.6796,-4.7224,-4.8475,-4.9032,-4.9537,-5.0034,-5.0223,-5.0379,-5.055,-5.0858,-5.1124,-5.1312,-5.1536,-5.1721,-5.1904,-5.1753,-5.1463,-5.114,-5.0931,-5.0452,-4.9756,-4.9756,-4.9342,-4.863,-4.8199,-4.8001,-4.7984,-4.7669,-4.7537,-4.7471,-4.6725,-4.6245,-4.5862,-4.4913,-4.4319,-4.3998,-4.4068,-4.4097,-4.4047,-4.3729,-4.3183,-4.25,-4.1751,-4.1103,-4.0517,-4.0104,-4.0037,-4.0096,-4.0096,-4.0138,-4.012,-3.9798,-3.887,-3.8018,-3.7757,-3.694,-3.6255,-3.6381,-3.6502,-3.6602,-3.6681,-3.6766,-3.6846,-3.6946,-3.7182,-3.7336,-3.7336,-3.7411,-3.7022,-3.5864,-3.5398,-3.4764,-3.3761,-3.3503,-3.3452,-3.3563,-3.3712,-3.3842,-3.3959,-3.4148,-3.4316,-3.4484,-3.4623,-3.4759,-3.4908,-3.4954,-3.5063,-3.5209,-3.53,-3.5393,-3.3115,0.0,0.0,-3.5161,-3.6384,-3.7532,-3.7693,-3.851,-3.9364,-3.9858,-4.0487,-4.1085,-4.1602,-4.2538,-4.3259,-4.3259,-4.3999,-4.4818,-4.5495,-4.5757,-4.6296,-4.7465,-4.7293,-4.7517,-4.859,-4.9062,-4.9473,-4.9781,-5.005,-5.0223,-5.0301,-5.0589,-5.0858,-5.1124,-5.1275,-5.1462,-5.1704,-5.1868,-5.1678,-5.1224,-5.1437,-5.1128,-5.0398,-5.0269,-4.9922,-4.9375,-4.863,-4.8299,-4.8299,-4.8084,-4.8001,-4.7951,-4.7404,-4.7073,-4.6774,-4.559,-4.4707,-4.4118,-4.4006,-4.3952,-4.3952,-4.3952,-4.3509,-4.2785,-4.2039,-4.1429,-4.0807,-4.012,-3.9961,-4.0062,-4.007,-4.0096,-4.0096,-4.0096,-3.9163,-3.8218,-3.8044,-3.7143,-3.6362,-3.6289,-3.6339,-3.6461,-3.6582,-3.6623,-3.6643,-3.6643,-3.6926,-3.7124,-3.7163,-3.7044,-3.6465,-3.5208,-3.4443,-3.3743,-3.3035,-3.315,-3.3304,-3.3393,-3.3591,-3.3726,-3.3807,-3.3998,-3.4185,-3.434,-3.4484,-3.4636,-3.4821,-3.4851,-3.4964,-3.5115,-3.5166,-3.5281,0.0,0.0,-3.6293,-3.647,-3.7794,-3.9045,-3.9045,-4.0241,-4.1294,-4.1324,-4.1886,-4.2351,-4.2366,-4.327,-4.3957,-4.3957,-4.4305,-4.4818,-4.5495,-4.6157,-4.6819,-4.7527,-4.7588,-4.7931,0.0,-4.8762,-4.8914,-4.955,-4.9797,-5.005,-5.0301,-5.0301,-5.0496,-5.0912,-5.0912,-5.1102,-5.1515,-5.1515,-5.1594,-5.1782,-5.198,-5.1691,-5.0949,-5.0431,-5.0204,-5.0137,-4.9392,-4.9077,-4.9011,-4.8299,-4.8001,-4.8001,-4.7984,-4.7537,-4.6808,-4.6046,-4.5315,-4.4586,-4.386,-4.3628,-4.3628,-4.3628,-4.3186,-4.2582,-4.1916,-4.1293,-4.0685,-4.0077,-3.9901,-3.9952,-4.0062,-4.0096,-4.0096,-4.0096,-3.9537,-3.88,-3.8139,-3.7415,-3.6735,-3.6298,-3.6204,-3.6229,-3.6301,-3.6423,-3.6502,-3.6502,-3.6623,-3.6745,-3.6809,-3.6357,-3.577,-3.5084,-3.4287,-3.3559,-3.2938,-3.2916,-3.3057,-3.3364,-3.3411,-3.352,-3.3793,-3.3868,-3.3998,-3.4209,-3.4328,-3.4473,-3.4623,-3.4742,-3.4841,-3.4898,-3.5107,-3.5231,0.0,0.0,-3.8003,-3.8199,-3.9336,-4.0464,-4.0599,-4.1017,-4.1422,-4.1422,-4.1587,-4.1886,-4.2321,-4.29,-4.3472,-4.3912,-4.4358,-4.501,-4.6095,-4.6449,-4.7004,-4.8142,-4.7881,0.0,0.0,0.0,0.0,-4.955,-4.9677,-4.9797,-5.001,-5.0207,-5.034,-5.0512,-5.0743,-5.0972,-5.1102,-5.1366,-5.1536,-5.161,-5.1794,-5.1846,-5.1707,-5.1053,-5.0812,-5.085,-4.9641,-4.911,-4.9044,-4.8299,-4.8001,-4.8001,-4.8001,-4.7852,-4.7537,-4.6792,-4.6063,-4.5251,-4.4012,-4.3598,-4.3598,-4.3598,-4.3446,-4.3173,-4.2443,-4.1843,-4.1265,-4.0568,-4.0079,-3.9781,-3.9935,-3.9977,-3.9986,-4.0087,-3.9554,-3.8945,-3.8698,-3.7719,-3.686,-3.6711,-3.6339,-3.6062,-3.6105,-3.6148,-3.617,-3.617,-3.6478,-3.6702,-3.6725,-3.6105,-3.5628,-3.5535,-3.4357,-3.3582,-3.3505,-3.3123,-3.2948,-3.3057,-3.3274,-3.3466,-3.3605,-3.3753,-3.3921,-3.4136,-3.4221,-3.4393,-3.4612,-3.4678,-3.4791,-3.4889,-3.5065,-3.5168,0.0,-3.8398,-3.9343,-3.9721,-4.071,-4.159,-4.1743,-4.1767,-4.1767,-4.1767,-4.1587,-4.1504,-4.1976,-4.253,-4.3061,-4.3563,-4.4129,-4.4895,-4.608,-4.6449,-4.7004,-4.8127,-4.7865,-4.7865,0.0,0.0,0.0,-4.9325,-4.9437,-4.9557,-4.9757,-4.9971,-5.0144,-5.0301,-5.055,-5.0743,-5.0912,-5.1178,-5.135,-5.1499,-5.1647,-5.1794,-5.1961,-5.15,-5.1358,-5.1418,-5.0195,-4.9519,-4.9222,-4.8563,-4.8134,-4.7886,-4.7968,-4.8001,-4.7918,-4.7173,-4.6427,-4.5632,-4.4423,-4.3813,-4.3598,-4.3598,-4.3598,-4.3449,-4.2704,-4.2079,-4.1449,-4.0789,-4.0147,-3.9668,-3.9781,-3.9824,-3.9858,-3.9986,-3.9657,-3.926,-3.9056,-3.8299,-3.7498,-3.7001,-3.6598,-3.6239,-3.6048,-3.5997,-3.5997,-3.5997,-3.6251,-3.6478,-3.6544,-3.611,-3.5757,-3.5712,-3.4802,-3.4071,-3.3706,-3.3332,-3.3057,-3.2918,-3.3119,-3.3319,-3.3466,-3.3675,-3.386,-3.4023,-3.4136,-3.4305,-3.4528,-3.4623,-3.4739,-3.4879,-3.4974,-3.5235,-3.8752,-3.9565,-4.0412,-4.1029,-4.1822,-4.244,-4.241,-4.2396,-4.2381,-4.2306,-4.1796,-4.1324,0.0,0.0,-4.2697,-4.2948,-4.3709,-4.4557,-4.548,-4.6172,-4.685,0.0,0.0,0.0,0.0,0.0,0.0,-4.8908,0.0,-4.9356,-4.9557,-4.9597,-4.9797,-5.0262,-5.0301,-5.0457,-5.0874,-5.0912,-5.1102,-5.1462,-5.1462,-5.1573,-5.1778,-5.1778,-5.1778,-5.1782,-5.1008,-5.0271,-4.9569,-4.9002,-4.838,-4.7704,-4.7886,-4.8001,-4.7918,-4.7206,-4.6493,-4.5748,-4.5003,-4.4257,-4.3598,-4.3598,-4.3598,-4.3466,-4.2754,-4.2026,-4.1354,-4.0795,-4.009,-3.9561,-3.9668,-3.9677,-3.9729,-3.9875,-3.9901,-3.9724,-3.9183,-3.9022,-3.8614,-3.7267,-3.695,-3.6707,-3.609,-3.5975,-3.5975,-3.5975,-3.5975,-3.6062,-3.6259,-3.628,-3.6087,-3.56,-3.5516,-3.4985,-3.3703,-3.3564,-3.3389,-3.3012,-3.3073,-3.3229,-3.349,-3.365,-3.3808,-3.3937,-3.4105,-3.4257,-3.4404,-3.4528,-3.4685,-3.4855,-3.4936,-3.5495,-4.0254,-4.1316,-4.2251,-4.2294,-4.2821,-4.3181,-4.2554,-4.2396,-4.2126,-4.11,-4.0771,-4.0651,0.0,0.0,0.0,-4.2781,-4.3312,0.0,-4.5418,-4.6172,0.0,-4.7527,0.0,-4.8419,-4.8604,-4.8466,0.0,0.0,-4.8924,-4.9169,-4.9356,-4.9517,-4.9637,-4.9757,-5.0129,-5.034,-5.0457,-5.0743,-5.101,-5.1275,-5.1275,-5.1387,-5.1573,-5.1573,-5.1647,-5.1782,-5.1008,-5.0271,-4.9534,-4.8848,-4.8212,-4.7704,-4.7737,-4.7853,-4.7984,-4.7785,-4.7255,-4.651,-4.5765,-4.4688,-4.3598,-4.3598,-4.3598,-4.3565,-4.3367,-4.2787,-4.2088,-4.1387,-4.0702,-4.0076,-3.9661,-3.9537,-3.959,-3.9703,-3.9824,-3.9876,-3.9699,-3.9302,-3.8894,-3.8529,-3.7581,-3.6587,-3.5847,-3.5711,-3.5711,-3.5711,-3.5711,-3.58,-3.6041,-3.6084,-3.6084,-3.6087,-3.5604,-3.52,-3.5,-3.4595,-3.4285,-3.4164,-3.4461,-3.4749,-3.4963,-3.4634,-3.4527,-3.472,-3.4273,-3.4136,-3.4328,-3.4461,-3.4924,-3.5704,-3.5816,-3.6378,-4.1605,-4.2424,-4.3062,-4.325,-4.3559,-4.3626,-4.2831,-4.2363,-4.1791,-4.0755,-4.0246,0.0,-3.9963,0.0,0.0,0.0,0.0,0.0,-4.4849,-4.5687,-4.6403,0.0,-4.7758,0.0,-4.8589,-4.862,-4.862,0.0,-4.8759,-4.8939,-4.9144,-4.9266,-4.9412,-4.9597,-4.9852,-5.0089,-5.0301,-5.0628,-5.0858,-5.1086,-5.1086,-5.1146,-5.1387,-5.1387,-5.1408,-5.1487,0.0,-5.0493,-4.9776,-4.9113,-4.8482,-4.7897,-4.7753,-4.7787,-4.7886,-4.7968,-4.7537,-4.6792,-4.6046,-4.5052,-4.4042,-4.3698,-4.3598,-4.3598,-4.3598,-4.3069,-4.234,-4.1624,-4.0912,-4.0243,-3.9578,-3.9405,-3.9432,-3.959,-3.9668,-3.9746,-3.9798,-3.959,-3.9302,-3.9056,-3.7828,-3.666,-3.6197,-3.5819,-3.56,-3.56,-3.56,-3.5667,-3.58,-3.5866,-3.5975,-3.6152,-3.5851,-3.5573,-3.5374,-3.5083,-3.4818,-3.4617,-3.4889,-3.5152,-3.5357,-3.5218,-3.523,-3.5422,-3.5161,-3.5121,-3.5361,-3.5495,-3.5882,-3.6529,-3.6633,-3.7202,-4.2802,-4.316,-4.3373,-4.3913,-4.395,-4.3707,-4.3016,-4.2206,-4.1398,-4.0643,0.0,-3.9361,-3.9361,-3.9826,-4.0529,-4.1489,0.0,-4.3191,-4.409,-4.5033,-4.5803,-4.6388,-4.7142,-4.7835,-4.8419,-4.8558,-4.862,-4.862,-4.862,-4.8718,-4.8955,-4.8996,-4.9184,-4.9557,-4.9597,-4.9812,-5.0262,-5.0473,-5.0666,-5.0874,-5.0874,-5.0972,-5.1146,-5.1183,-5.1183,-5.1183,0.0,0.0,-4.992,-4.9433,-4.8793,-4.8032,-4.7784,-4.7671,-4.7704,-4.7935,-4.7603,-4.6924,-4.6079,-4.5367,-4.4705,-4.3863,-4.3598,-4.3598,-4.3598,-4.3151,-4.2489,-4.1728,-4.1061,-4.0376,-3.9647,-3.9381,-3.9325,-3.9448,-3.9501,-3.9511,-3.9651,-3.9798,-3.9707,-3.9066,-3.7824,-3.6867,-3.6766,-3.6101,-3.5554,-3.5554,-3.5554,-3.5554,-3.5554,-3.5684,-3.5839,-3.5954,-3.6079,-3.5946,-3.5377,-3.5396,-3.5268,-3.4894,-3.5081,-3.5261,-3.549,-3.5686,-3.5924,-3.6131,-3.6237,-3.6427,-3.6684,-3.682,-3.703,-3.7348,-3.7415,-3.8012,-4.3571,-4.4136,-4.4509,-4.4289,-4.3831,-4.3213,-4.2355,-4.1613,0.0,0.0,-3.9182,-3.9072,-3.9072,-3.9163,-3.9718,-4.1132,0.0,0.0,0.0,0.0,-4.5634,0.0,0.0,0.0,0.0,0.0,0.0,0.0,0.0,-4.862,-4.8661,-4.8857,-4.9103,-4.9356,-4.9517,-4.9717,-4.9971,-5.0207,-5.0457,-5.0666,-5.0836,-5.0912,-5.0972,-5.1108,-5.1183,-5.1183,-5.1183,0.0,-4.9192,-4.9078,-4.841,-4.738,-4.7485,-4.7588,-4.7704,-4.7935,-4.7918,-4.762,-4.6262,-4.5715,-4.5384,-4.4029,-4.3598,-4.3598,-4.3598,-4.3499,-4.3251,-4.2506,-4.1806,-4.1077,-4.0393,-3.9763,-3.9299,-3.9325,-3.9422,-3.9501,-3.9511,-3.9642,-3.9511,-3.8816,-3.796,-3.7172,-3.6561,-3.5864,-3.536,-3.536,-3.536,-3.536,-3.536,-3.5526,-3.5706,-3.5817,-3.5861,-3.592,-3.6015,-3.6086,-3.6184,-3.6342,-3.6525,-3.6758,-3.702,-3.6646,-3.6593,-3.6905,-3.6457,-3.6343,-3.6618,-3.6756,-3.7268,-3.8106,-3.8233,-3.8842,-4.433,-4.4806,-4.4964,-4.4701,-4.4117,-4.338,-4.2521,0.0,0.0,0.0,-3.8724,-3.8429,-3.8429,0.0,0.0,0.0,0.0,0.0,0.0,0.0,0.0,0.0,0.0,0.0,0.0,0.0,0.0,0.0,0.0,-4.862,-4.862,-4.8857,-4.9037,-4.9144,-4.9331,-4.9557,-4.9757,-4.9892,-5.0105,-5.0473,-5.055,-5.0705,-5.0896,-5.101,-5.1124,-5.1183,-5.1183,0.0,-4.9564,-4.9139,-4.845,-4.7582,-4.7414,-4.7454,-4.7637,-4.7787,-4.7654,-4.7272,-4.6179,-4.5533,-4.5036,-4.3929,-4.3598,-4.3598,-4.3598,-4.3598,-4.3449,-4.2704,-4.196,-4.1259,-4.0591,-3.9862,-3.9299,-3.9299,-3.9352,-3.9422,-3.9484,-3.9537,-3.9499,-3.9225,-3.8572,-3.7836,-3.7099,-3.6363,-3.5743,-3.5358,-3.5291,-3.5291,-3.5291,-3.5452,-3.5566,-3.5633,-3.5745,-3.5883,-3.6079,-3.6191,-3.6377,-3.6681,-3.6809,-3.7029,-3.7353,-3.722,-3.7304,-3.7558,-3.7466,-3.7507,-3.7751,-3.7909,-3.8294,-3.8889,-3.9023,-3.9381,-4.4768,-4.5169,-4.5173,-4.4816,-4.4235,-4.3495,-4.2633,-4.1289,0.0,0.0,-3.8373,-3.7816,-3.7816,0.0,-3.893,0.0,0.0,0.0,0.0,0.0,0.0,0.0,0.0,0.0,0.0,0.0,0.0,0.0,0.0,0.0,-4.862,-4.88,-4.8898,-4.8898,-4.9128,-4.9331,-4.9493,-4.9557,-4.9812,-5.0129,-5.0262,-5.0473,-5.0781,-5.0836,-5.0934,-5.1162,-5.1162,0.0,0.0,-4.9256,-4.8492,-4.7718,-4.7342,-4.7335,-4.752,-4.7654,-4.7341,-4.6792,-4.6046,-4.5301,-4.4572,-4.383,-4.3598,-4.3598,-4.3598,-4.3598,-4.3466,-4.2886,-4.2075,-4.1293,-4.0746,-3.9962,-3.9299,-3.9299,-3.9299,-3.9325,-3.9432,-3.9475,-3.9484,-3.9599,-3.9031,-3.8296,-3.7544,-3.6809,-3.605,-3.5338,-3.5222,-3.5222,-3.5222,-3.5354,-3.5469,-3.5469,-3.5656,-3.5839,-3.5975,-3.6101,-3.631,-3.6681,-3.6745,-3.6948,-3.7295,-3.7522,-3.7757,-3.8001,-3.8267,-3.8525,-3.8777,-3.8964,-3.917,-3.935,-3.9502,-3.9689,-4.4622,-4.5121,-4.5285,-4.4393,-4.3686,-4.2965,-4.2069,0.0,0.0,-3.8739,-3.8029,-3.7536,-3.7536,-3.7582,-3.8043,0.0,0.0,-4.0858,0.0,0.0,0.0,0.0,0.0,0.0,0.0,0.0,0.0,0.0,0.0,0.0,-4.862,-4.862,-4.862,-4.862,-4.8898,-4.9037,-4.9037,-4.9412,-4.9637,-4.9677,-5.0089,-5.0301,-5.034,-5.0534,-5.0743,-5.095,-5.095,0.0,0.0,-4.901,-4.822,-4.7008,-4.7131,-4.7335,-4.752,-4.7654,-4.7341,-4.6792,-4.6046,-4.5301,-4.4572,-4.383,-4.3598,-4.3598,-4.3598,-4.3598,-4.3582,-4.3515,-4.2473,-4.1409,-4.1326,-4.0299,-3.9299,-3.9299,-3.9299,-3.9299,-3.9325,-3.9325,-3.9325,-3.9325,-3.8745,-3.8006,-3.726,-3.6514,-3.5785,-3.5063,-3.4947,-3.4947,-3.4947,-3.5175,-3.5314,-3.5314,-3.5503,-3.5711,-3.5975,-3.6019,-3.6208,-3.6681,-3.6702,-3.6886,-3.7278,-3.7373,-3.7613,-3.7984,-3.8085,-3.8336,-3.8723,-3.8851,-3.9021,-3.9224,-3.9427,-3.9623,-4.4129,-4.4497,-4.448,-4.3969,-4.3282,-4.2454,-4.1595,0.0,-3.9068,-3.8192,-3.748,-3.7002,-3.6923,-3.723,-3.7815,0.0,0.0,0.0,0.0,0.0,0.0,0.0,0.0,0.0,0.0,0.0,0.0,0.0,0.0,0.0,-4.862,-4.862,-4.862,-4.862,-4.8718,-4.8857,-4.8996,-4.9291,-4.9477,-4.9597,-4.9916,-5.0129,-5.0301,-5.0379,-5.0534,-5.0711,-5.0391,0.0,0.0,-4.8505,-4.7815,-4.6927,-4.6996,-4.7149,-4.727,-4.7029,-4.6568,-4.5986,-4.5353,-4.4655,-4.3992,-4.3698,-4.3598,-4.3598,-4.3598,-4.3598,-4.3499,-4.3052,-4.2191,-4.1309,-4.0895,-4.0061,-3.9299,-3.9299,-3.9299,-3.9299,-3.9299,-3.9299,-3.9299,-3.9299,-3.9067,-3.8626,-3.7897,-3.7533,-3.7069,-3.634,-3.6224,-3.6224,-3.6224,-3.6469,-3.6614,-3.6614,-3.6003,-3.5711,-3.5975,-3.5997,-3.6208,-3.6681,-3.6702,-3.6886,-3.7278,-3.7354,-3.7577,-3.7933,-3.8052,-3.8269,-3.8575,-3.8701,-3.8892,-3.9142,-3.9311,-3.9489,-4.3457,-4.39,-4.3984,-4.364,-4.2884,-4.2021,0.0,0.0,-3.8606,-3.7934,-3.7266,-3.6723,-3.6585,-3.6939,-3.7479,0.0,0.0,-3.9631,0.0,0.0,0.0,0.0,0.0,0.0,0.0,0.0,0.0,0.0,0.0,0.0,0.0,-4.862,-4.862,-4.862,-4.862,-4.8702,-4.8857,-4.9087,-4.9316,-4.9517,-4.9717,-4.9931,-5.0184,-5.0184,-5.019,-5.016,0.0,0.0,0.0,-4.8062,-4.7486,-4.6876,-4.6876,-4.69,-4.6826,-4.647,-4.5799,-4.5055,-4.4669,-4.4103,-4.3539,-4.3539,-4.3568,-4.3598,-4.3598,-4.3598,-4.3449,-4.2704,-4.1839,-4.0945,-4.026,-3.9696,-3.9299,-3.9299,-3.9299,-3.9299,-3.9299,-3.9299,-3.9299,-3.9299,-3.9299,-3.9083,-3.8344,-3.8186,-3.7963,-3.7218,-3.7102,-3.7102,-3.7153,-3.7361,-3.7509,-3.7558,-3.6831,-3.6418,-3.6642,-3.6481,-3.6578,-3.7012,-3.6824,-3.6866,-3.7239,-3.7317,-3.7503,-3.7811,-3.7967,-3.8153,-3.838,-3.8562,-3.8792,-3.9031,-3.9183,-3.9389,-4.2619,-4.3395,-4.4028,-4.3372,-4.2538,-4.1674,0.0,0.0,-3.8262,-3.8029,-3.7452,-3.6938,-3.6723,-3.6693,-3.6894,-3.7431,0.0,0.0,0.0,0.0,0.0,0.0,0.0,0.0,0.0,0.0,0.0,0.0,0.0,0.0,0.0,-4.862,-4.862,-4.862,-4.862,-4.862,-4.862,-4.8857,-4.9103,-4.9316,-4.9517,-4.9717,-4.9916,-4.9916,-4.967,0.0,0.0,0.0,0.0,-4.7709,-4.7381,-4.6876,-4.6876,-4.6591,-4.6108,-4.6108,-4.5294,-4.421,-4.4194,-4.3859,-4.3402,-4.3402,-4.3492,-4.3598,-4.3598,-4.3598,-4.3449,-4.2704,-4.1491,-4.0243,-3.9497,-3.9315,-3.9299,-3.9299,-3.9299,-3.9299,-3.9299,-3.9299,-3.9299,-3.9299,-3.9299,-3.9083,-3.8344,-3.8186,-3.7963,-3.7218,-3.7102,-3.7153,-3.727,-3.741,-3.7558,-3.7696,-3.7919,-3.8114,-3.8173,-3.7626,-3.7417,-3.7756,-3.7102,-3.6809,-3.7089,-3.7222,-3.7391,-3.7595,-3.7811,-3.7968,-3.8101,-3.8364,-3.8634,-3.891,-3.9031,-3.9324,-4.1409,-4.1594,-4.1639,-4.1429,-4.0987,-4.037,-3.9514,0.0,-3.8364,-3.7603,-3.7291,-3.7089,-3.6923,-3.68,-3.6909,-3.7528,-3.8126,0.0,0.0,0.0,0.0,0.0,0.0,0.0,0.0,0.0,0.0,0.0,0.0,0.0,0.0,-4.862,-4.862,-4.862,-4.862,-4.862,-4.862,-4.8857,-4.9037,-4.9103,-4.9452,-4.9637,-4.9677,-4.9836,0.0,0.0,0.0,0.0,0.0,-4.6877,-4.6702,-4.6687,-4.6687,-4.6371,-4.5843,-4.5456,-4.4805,-4.3988,-4.3606,-4.334,-4.3204,-4.3204,-4.3312,-4.3462,-4.3462,-4.3539,-4.3333,-4.2092,-4.0729,-3.9597,-3.9365,-3.9299,-3.9299,-3.9299,-3.9299,-3.9299,-3.9299,-3.9299,-3.9299,-3.9299,-3.9299,-3.9232,-3.9,-3.8941,-3.8858,-3.8652,-3.8619,-3.8645,-3.8802,-3.8914,-3.9051,-3.9194,-3.9542,-3.9334,-3.8299,-3.8105,-3.8215,-3.8599,-3.7885,-3.7595,-3.7917,-3.7522,-3.7391,-3.7613,-3.7811,-3.7968,-3.8101,-3.8316,-3.8618,-3.8964,-3.9156,-3.9376,0.0,-4.0758,-4.0736,-4.0618,-4.0153,0.0,0.0,0.0,-3.8193,-3.7528,-3.7373,-3.7329,-3.7105,-3.6968,-3.697,-3.7281,-3.8069,0.0,0.0,0.0,0.0,0.0,0.0,0.0,0.0,0.0,0.0,0.0,0.0,0.0,0.0,-4.862,-4.862,-4.862,-4.862,-4.862,-4.862,-4.8759,-4.8898,-4.8996,-4.9266,-4.9327,-4.9236,-4.9339,0.0,0.0,0.0,0.0,0.0,-4.6363,-4.6349,-4.6461,-4.6204,-4.5761,-4.5238,-4.4658,-4.4026,-4.3408,-4.303,-4.2959,-4.3021,-4.3021,-4.319,-4.3402,-4.3402,-4.331,-4.2936,-4.1756,-4.058,-3.9647,-3.9381,-3.9299,-3.9299,-3.9299,-3.9299,-3.9299,-3.9299,-3.9299,-3.9299,-3.9299,-3.9299,-3.9299,-3.9299,-3.9299,-3.9299,-3.9299,-3.9299,-3.9379,-3.9537,-3.9651,-3.9781,-3.9961,-4.0288,-4.0117,-3.9153,-3.8957,-3.9031,-3.9333,-3.8647,-3.8356,-3.8588,-3.8009,-3.7758,-3.7892,-3.7846,-3.7863,-3.8036,-3.8302,-3.8618,-3.8983,-3.917,-3.935,0.0,0.0,0.0,0.0,0.0,0.0,0.0,0.0,0.0,-3.773,-3.77,-3.7596,-3.7284,-3.7224,-3.7104,-3.6785,-3.7901,0.0,0.0,0.0,0.0,0.0,0.0,0.0,0.0,0.0,0.0,0.0,0.0,0.0,0.0,-4.862,-4.862,-4.862,-4.862,-4.862,-4.862,-4.862,-4.8718,-4.8955,-4.8949,-4.8795,-4.8585,-4.8522,0.0,0.0,0.0,0.0,0.0,-4.6012,-4.6072,-4.6154,-4.545,-4.4884,-4.4328,-4.37,-4.3089,-4.2602,-4.2602,-4.2696,-4.2868,-4.2899,-4.3115,-4.3372,-4.3372,-4.298,-4.2357,-4.1662,-4.0961,-4.0243,-3.9564,-3.9348,-3.9299,-3.9299,-3.9299,-3.9299,-3.9299,-3.9299,-3.9299,-3.9299,-3.9299,-3.9299,-3.9299,-3.9299,-3.9299,-3.9299,-3.9299,-3.9405,-3.9651,-3.9703,-3.9807,-4.0062,-4.0337,-4.0485,-4.051,-4.0057,-3.983,-3.9979,-3.9403,-3.9116,-3.9188,-3.8679,-3.84,-3.839,-3.7894,-3.7721,-3.7916,-3.8302,-3.8634,-3.891,-3.9143,-3.9339,-3.8393,0.0,-3.9731,-3.9649,-3.9265,-3.89,0.0,0.0,0.0,0.0,0.0,0.0,0.0,0.0,-3.7164,-3.7104,0.0,-3.8783,0.0,0.0,0.0,0.0,0.0,0.0,0.0,0.0,0.0,0.0,0.0,0.0,0.0,-4.862,-4.862,-4.862,-4.862,-4.862,-4.862,-4.862,-4.862,-4.8702,-4.8372,-4.8304,-4.8372,-4.7997,0.0,0.0,0.0,0.0,-4.5848,-4.5278,-4.5147,-4.5244,-4.4578,-4.3978,-4.3472,-4.3311,-4.2928,-4.2445,-4.2445,-4.2539,-4.2696,-4.2837,-4.2961,-4.3054,-4.3312,-4.298,-4.2456,-4.2274,-4.1359,-4.0359,-4.0194,-3.973,-3.9299,-3.9299,-3.9299,-3.9299,-3.9299,-3.9299,-3.9299,-3.9299,-3.9299,-3.9299,-3.9299,-3.9299,-3.9299,-3.9299,-3.9299,-3.9352,-3.9511,-3.9642,-3.9755,-3.9935,-4.0205,-4.0387,-4.0485,-4.058,-4.0682,-4.0816,-4.0197,-3.9896,-4.0027,-3.9487,-3.8964,-3.8408,-3.8024,-3.7898,-3.8052,-3.8302,-3.8556,-3.8837,-3.9608,-4.0133,-3.7655,-3.8364,-3.9055,-3.8811,-3.89,-3.8958,-3.8655,0.0,0.0,0.0,0.0,0.0,0.0,0.0,0.0,0.0,-3.8232,0.0,0.0,0.0,0.0,0.0,0.0,0.0,0.0,0.0,0.0,0.0,0.0,0.0,0.0,-4.8142,-4.8296,-4.8604,-4.8312,-4.8296,-4.862,-4.862,-4.8466,-4.8142,-4.7926,-4.7592,-4.7208,-4.7028,-4.6671,0.0,0.0,0.0,-4.527,-4.4875,-4.4563,-4.4335,-4.3672,-4.325,-4.3034,-4.2731,-4.2461,-4.227,-4.227,-4.2381,-4.2539,-4.2696,-4.2837,-4.293,-4.3115,-4.2972,-4.2726,-4.2543,-4.1723,-4.0779,-4.0492,-3.9862,-3.9299,-3.9299,-3.9299,-3.9299,-3.9299,-3.9299,-3.9299,-3.9299,-3.9299,-3.9299,-3.9299,-3.9299,-3.9299,-3.9299,-3.9299,-3.9352,-3.9475,-3.9616,-3.9755,-3.9901,-4.0155,-4.033,-4.0387,-4.0655,-4.0864,-4.1,-4.0735,-4.0607,-4.0707,-4.0166,-3.9409,-3.8426,-3.8307,-3.8205,-3.8069,-3.8634,-3.9029,-3.9335,-4.0307,-4.0903,-3.7223,-3.7946,-3.8567,-3.8178,-3.8622,-3.909,-3.8777,0.0,0.0,0.0,0.0,0.0,0.0,0.0,0.0,0.0,0.0,0.0,0.0,0.0,0.0,0.0,0.0,0.0,0.0,0.0,0.0,0.0,0.0,0.0,0.0,-4.745,-4.7711,-4.8296,-4.7742,-4.7727,-4.8296,-4.8312,-4.8019,-4.745,-4.7342,-4.6815,-4.5881,-4.6017,-4.5862,0.0,0.0,0.0,-4.4685,-4.448,-4.4069,-4.35,-4.2789,-4.2606,-4.2628,-4.2072,-4.1947,-4.2093,-4.2077,-4.2206,-4.2381,-4.2539,-4.2665,-4.2837,-4.2868,-4.2976,-4.3012,-4.2673,-4.2096,-4.1397,-4.0713,-4.0011,-3.9448,-3.9332,-3.9299,-3.9299,-3.9299,-3.9299,-3.9299,-3.9299,-3.9299,-3.9299,-3.9299,-3.9299,-3.9299,-3.9299,-3.9299,-3.9325,-3.9432,-3.959,-3.9703,-3.9824,-4.0079,-4.0255,-4.028,-4.0502,-4.0697,-4.0823,-4.1,-4.1146,-4.1232,-4.0647,-3.9831,-3.8779,-3.8835,-3.8706,-3.8327,-3.9222,-3.9786,-4.0084,-4.1077,-4.1664,-3.6533,-3.7042,-3.7672,-3.7814,-3.8245,-3.8553,-3.8285,0.0,0.0,0.0,0.0,0.0,0.0,0.0,0.0,0.0,0.0,0.0,0.0,0.0,0.0,0.0,0.0,0.0,0.0,0.0,0.0,0.0,0.0,0.0,0.0,-4.6742,-4.6803,-4.6896,-4.6803,-4.6803,-4.6911,-4.6911,-4.685,-4.6742,-4.6172,-4.5904,-4.5881,-4.5512,-4.5425,0.0,0.0,-4.4812,-4.4622,-4.3469,-4.2947,-4.2774,-4.2047,-4.178,-4.1797,-4.1669,-4.1784,-4.1963,-4.2061,-4.2109,-4.2174,-4.2381,-4.2445,-4.2539,-4.2806,-4.2899,-4.2929,-4.2982,-4.2591,-4.203,-4.143,-4.0729,-4.0078,-3.9448,-3.9299,-3.9299,-3.9299,-3.9299,-3.9299,-3.9299,-3.9299,-3.9299,-3.9299,-3.9299,-3.9299,-3.9299,-3.9299,-3.9299,-3.9325,-3.9432,-3.9554,-3.9554,-3.9798,-4.0028,-4.0138,-4.0263,-4.0429,-4.0558,-4.0888,-4.1169,-4.1363,-4.0758,-4.0387,-4.043,-3.9957,-3.976,-3.9859,-4.0185,-4.0487,-4.0758,-4.1781,-4.2393,-3.6609,-3.6745,-3.6922,-3.6965,-3.7841,-3.8648,-3.8387,0.0,0.0,0.0,0.0,0.0,0.0,0.0,0.0,0.0,0.0,0.0,0.0,0.0,0.0,0.0,0.0,0.0,0.0,0.0,0.0,0.0,0.0,0.0,0.0,0.0,-4.6219,-4.6588,-4.6249,-4.6049,-4.6049,-4.5695,-4.5695,-4.6049,-4.5741,-4.5519,-4.5377,-4.5232,-4.5075,-4.4903,0.0,-4.429,-4.3564,-4.2947,-4.2457,-4.2062,-4.1715,-4.1588,-4.1588,-4.1588,-4.167,-4.1752,-4.1947,-4.198,-4.2012,-4.2174,-4.2254,-4.2286,-4.2539,-4.2634,-4.2665,-4.2914,-4.2575,-4.2085,-4.1948,-4.1069,-4.0172,-3.9951,-3.9597,-3.9299,-3.9299,-3.9299,-3.9299,-3.9299,-3.9299,-3.9299,-3.9299,-3.9299,-3.9299,-3.9299,-3.9299,-3.9299,-3.9299,-3.9422,-3.9501,-3.9501,-3.9668,-3.9833,-3.9986,-4.0113,-4.0313,-4.0583,-4.084,-4.107,-4.1238,-4.1049,-4.0823,-4.0595,-4.0453,-4.0263,-4.0049,-4.0743,-4.118,-4.1358,-4.2475,-4.3094,-3.6851,-3.6708,-3.6527,-3.6364,0.0,-3.8618,-3.8396,0.0,0.0,0.0,0.0,0.0,0.0,0.0,0.0,0.0,0.0,0.0,0.0,0.0,0.0,0.0,0.0,0.0,0.0,0.0,0.0,0.0,0.0,0.0,0.0,0.0,-4.5588,-4.6111,-4.5618,-4.5357,-4.5357,-4.4849,-4.4849,-4.5357,-4.5357,-4.5195,-4.4911,-4.4921,-4.4731,-4.44,-4.4264,-4.3643,-4.2679,-4.2505,-4.2094,-4.1588,-4.1588,-4.1588,-4.1588,-4.1588,-4.1588,-4.1621,-4.1784,-4.1833,-4.185,-4.1996,-4.2061,-4.2093,-4.2286,-4.2349,-4.2445,-4.2713,-4.2476,-4.2138,-4.2216,-4.1259,-4.0313,-4.0304,-3.972,-3.9175,-3.9175,-3.9175,-3.9175,-3.9175,-3.9218,-3.9245,-3.9245,-3.9272,-3.9299,-3.9299,-3.9272,-3.9245,-3.9245,-3.9299,-3.9352,-3.9379,-3.9537,-3.9677,-3.9849,-3.9986,-4.0188,-4.0551,-4.0728,-4.0912,-4.1047,-4.1238,-4.1141,-4.0683,-4.0881,-4.081,-4.0467,-4.1347,-4.1826,-4.1995,-4.2994,-4.3513,-3.6989,-3.6871,-3.6728,-3.6527,-3.7288,0.0,-3.7882,-3.8707,0.0,-3.9299,0.0,0.0,0.0,0.0,0.0,0.0,0.0,0.0,0.0,0.0,0.0,0.0,0.0,0.0,0.0,0.0,0.0,0.0,0.0,0.0,0.0,0.0,0.0,-4.4764,-4.4718,-4.4687,-4.4687,-4.4641,-4.4641,-4.4687,-4.4687,-4.4732,-4.4896,-4.4392,-4.4247,-4.4353,-4.3305,-4.2774,-4.2631,-4.1952,-4.1636,-4.1588,-4.1588,-4.1588,-4.1588,-4.1588,-4.1588,-4.1588,-4.1621,-4.1621,-4.1654,-4.1866,-4.1898,-4.1931,-4.2093,-4.2238,-4.2413,-4.2413,-4.2491,-4.2484,-4.2106,-4.1475,-4.0767,-4.0094,-3.9357,-3.8832,-3.8832,-3.8832,-3.8832,-3.8832,-3.8942,-3.9023,-3.9023,-3.9175,-3.9299,-3.9299,-3.9148,-3.9023,-3.9023,-3.8914,-3.8887,-3.9023,-3.9202,-3.9432,-3.9677,-3.9849,-3.9986,-4.0121,-4.0485,-4.0769,-4.0912,-4.1047,-4.1244,-4.1494,-4.1516,-4.1739,-4.2126,-4.2221,-4.2442,-4.2829,-4.3087,-4.334,-3.7089,-3.6989,-3.6888,-3.6728,-3.7538,0.0,0.0,-3.8931,-3.9781,0.0,0.0,0.0,0.0,0.0,0.0,0.0,0.0,0.0,0.0,0.0,0.0,0.0,0.0,0.0,0.0,0.0,0.0,0.0,0.0,0.0,0.0,0.0,0.0,-4.461,-4.461,-4.4409,-4.3994,-4.3994,-4.3756,-4.3356,-4.3793,-4.4068,-4.4254,-4.3707,-4.3341,-4.3144,-4.2832,-4.2426,-4.1983,-4.1699,-4.1588,-4.1588,-4.1588,-4.1588,-4.1588,-4.1588,-4.1588,-4.1588,-4.1588,-4.1588,-4.1621,-4.1703,-4.1703,-4.1736,-4.1915,-4.2012,-4.2109,-4.219,-4.2238,-4.2332,-4.251,-4.1703,-4.0785,-4.0611,-3.9657,-3.8805,-3.8805,-3.8805,-3.8805,-3.8805,-3.8832,-3.8887,-3.8887,-3.8942,-3.8985,-3.8985,-3.8914,-3.8887,-3.8887,-3.8832,-3.8832,-3.8887,-3.9121,-3.9352,-3.9441,-3.9651,-3.9833,-3.9961,-4.0263,-4.0527,-4.0655,-4.0864,-4.1029,-4.1152,-4.1448,-4.1736,-4.1995,-4.2205,-4.2432,-4.2709,-4.2919,-4.3142,-3.7223,-3.7108,-3.7009,0.0,0.0,0.0,-3.8294,0.0,0.0,0.0,0.0,0.0,0.0,0.0,0.0,0.0,0.0,0.0,0.0,0.0,0.0,0.0,0.0,0.0,0.0,0.0,0.0,0.0,0.0,0.0,0.0,0.0,0.0,0.0,-4.4016,-4.3821,-4.3358,-4.3432,-4.3164,-4.2659,-4.2926,-4.3246,-4.3557,-4.3007,-4.2657,-4.2406,-4.2374,-4.2062,-4.1588,-4.1588,-4.1588,-4.1588,-4.1588,-4.1588,-4.1588,-4.1588,-4.1588,-4.1588,-4.1588,-4.1446,-4.1272,-4.1272,-4.1114,-4.0957,-4.1086,-4.1198,-4.1278,-4.1342,-4.1422,-4.1564,-4.1908,-4.1241,-4.0461,-4.0456,-3.9508,-3.8611,-3.8667,-3.8667,-3.8667,-3.8667,-3.8711,-3.8738,-3.8738,-3.8777,-3.8805,-3.8805,-3.8946,-3.9082,-3.9082,-3.9233,-3.9254,-3.9098,-3.9331,-3.9412,-3.9218,-3.9441,-3.9642,-3.9772,-4.0028,-4.0238,-4.0436,-4.068,-4.0864,-4.0912,-4.1272,-4.1542,-4.1736,-4.2037,-4.2308,-4.251,-4.2765,-4.2994,-3.7411,-3.7261,0.0,0.0,0.0,0.0,0.0,0.0,0.0,0.0,0.0,0.0,0.0,0.0,0.0,0.0,0.0,0.0,0.0,0.0,0.0,0.0,0.0,0.0,0.0,0.0,0.0,0.0,0.0,0.0,0.0,0.0,0.0,0.0,-4.2736,-4.2793,-4.2777,-4.2992,-4.2992,-4.2777,-4.2116,-4.2178,-4.286,-4.2342,-4.2203,-4.2359,-4.1838,-4.1588,-4.1588,-4.1588,-4.1588,-4.1588,-4.1588,-4.1588,-4.1588,-4.1588,-4.1588,-4.1588,-4.1573,-4.1146,-4.0609,-4.0593,-4.0103,-3.9503,-3.9503,-3.9643,-3.9799,-3.9799,-3.9939,-4.0092,-4.0092,-4.006,-3.9836,-3.931,-3.8692,-3.8221,-3.8379,-3.8408,-3.8408,-3.8408,-3.852,-3.8621,-3.8621,-3.8727,-3.8821,-3.8821,-3.932,-3.9723,-3.9723,-4.0164,-4.0296,-3.976,-3.9834,-3.9663,-3.9078,-3.9191,-3.9369,-3.9501,-3.9746,-4.0028,-4.028,-4.0551,-4.0769,-4.0894,-4.1111,-4.1323,-4.1604,-4.188,-4.2115,-4.2308,-4.2647,-4.2823,-3.7429,0.0,0.0,0.0,0.0,0.0,0.0,0.0,0.0,0.0,0.0,0.0,0.0,0.0,0.0,0.0,0.0,0.0,0.0,0.0,0.0,0.0,0.0,0.0,0.0,0.0,0.0,0.0,0.0,0.0,0.0,0.0,0.0,0.0,-4.2972,-4.2774,-4.2326,-4.2361,-4.2128,-4.1591,-4.1389,-4.1584,-4.2116,-4.1607,-4.1484,-4.1637,-4.1617,-4.1588,-4.1588,-4.1588,-4.1588,-4.1588,-4.1588,-4.1588,-4.1588,-4.1588,-4.1588,-4.1525,-4.1051,-4.0767,-4.0514,-3.9993,-3.9677,-3.9503,-3.9503,-3.9534,-3.9581,-3.9581,-3.9643,-3.9563,-3.9103,-3.8961,-3.8958,-3.9022,-3.8504,-3.8049,-3.8221,-3.8637,-3.9005,-3.9153,-3.957,-3.994,-3.994,-3.9982,-4.0011,-4.0011,-4.0131,-4.0248,-4.0248,-4.0397,-4.0445,-4.0264,-4.0395,-4.0246,-3.968,-3.977,-3.9764,-3.9508,-3.9668,-3.9849,-4.0028,-4.028,-4.0461,-4.0607,-4.0959,-4.1238,-4.1471,-4.1815,-4.2115,-4.2308,-4.2506,-4.2706,-3.7022,0.0,0.0,0.0,0.0,0.0,0.0,0.0,0.0,0.0,0.0,0.0,0.0,0.0,0.0,0.0,0.0,0.0,0.0,0.0,0.0,0.0,0.0,0.0,0.0,0.0,0.0,0.0,0.0,0.0,0.0,0.0,0.0,0.0,-4.2372,-4.2203,-4.1781,-4.1849,-4.1646,-4.1187,-4.1187,-4.1323,-4.1595,-4.1307,-4.1205,-4.1323,-4.1522,-4.1588,-4.1588,-4.1588,-4.1588,-4.1588,-4.1588,-4.1588,-4.1557,-4.1288,-4.1193,-4.1099,-4.0403,-3.9993,-3.9692,-3.925,-3.8918,-3.8697,-3.8697,-3.8697,-3.8697,-3.8697,-3.8697,-3.8602,-3.8207,-3.8096,-3.8157,-3.8426,-3.812,-3.7956,-3.8418,-3.8875,-3.9304,-3.9744,-4.0192,-4.0496,-4.0496,-4.0496,-4.0496,-4.0496,-4.0739,-4.1031,-4.1306,-4.1338,-4.1225,-4.098,-4.1008,-4.0834,-4.0263,-4.0094,-3.9946,-3.9763,-3.9661,-3.9694,-3.9824,-4.0113,-4.0362,-4.051,-4.084,-4.1123,-4.1318,-4.1666,-4.1966,-4.2181,-4.2364,-4.2528,0.0,0.0,0.0,0.0,0.0,0.0,0.0,0.0,0.0,0.0,0.0,0.0,0.0,0.0,0.0,0.0,0.0,0.0,0.0,0.0,0.0,0.0,0.0,0.0,0.0,0.0,0.0,0.0,0.0,0.0,0.0,0.0,0.0,-4.1042,-4.1241,-4.1323,-4.1323,-4.1459,-4.1428,0.0,-4.1166,-4.1135,-4.1135,-4.126,-4.1292,-4.1229,-4.1428,-4.1462,-4.1399,-4.1399,-4.1399,-4.1399,-4.1399,-4.1399,-4.132,-4.0719,-4.0498,-4.0403,-3.9661,-3.9013,-3.8507,-3.8444,-3.8002,-3.751,-3.751,-3.751,-3.751,-3.751,-3.751,-3.751,-3.751,-3.751,-3.7539,-3.7642,-3.7671,-3.7921,-3.8786,-3.914,-3.947,-4.024,-4.0538,-4.0691,-4.0691,-4.0691,-4.0691,-4.0691,-4.1241,-4.1905,-4.2522,-4.2602,-4.2391,-4.1774,-4.1693,-4.1432,-4.085,-4.0324,-4.0024,-4.0099,-3.9723,-3.9537,-3.9677,-4.0062,-4.0337,-4.0485,-4.0769,-4.0989,-4.1186,-4.1453,-4.1732,-4.1984,-4.2163,-4.2346,0.0,0.0,0.0,0.0,0.0,0.0,0.0,0.0,0.0,0.0,0.0,0.0,0.0,0.0,0.0,0.0,0.0,0.0,0.0,0.0,0.0,0.0,0.0,0.0,0.0,0.0,0.0,0.0,0.0,0.0,0.0,0.0,0.0,-4.07,-4.1254,-4.1522,-4.1522,-4.1067,-4.0782,0.0,-4.0166,-3.9882,-3.9929,-4.0854,-4.1107,-4.0749,-4.0782,-4.0482,-3.9945,-3.9945,-3.9945,-3.9945,-3.9945,-3.9945,-3.9929,-3.9787,-3.974,-3.9645,-3.8965,-3.8634,-3.8428,-3.7875,-3.7636,-3.751,-3.751,-3.751,-3.751,-3.751,-3.751,-3.751,-3.751,-3.751,-3.751,-3.7539,-3.7539,-3.7773,-3.8605,-3.9255,-3.9952,-4.0887,-4.1575,-4.2008,-4.2133,-4.2149,-4.2149,-4.2149,-4.2263,-4.2424,-4.2586,-4.2602,-4.2538,-4.2392,-4.2376,-4.2147,-4.1615,-4.1063,-4.0553,-4.0132,-3.9723,-3.9511,-3.9537,-3.9824,-4.0104,-4.0337,-4.0624,-4.0817,-4.0965,-4.1403,-4.1626,-4.1692,-4.2016,-4.2225,0.0,0.0,0.0,0.0,0.0,0.0,0.0,0.0,0.0,0.0,0.0,0.0,0.0,0.0,0.0,0.0,0.0,0.0,0.0,0.0,0.0,0.0,0.0,0.0,0.0,0.0,0.0,0.0,0.0,0.0,0.0,-3.9866,-4.0072,-4.0072,-4.0403,-4.0577,-4.0577,-4.0245,-4.0072,-4.0072,-3.9677,-3.9503,-3.9518,-4.0165,-4.0291,-4.0072,-4.0072,-3.9866,-3.9503,-3.9503,-3.9503,-3.9503,-3.9503,-3.9503,-3.9455,-3.9139,-3.9029,-3.8934,-3.8254,-3.8017,-3.7954,-3.7621,-3.751,-3.751,-3.751,-3.751,-3.751,-3.751,-3.751,-3.751,-3.751,-3.751,-3.751,-3.751,-3.751,-3.7779,-3.8867,-3.9452,-4.0133,-4.1342,-4.2045,-4.2413,-4.2508,-4.2571,-4.2602,-4.2602,-4.2602,-4.2602,-4.2602,-4.2602,-4.2602,-4.2602,-4.2602,-4.2488,-4.2208,-4.1678,-4.1125,-4.0578,-4.0062,-3.969,-3.9518,-3.9616,-3.9858,-4.0188,-4.0461,-4.0704,-4.0912,-4.1249,-4.1475,-4.1604,-4.1845,-4.2058,0.0,0.0,0.0,0.0,0.0,0.0,0.0,0.0,0.0,0.0,0.0,0.0,0.0,0.0,0.0,0.0,0.0,0.0,0.0,0.0,0.0,0.0,0.0,0.0,0.0,0.0,0.0,0.0,0.0,0.0,-3.9217,-3.9266,-3.9329,-3.9329,-3.9439,-3.9503,-3.9503,-3.9392,-3.9329,-3.9329,-3.9218,-3.9155,-3.9155,-3.9155,-3.9218,-3.9329,-3.9329,-3.9266,-3.9155,-3.9155,-3.9155,-3.9155,-3.9155,-3.9155,-3.9092,-3.8539,-3.8333,-3.8254,-3.77,-3.751,-3.751,-3.751,-3.751,-3.751,-3.751,-3.751,-3.751,-3.751,-3.751,-3.751,-3.751,-3.751,-3.751,-3.751,-3.751,-3.7889,-3.9202,-3.9612,-4.0181,-4.1628,-4.2141,-4.2349,-4.2381,-4.2508,-4.2571,-4.2602,-4.2571,-4.2571,-4.2602,-4.2571,-4.2571,-4.2602,-4.2602,-4.2602,-4.2602,-4.2109,-4.1561,-4.0978,-4.0397,-3.9853,-3.9438,-3.9448,-3.9642,-3.9986,-4.0271,-4.0558,-4.0823,-4.1041,-4.1295,-4.152,-4.1692,-4.1866,0.0,0.0,0.0,0.0,0.0,0.0,0.0,0.0,0.0,0.0,0.0,0.0,0.0,0.0,0.0,0.0,0.0,0.0,0.0,0.0,0.0,0.0,0.0,0.0,0.0,0.0,0.0,0.0,0.0,0.0,-3.7941,-3.8378,-3.8634,-3.8634,-3.9202,-3.9503,-3.9503,-3.8934,-3.8634,-3.8634,-3.8033,-3.7779,-3.7779,-3.7779,-3.8065,-3.8634,-3.8634,-3.8302,-3.7779,-3.7779,-3.7779,-3.7779,-3.7779,-3.7779,-3.7763,-3.7684,-3.7622,-3.7636,-3.7541,-3.751,-3.751,-3.751,-3.751,-3.751,-3.751,-3.751,-3.751,-3.751,-3.751,-3.751,-3.751,-3.751,-3.751,-3.751,-3.751,-3.7889,-3.9202,-3.9534,-3.9993,-4.1596,-4.2045,-4.2206,-4.2381,-4.2413,-4.2476,-4.2571,-4.2508,-4.2476,-4.2602,-4.2508,-4.2476,-4.2602,-4.2602,-4.2602,-4.2602,-4.2109,-4.1515,-4.0782,-4.0238,-3.9686,-3.9083,-3.9228,-3.9405,-3.958,-3.9961,-4.0288,-4.0558,-4.0823,-4.1059,-4.1255,-4.1498,-4.1692,0.0,0.0,0.0,0.0,0.0,0.0,0.0,0.0,0.0,0.0,0.0,0.0,0.0,0.0,0.0,0.0,0.0,0.0,0.0,0.0,0.0,0.0,0.0,0.0,0.0,0.0,0.0,0.0,0.0,-3.7905,-3.77,-3.7914,-3.8028,-3.7938,-3.8223,-3.8365,-3.8365,-3.8081,-3.7938,-3.7938,-3.7652,-3.751,-3.751,-3.751,-3.7668,-3.7938,-3.7938,-3.7765,-3.751,-3.751,-3.751,-3.751,-3.751,-3.751,-3.751,-3.751,-3.751,-3.751,-3.751,-3.751,-3.751,-3.751,-3.751,-3.751,-3.751,-3.751,-3.751,-3.751,-3.751,-3.751,-3.751,-3.751,-3.751,-3.751,-3.751,-3.7889,-3.9202,-3.9503,-3.9993,-4.1596,-4.1963,-4.2045,-4.2206,-4.2238,-4.2238,-4.2302,-4.227,-4.2238,-4.2302,-4.227,-4.2238,-4.2302,-4.2413,-4.2476,-4.2476,-4.2342,-4.1817,-4.0769,-4.0469,-3.9899,-3.8936,-3.8969,-3.9121,-3.9379,-3.9781,-4.0087,-4.0288,-4.0558,-4.0799,-4.1041,-4.1221,-4.1466,0.0,0.0,0.0,0.0,0.0,0.0,0.0,0.0,0.0,0.0,0.0,0.0,0.0,0.0,0.0,0.0,0.0,0.0,0.0,0.0,0.0,0.0,0.0,0.0,0.0,0.0,0.0,0.0,0.0,-3.8078,-3.7847,-3.7788,-3.7671,-3.7569,-3.7569,-3.7539,-3.751,-3.751,-3.751,-3.751,-3.751,-3.751,-3.751,-3.751,-3.751,-3.751,-3.751,-3.751,-3.751,-3.751,-3.751,-3.751,-3.751,-3.751,-3.751,-3.751,-3.751,-3.751,-3.751,-3.751,-3.751,-3.751,-3.751,-3.751,-3.751,-3.751,-3.751,-3.751,-3.751,-3.751,-3.751,-3.751,-3.751,-3.751,-3.751,-3.7889,-3.9202,-3.9771,-4.0388,-4.1578,-4.1833,-4.1882,-4.2029,-4.2061,-4.2061,-4.2077,-4.2093,-4.2061,-4.2109,-4.2093,-4.2061,-4.2109,-4.2238,-4.2318,-4.2318,-4.2299,-4.1793,-4.0667,-4.0482,-3.9903,-3.8788,-3.875,-3.886,-3.9164,-3.9468,-3.9755,-4.0062,-4.0271,-4.0534,-4.0799,-4.0953,-4.1169,0.0,0.0,0.0,0.0,0.0,0.0,0.0,0.0,0.0,0.0,0.0,0.0,0.0,0.0,0.0,0.0,0.0,0.0,0.0,0.0,0.0,0.0,0.0,0.0,0.0,0.0,0.0,0.0,0.0,-3.8209,-3.818,-3.7992,-3.7817,-3.77,-3.7671,-3.7628,-3.751,-3.751,-3.751,-3.751,-3.751,-3.751,-3.751,-3.751,-3.751,-3.751,-3.751,-3.751,-3.751,-3.751,-3.751,-3.751,-3.751,-3.751,-3.751,-3.751,-3.751,-3.751,-3.751,-3.751,-3.751,-3.751,-3.751,-3.751,-3.751,-3.751,-3.751,-3.751,-3.751,-3.751,-3.751,-3.751,-3.751,-3.751,-3.751,-3.7889,-3.9202,-4.0546,-4.1542,-4.1606,-4.1621,-4.167,-4.1866,-4.1898,-4.1947,-4.2077,-4.198,-4.1963,-4.2077,-4.198,-4.1947,-4.2077,-4.2109,-4.2109,-4.2109,-4.1659,-4.1061,-4.0383,-3.9839,-3.9287,-3.8621,-3.8616,-3.8699,-3.8832,-3.886,-3.9212,-3.9901,-4.0062,-4.0246,-4.0534,-4.0673,-4.0881,0.0,0.0,0.0,0.0,0.0,0.0,0.0,0.0,0.0,0.0,0.0,0.0,0.0,0.0,0.0,0.0,0.0,0.0,0.0,0.0,0.0,0.0,0.0,0.0,0.0,0.0,0.0,0.0,0.0,0.0,-3.7484,-3.7432,-3.7511,-3.7831,-3.773,-3.7658,-3.751,-3.751,-3.7243,-3.6801,-3.6801,-3.6564,-3.6137,-3.6137,-3.639,-3.6801,-3.6801,-3.7054,-3.751,-3.751,-3.751,-3.751,-3.751,-3.751,-3.751,-3.751,-3.751,-3.751,-3.751,-3.751,-3.751,-3.751,-3.751,-3.751,-3.751,-3.751,-3.751,-3.751,-3.7405,-3.73,-3.73,-3.7255,-3.7181,-3.7181,-3.751,-3.8059,-3.8999,-4.0432,-4.1588,-4.1588,-4.1588,-4.1621,-4.1703,-4.1703,-4.1736,-4.1785,-4.1736,-4.1736,-4.1785,-4.1736,-4.1736,-4.1785,-4.1899,-4.198,-4.198,-4.1485,-4.0859,-4.0153,-3.9523,-3.8921,-3.8367,-3.8351,-3.8448,-3.8655,-3.8655,-3.8958,-3.9511,-3.9547,-3.9781,-4.0113,-4.0238,-4.0461,0.0,0.0,0.0,0.0,0.0,0.0,0.0,0.0,0.0,0.0,0.0,0.0,0.0,0.0,0.0,0.0,0.0,0.0,0.0,0.0,0.0,0.0,0.0,0.0,0.0,0.0,0.0,0.0,0.0,0.0,-3.6852,-3.683,-3.7086,-3.7607,-3.7438,-3.7292,-3.7189,-3.7146,-3.6769,-3.6045,-3.6045,-3.5837,-3.5394,-3.5394,-3.5631,-3.6045,-3.6045,-3.6611,-3.751,-3.751,-3.751,-3.751,-3.751,-3.751,-3.751,-3.751,-3.751,-3.751,-3.751,-3.751,-3.751,-3.751,-3.751,-3.751,-3.751,-3.751,-3.748,-3.7435,-3.73,-3.7194,-3.7134,-3.7075,-3.7015,-3.7015,-3.7514,-3.8107,-3.8559,-3.994,-4.1171,-4.1442,-4.1489,-4.1522,-4.1588,-4.1588,-4.1588,-4.1588,-4.1588,-4.1588,-4.1588,-4.1588,-4.1588,-4.1588,-4.1703,-4.1705,-4.1467,-4.0976,-4.0352,-3.9602,-3.8976,-3.8459,-3.8094,-3.8107,-3.8193,-3.8448,-3.8464,-3.8672,-3.9056,-3.9164,-3.9335,-3.9599,-3.9807,-4.0037,0.0,0.0,0.0,0.0,0.0,0.0,0.0,0.0,0.0,0.0,0.0,0.0,0.0,0.0,0.0,0.0,0.0,0.0,0.0,0.0,0.0,0.0,0.0,0.0,0.0,0.0,0.0,0.0,0.0,-3.6375,-3.6365,-3.6324,-3.6529,-3.7053,-3.6761,-3.6575,-3.6572,-3.6432,-3.6042,-3.5363,-3.5363,-3.5347,-3.5331,-3.5331,-3.5331,-3.5363,-3.5363,-3.6166,-3.7447,-3.7462,-3.7478,-3.7478,-3.7494,-3.751,-3.751,-3.751,-3.751,-3.751,-3.751,-3.751,-3.751,-3.751,-3.751,-3.751,-3.751,-3.751,-3.7464,-3.7254,-3.7194,-3.7164,-3.703,-3.6984,-3.6984,-3.6984,-3.7498,-3.7951,-3.7982,-3.9074,-4.0277,-4.11,-4.1274,-4.1357,-4.1555,-4.1588,-4.1588,-4.1588,-4.1588,-4.1588,-4.1588,-4.1588,-4.1588,-4.1588,-4.1588,-4.132,-4.0656,-4.0087,-3.9466,-3.8734,-3.8184,-3.786,-3.7905,-3.7905,-3.7992,-3.818,-3.8209,-3.8323,-3.856,-3.8849,-3.8996,-3.8996,-3.9325,-3.9616,-2.9308,0.0,0.0,0.0,0.0,0.0,0.0,0.0,0.0,0.0,0.0,0.0,0.0,0.0,0.0,0.0,0.0,0.0,0.0,0.0,0.0,0.0,0.0,0.0,0.0,0.0,0.0,0.0,-3.5572,-3.5332,-3.5652,-3.6074,-3.6303,-3.6286,-3.6204,-3.6066,-3.5872,-3.5832,-3.5411,-3.4589,-3.4589,-3.4336,-3.3878,-3.3878,-3.4146,-3.4589,-3.4589,-3.5126,-3.6011,-3.65,-3.6706,-3.6769,-3.7275,-3.751,-3.751,-3.751,-3.751,-3.751,-3.751,-3.751,-3.751,-3.751,-3.751,-3.751,-3.751,-3.751,-3.7464,-3.7254,-3.7119,-3.6984,-3.6708,-3.6647,-3.6647,-3.6647,-3.6786,-3.7048,-3.7543,-3.8347,-3.9232,-4.0228,-4.0825,-4.1221,-4.1357,-4.139,-4.1423,-4.1588,-4.1588,-4.1555,-4.1423,-4.139,-4.1372,-4.127,-4.1236,-4.0955,-4.0314,-3.961,-3.8984,-3.8447,-3.7768,-3.7492,-3.7759,-3.7759,-3.7817,-3.7992,-3.7992,-3.802,-3.8107,-3.8504,-3.8766,-3.886,-3.905,-3.9309,0.0,0.0,0.0,0.0,0.0,0.0,-3.0835,-3.1555,0.0,0.0,0.0,0.0,0.0,0.0,0.0,0.0,0.0,0.0,0.0,0.0,0.0,0.0,0.0,0.0,0.0,0.0,0.0,-3.5642,-3.5035,-3.4775,-3.4928,-3.5282,-3.5535,-3.5652,-3.5605,-3.5498,-3.5347,-3.5211,-3.4752,-3.3985,-3.3904,-3.3672,-3.3309,-3.3309,-3.3514,-3.3878,-3.3878,-3.413,-3.4573,-3.5252,-3.571,-3.6042,-3.6453,-3.6624,-3.6624,-3.6624,-3.6785,-3.7038,-3.7038,-3.7227,-3.751,-3.751,-3.751,-3.751,-3.751,-3.751,-3.745,-3.7195,-3.6953,-3.6754,-3.6554,-3.6492,-3.6492,-3.6492,-3.6492,-3.6599,-3.6999,-3.7615,-3.845,-3.972,-4.0533,-4.1018,-4.1187,-4.1221,-4.1239,-4.1372,-4.1372,-4.1339,-4.1239,-4.1221,-4.1187,-4.1117,-4.1117,-4.0712,-3.9713,-3.9245,-3.8638,-3.7824,-3.7399,-3.7284,-3.7478,-3.7583,-3.7671,-3.7817,-3.7817,-3.7847,-3.7905,-3.8164,-3.8375,-3.8511,-3.8667,-3.8876,0.0,0.0,0.0,0.0,0.0,0.0,-2.9768,-2.992,-3.0249,0.0,0.0,0.0,0.0,0.0,0.0,0.0,0.0,0.0,0.0,0.0,0.0,0.0,0.0,0.0,0.0,-3.5423,-3.5268,-3.5111,-3.4875,-3.4594,-3.4349,-3.4325,-3.4543,-3.5091,-3.4959,-3.488,-3.4874,-3.4585,-3.4123,-3.3503,-3.3372,-3.3293,-3.3309,-3.3309,-3.3309,-3.3309,-3.3309,-3.3309,-3.3356,-3.3941,-3.4604,-3.5284,-3.5363,-3.5394,-3.5394,-3.5394,-3.5789,-3.6298,-3.6361,-3.6832,-3.7399,-3.7478,-3.751,-3.751,-3.751,-3.751,-3.7421,-3.709,-3.6754,-3.6492,-3.6492,-3.6492,-3.6492,-3.6492,-3.6492,-3.6492,-3.6492,-3.703,-3.7926,-3.9294,-4.013,-4.0755,-4.1018,-4.1068,-4.1068,-4.1117,-4.1117,-4.1083,-4.1068,-4.1068,-4.1068,-4.1034,-4.0972,-4.0395,-3.9056,-3.8869,-3.8293,-3.7047,-3.7089,-3.7164,-3.7164,-3.7345,-3.751,-3.7612,-3.7612,-3.7671,-3.7817,-3.7876,-3.7976,-3.8087,-3.8262,-3.8403,0.0,0.0,0.0,0.0,0.0,0.0,-2.8937,-2.9407,-2.991,0.0,0.0,0.0,0.0,0.0,0.0,0.0,0.0,0.0,0.0,0.0,0.0,0.0,0.0,0.0,0.0,-3.5566,-3.5423,-3.5268,-3.4923,-3.4667,-3.4618,-3.4423,-3.4365,-3.4487,-3.4336,-3.421,-3.4108,-3.4057,-3.3838,-3.3503,-3.3477,-3.3398,-3.3309,-3.3309,-3.3309,-3.3309,-3.3309,-3.3309,-3.3309,-3.3435,-3.3893,-3.4557,-3.5157,-3.5394,-3.5394,-3.5394,-3.5473,-3.5679,-3.6203,-3.6487,-3.6722,-3.7291,-3.751,-3.751,-3.751,-3.751,-3.7421,-3.709,-3.6754,-3.6492,-3.6492,-3.6492,-3.6492,-3.6492,-3.6492,-3.6492,-3.6492,-3.703,-3.7584,-3.791,-3.891,-3.9995,-4.074,-4.0867,-4.0916,-4.1083,-4.1117,-4.1034,-4.0882,-4.0867,-4.0799,-4.0627,-4.0115,-3.9486,-3.8668,-3.8097,-3.7512,-3.6801,-3.6785,-3.6877,-3.703,-3.709,-3.7121,-3.7136,-3.7151,-3.7151,-3.7181,-3.7671,-3.7918,-3.7947,-3.7992,-3.8062,0.0,0.0,0.0,-2.8499,0.0,0.0,0.0,-2.8368,-2.8765,0.0,0.0,0.0,0.0,0.0,0.0,0.0,0.0,0.0,0.0,0.0,0.0,0.0,0.0,0.0,0.0,-3.4496,-3.4427,-3.4631,-3.4399,-3.4383,-3.4675,-3.457,-3.4448,-3.43,-3.4226,-3.4126,-3.4,-3.3924,-3.3822,-3.3694,-3.3581,-3.345,-3.3398,-3.3319,-3.3309,-3.3309,-3.3309,-3.3309,-3.3309,-3.3309,-3.3498,-3.383,-3.4209,-3.4352,-3.4352,-3.4352,-3.4557,-3.4889,-3.5236,-3.56,-3.6026,-3.6722,-3.6959,-3.7022,-3.7399,-3.7391,-3.7211,-3.7045,-3.6754,-3.6492,-3.6492,-3.6492,-3.6492,-3.6492,-3.6492,-3.6492,-3.6492,-3.6753,-3.7092,-3.7446,-3.8046,-3.8864,-3.9948,-4.043,-4.0662,-4.078,-4.078,-4.0746,-4.0662,-4.0593,-4.0366,-3.9941,-3.952,-3.8825,-3.7831,-3.7516,-3.7089,-3.6507,-3.6616,-3.6754,-3.6862,-3.6938,-3.7015,-3.7015,-3.7015,-3.7015,-3.7015,-3.7285,-3.7435,-3.7435,-3.7508,-3.7581,0.0,0.0,0.0,0.0,0.0,-2.7566,0.0,0.0,0.0,0.0,0.0,0.0,0.0,0.0,0.0,0.0,0.0,0.0,0.0,0.0,0.0,0.0,0.0,0.0,0.0,-3.3347,-3.3381,-3.3795,-3.3698,-3.3816,-3.4294,-3.4435,-3.4381,-3.4162,-3.4268,-3.4275,-3.4151,-3.4025,-3.3949,-3.3899,-3.3684,-3.3581,-3.3529,-3.3398,-3.3319,-3.3319,-3.3293,-3.3309,-3.3309,-3.3309,-3.3309,-3.3309,-3.3309,-3.3309,-3.3309,-3.3309,-3.364,-3.4115,-3.4257,-3.4683,-3.53,-3.5995,-3.6282,-3.6519,-3.7229,-3.7241,-3.6984,-3.6938,-3.6724,-3.6492,-3.6492,-3.6492,-3.6492,-3.6492,-3.6492,-3.6492,-3.6492,-3.646,-3.6614,-3.7121,-3.7336,-3.7827,-3.9075,-3.9751,-4.0105,-4.0105,-4.0105,-4.0071,-4.0071,-3.9948,-3.9631,-3.9096,-3.8796,-3.8177,-3.7084,-3.6968,-3.676,-3.621,-3.643,-3.6585,-3.6585,-3.68,-3.6908,-3.6908,-3.6908,-3.6877,-3.6847,-3.6847,-3.6908,-3.6999,-3.7089,-3.7164,0.0,0.0,0.0,0.0,-2.8767,0.0,0.0,0.0,0.0,0.0,0.0,0.0,0.0,0.0,0.0,0.0,0.0,0.0,0.0,0.0,0.0,0.0,0.0,0.0,0.0,0.0,-3.3206,-3.3193,-3.3084,-3.2968,-3.2928,-3.3443,-3.3719,-3.3672,-3.4201,-3.4423,-3.4275,-3.425,-3.4126,-3.3899,-3.3873,-3.3797,-3.3668,-3.3555,-3.3477,-3.3477,-3.3346,-3.3309,-3.3309,-3.3309,-3.3309,-3.3309,-3.3309,-3.3309,-3.3309,-3.3309,-3.3356,-3.3498,-3.4083,-3.4336,-3.4541,-3.5268,-3.5932,-3.649,-3.705,-3.7119,-3.6969,-3.6785,-3.6616,-3.6492,-3.6492,-3.6492,-3.6492,-3.6492,-3.6492,-3.6492,-3.6492,-3.6352,-3.6258,-3.6334,-3.6743,-3.7382,-3.8427,-3.8692,-3.8739,-3.8739,-3.8622,-3.8555,-3.8555,-3.8373,-3.8226,-3.8165,-3.7585,-3.7175,-3.7008,-3.6461,-3.6113,-3.6037,-3.6179,-3.6274,-3.6274,-3.6445,-3.6554,-3.6554,-3.6554,-3.6476,-3.6305,-3.6305,-3.6538,-3.7015,-3.7015,-3.703,0.0,0.0,0.0,0.0,0.0,0.0,-2.7276,0.0,-2.7184,0.0,0.0,0.0,0.0,0.0,0.0,0.0,0.0,0.0,0.0,0.0,0.0,0.0,0.0,0.0,0.0,0.0,0.0,0.0,-3.236,-3.2435,-3.2807,-3.2978,-3.3053,-3.2961,-3.3212,-3.3283,-3.3125,-3.311,-3.3031,-3.291,-3.2765,-3.2642,-3.2593,-3.246,-3.2567,-3.2857,-3.2806,-3.2982,-3.3309,-3.3309,-3.3309,-3.3309,-3.3309,-3.3309,-3.3309,-3.3309,-3.3309,-3.334,-3.3625,-3.3719,-3.3803,-3.4443,-3.5351,-3.6209,-3.6462,-3.6641,-3.68,-3.6723,-3.66,-3.6492,-3.6492,-3.6414,-3.6352,-3.6352,-3.6258,-3.6195,-3.6195,-3.6132,-3.6085,-3.6085,-3.6265,-3.6539,-3.6989,-3.7691,-3.8211,-3.8211,-3.8177,-3.8111,-3.8111,-3.7943,-3.7691,-3.7283,-3.6911,-3.6544,-3.6152,-3.5933,-3.5831,-3.5831,-3.6053,-3.6196,-3.6196,-3.6383,-3.646,-3.6352,-3.6352,-3.6258,-3.6085,-3.6085,-3.6195,-3.6429,-3.6429,-3.6429,-3.1421,0.0,0.0,0.0,0.0,0.0,0.0,0.0,0.0,0.0,0.0,0.0,0.0,0.0,0.0,0.0,0.0,0.0,0.0,0.0,0.0,0.0,0.0,0.0,0.0,0.0,0.0,-3.1163,-3.1072,-3.1266,-3.1953,-3.2087,-3.2183,-3.2248,-3.2446,-3.25,-3.2364,-3.2305,-3.2252,-3.2199,-3.2012,-3.1894,-3.1846,-3.1726,-3.1853,-3.2176,-3.2126,-3.2463,-3.3024,-3.3024,-3.3135,-3.3309,-3.3309,-3.3309,-3.3309,-3.3309,-3.3309,-3.3309,-3.3256,-3.3229,-3.3286,-3.3866,-3.4679,-3.5439,-3.5613,-3.5883,-3.6135,-3.6105,-3.6153,-3.6215,-3.6153,-3.6167,-3.6196,-3.6148,-3.6053,-3.6005,-3.6005,-3.5973,-3.591,-3.5861,-3.5829,-3.575,-3.5718,-3.668,-3.7448,-3.7448,-3.7415,-3.7382,-3.7382,-3.7198,-3.6917,-3.6406,-3.6292,-3.6028,-3.5549,-3.5604,-3.5671,-3.5688,-3.5911,-3.6085,-3.6148,-3.6289,-3.6289,-3.6148,-3.6148,-3.6085,-3.5926,-3.5926,-3.591,-3.5861,-3.5941,-3.6005,0.0,0.0,0.0,-2.9476,0.0,0.0,0.0,0.0,-2.6991,0.0,0.0,0.0,0.0,0.0,0.0,0.0,0.0,0.0,0.0,0.0,0.0,0.0,0.0,0.0,0.0,0.0,0.0,-2.8928,-2.891,-2.9135,-2.9673,-3.0384,-3.1041,-3.1615,-3.2332,-3.2635,-3.25,-3.25,-3.238,-3.2199,-3.2199,-3.2129,-3.1988,-3.1846,-3.1726,-3.163,-3.1484,-3.1759,-3.2323,-3.2323,-3.2718,-3.3309,-3.3309,-3.3309,-3.3309,-3.3309,-3.3309,-3.3282,-3.315,-3.3032,-3.3006,-3.3689,-3.3939,-3.4067,-3.4565,-3.4769,-3.4727,-3.4596,-3.5044,-3.5476,-3.5309,-3.5722,-3.6179,-3.6037,-3.6005,-3.6005,-3.6005,-3.5863,-3.5671,-3.5522,-3.5359,-3.5148,-3.4968,-3.5554,-3.6066,-3.6066,-3.5891,-3.578,-3.578,-3.5664,-3.5549,-3.5534,-3.5534,-3.5534,-3.5504,-3.5504,-3.5554,-3.5688,-3.572,-3.5784,-3.6005,-3.6005,-3.6005,-3.6005,-3.6005,-3.5894,-3.572,-3.572,-3.5638,-3.5537,-3.5861,-3.6005,0.0,0.0,-3.0701,-2.9256,0.0,0.0,0.0,0.0,0.0,0.0,0.0,0.0,0.0,0.0,0.0,0.0,0.0,0.0,0.0,0.0,0.0,0.0,0.0,0.0,0.0,0.0,0.0,-2.8938,-2.8848,-2.8873,-2.9068,-2.9632,-3.0068,-3.0277,-3.0912,-3.1234,-3.1191,-3.1127,-3.1035,-3.0876,-3.0788,-3.0699,-3.0609,-3.0451,-3.0578,-3.0871,-3.0784,-3.1061,-3.1571,-3.1571,-3.1981,-3.2639,-3.2639,-3.2846,-3.3176,-3.3282,-3.3256,-3.315,-3.3005,-3.2854,-3.2749,-3.2967,-3.3284,-3.3602,-3.3662,-3.4032,-3.4356,-3.4224,-3.4332,-3.45,-3.444,-3.4789,-3.5165,-3.5023,-3.5242,-3.5427,-3.5297,-3.5216,-3.5151,-3.51,-3.5034,-3.4968,-3.4902,-3.51,-3.5249,-3.5249,-3.5216,-3.5184,-3.5184,-3.5133,-3.5115,-3.5115,-3.5115,-3.5115,-3.5115,-3.5213,-3.5392,-3.5554,-3.5638,-3.572,-3.5799,-3.5941,-3.5941,-3.5799,-3.5799,-3.5703,-3.5572,-3.5572,-3.5489,-3.5294,-3.5409,-3.5474,-3.0892,-3.0892,0.0,-2.9106,-2.8755,0.0,-2.696,0.0,0.0,0.0,0.0,0.0,0.0,0.0,0.0,0.0,0.0,0.0,0.0,0.0,0.0,0.0,0.0,0.0,0.0,0.0,-2.8285,-2.818,-2.8109,-2.8174,0.0,0.0,-2.9076,-2.9589,-2.9938,-3.0224,-3.0506,-3.0464,-3.0359,-3.0189,-3.0103,-3.0011,-2.9896,-2.9764,-2.9855,-3.0135,-3.0051,-3.0331,-3.0844,-3.0795,-3.118,-3.1852,-3.2053,-3.2311,-3.2698,-3.3082,-3.3096,-3.2908,-3.2827,-3.2664,-3.2456,-3.2456,-3.265,-3.289,-3.2791,-3.3052,-3.3403,-3.3301,-3.3454,-3.3636,-3.3561,-3.3894,-3.4297,-3.4366,-3.4577,-3.4801,-3.489,-3.4902,-3.4902,-3.4835,-3.485,-3.4817,-3.4735,-3.4735,-3.4769,-3.4902,-3.4902,-3.4902,-3.4902,-3.4902,-3.4902,-3.4902,-3.4902,-3.4902,-3.4902,-3.5082,-3.5261,-3.5392,-3.5539,-3.5621,-3.5621,-3.5765,-3.5765,-3.5621,-3.5621,-3.5604,-3.5504,-3.5439,-3.5326,-3.518,-3.5096,-3.5016]},{"header":{"parameterUnit":"m.s-1","parameterCategory":1,"la1":30.6,"la2":29.2853,"lo1":-89.7004,"lo2":-87.6739,"dy":0.0162,"dx":0.0183,"nx":112,"ny":82,"refTime":"2023-03-04T18:00:00:Z","depth":0,"parameterNumber":3,"parameterNumberName":"V-component_of_WINDS"},"data":[0.0,0.0,0.0,0.0,0.0,0.0,0.0,0.0,0.0,0.0,0.0,0.0,0.0,0.0,0.0,0.0,0.0,0.0,0.0,0.0,0.0,0.0,0.0,0.0,0.0,0.0,0.0,0.0,0.0,0.0,0.0,0.0,0.0,0.0,0.0,0.0,0.0,0.0,0.0,0.0,0.0,0.0,0.0,0.0,0.0,0.0,0.0,0.0,0.0,0.0,0.0,0.0,0.0,0.0,0.0,0.0,0.0,0.0,0.0,0.0,0.0,0.0,0.0,0.0,0.0,0.0,0.0,0.0,0.0,0.0,0.0,0.0,0.0,0.0,0.0,0.0,0.0,0.0,0.0,0.0,0.0,0.0,0.0,0.0,0.0,0.0,0.0,0.0,0.0,0.0,0.9162,0.9202,0.9711,1.0143,1.0293,0.9888,0.9572,0.9403,0.0,0.0,0.0,0.0,0.0,0.0,0.0,0.0,0.0,0.0,0.0,0.0,0.0,0.0,0.0,0.0,0.0,0.0,0.0,0.0,0.0,0.0,0.0,0.0,0.0,0.0,0.0,0.0,0.0,0.0,0.0,0.0,0.0,0.0,0.0,0.0,0.0,0.0,0.0,0.0,0.0,0.0,0.0,0.0,0.0,0.0,0.0,0.0,0.0,0.0,0.0,0.0,0.0,0.0,0.0,0.0,0.0,0.0,0.0,0.0,0.0,0.0,0.0,0.0,0.0,0.0,0.0,0.0,0.0,0.0,0.0,0.0,0.0,0.0,0.0,0.0,0.0,0.0,0.0,0.0,0.0,0.0,0.0,0.0,0.0,0.0,0.0,0.0,0.0,0.0,0.0,0.0,0.0,0.0,0.0,0.0,0.0,0.0,0.0,0.0,0.0,0.0,0.0,0.0,0.8908,0.9255,0.9394,0.9435,0.9473,0.9093,0.8871,0.8835,0.0,0.0,0.0,0.0,0.0,0.0,0.0,0.0,0.0,0.0,0.0,0.0,0.0,0.0,0.0,0.0,0.0,0.0,0.0,0.0,0.0,0.0,0.0,0.0,0.0,0.0,0.0,0.0,0.0,0.0,0.0,0.0,0.0,0.0,0.0,0.0,0.0,0.0,0.0,0.0,0.0,0.0,0.0,0.0,0.0,0.0,0.0,0.0,0.0,0.0,0.0,0.0,0.0,0.0,0.0,0.0,0.0,0.0,0.0,0.0,0.0,0.0,0.0,0.0,0.0,0.0,0.0,0.0,0.0,0.0,0.0,0.0,0.0,0.0,0.0,0.0,0.0,0.0,0.0,0.0,0.0,0.0,0.0,0.0,0.0,0.0,0.0,0.0,0.0,0.0,0.0,0.0,0.0,0.0,0.0,0.0,0.0,0.0,0.0,0.0,0.0,0.0,0.0,0.8568,0.8862,0.9276,0.9284,0.9284,0.9284,0.8912,0.8695,0.8695,0.7884,0.0,0.0,0.0,0.0,0.0,0.0,0.0,0.0,0.0,0.0,0.0,0.0,0.0,0.0,0.0,0.0,0.0,0.0,0.0,0.0,0.0,0.0,0.0,0.0,0.0,0.0,0.0,0.0,0.0,0.0,0.0,0.0,0.0,0.0,0.0,0.0,0.0,0.0,0.0,0.0,0.0,0.0,0.0,0.0,0.0,0.0,0.0,0.0,0.0,0.0,0.0,0.0,0.0,0.0,0.0,0.0,0.0,0.0,0.0,0.0,0.0,0.0,0.0,0.0,0.0,0.0,0.0,0.0,0.0,0.0,0.0,0.0,0.0,0.0,0.0,0.0,0.0,0.0,0.0,0.0,0.0,0.0,0.0,0.0,0.0,0.0,0.0,0.0,0.0,0.0,0.0,0.0,0.0,0.0,0.0,0.0,0.0,0.0,0.0,0.0,0.0,0.0,0.8549,0.8718,0.912,0.9165,0.9165,0.9165,0.8803,0.8549,0.8549,0.756,0.0,0.0,0.0,0.0,0.0,0.0,0.0,0.0,0.0,0.0,0.0,0.0,0.0,0.0,0.0,0.0,0.0,0.0,0.0,0.0,0.0,0.0,0.0,0.0,0.0,0.0,0.0,0.0,0.0,0.0,0.0,0.0,0.0,0.0,0.0,0.0,0.0,0.0,0.0,0.0,0.0,0.0,0.0,0.0,0.0,0.0,0.0,0.0,0.0,0.0,0.0,0.0,0.0,0.0,0.0,0.0,0.0,0.0,0.0,0.0,0.0,0.0,0.0,0.0,0.0,0.0,0.0,0.0,0.0,0.0,0.0,0.0,0.0,0.0,0.0,0.0,0.0,0.0,0.0,0.0,0.0,0.0,0.0,0.0,0.0,0.0,0.0,0.0,0.0,0.0,0.0,0.0,0.0,0.0,0.0,0.0,0.0,0.0,0.0,0.0,0.0,0.0,0.815,0.8313,0.8694,0.8742,0.8742,0.8742,0.8357,0.815,0.815,0.7204,0.0,0.0,0.0,0.0,0.0,0.0,0.0,0.0,0.0,0.0,0.0,0.0,0.0,0.0,0.0,0.0,0.0,0.0,0.0,0.0,0.0,0.0,0.0,0.0,0.0,0.0,0.0,0.0,0.0,0.0,0.0,0.0,0.0,0.0,0.0,0.0,0.0,0.0,0.0,0.0,0.0,0.0,0.0,0.0,0.0,0.0,0.0,0.0,0.0,0.0,0.0,0.0,0.0,0.0,0.0,0.0,0.0,0.0,0.0,0.0,0.0,0.0,0.0,0.0,0.0,0.0,0.0,0.0,0.0,0.0,0.0,0.0,0.0,0.0,0.0,0.0,0.0,0.0,0.0,0.0,0.0,0.0,0.0,0.0,0.0,0.0,0.0,0.0,0.0,0.0,0.0,0.0,0.0,0.0,0.0,0.0,0.0,0.0,0.0,0.0,0.0,0.0,0.8115,0.824,0.0,0.8703,0.8703,0.8703,0.8212,0.7908,0.7908,0.0,0.0,0.0,0.0,0.0,0.0,0.0,0.0,0.0,0.0,0.0,0.0,0.0,0.0,0.0,0.0,0.0,0.0,0.0,0.0,0.0,0.0,0.0,0.0,0.0,0.0,0.0,0.0,0.0,0.0,0.0,0.0,0.0,0.0,0.0,0.0,0.0,0.0,0.0,0.0,0.0,0.0,0.0,0.0,0.0,0.0,0.0,0.0,0.0,0.0,0.0,0.0,0.0,0.0,0.0,0.0,0.0,0.0,0.0,0.0,0.0,0.0,0.0,0.0,0.0,0.0,0.0,0.0,0.0,0.0,0.0,0.0,0.0,0.0,0.0,0.0,0.0,0.0,0.0,0.0,0.0,0.0,0.0,0.0,0.0,0.0,0.0,0.0,0.0,0.0,0.0,0.0,0.0,0.0,0.0,0.0,0.0,0.0,0.0,0.0,0.0,0.0,0.8053,0.8115,0.824,0.0,0.8703,0.8665,0.8627,0.8107,0.7766,0.7699,0.0,0.0,0.0,0.0,0.0,0.0,0.0,0.0,0.0,0.0,0.0,0.0,0.0,0.0,0.0,0.0,0.0,0.0,0.0,0.0,0.0,0.0,0.0,0.0,0.0,0.0,0.0,0.0,0.0,0.0,0.0,0.0,0.0,0.0,0.0,0.0,0.0,0.0,0.0,0.0,0.0,0.0,0.0,0.0,0.0,0.0,0.0,0.0,0.0,0.0,0.0,0.0,0.0,0.0,0.0,0.0,0.0,0.0,0.0,0.0,0.0,0.0,0.0,0.0,0.0,0.0,0.0,0.0,0.0,0.0,0.0,0.0,0.0,0.0,0.0,0.0,0.0,0.0,0.0,0.0,0.0,0.0,0.0,0.0,0.0,0.0,0.0,0.0,0.0,0.0,0.0,0.0,0.0,0.0,0.0,0.0,0.0,0.0,0.0,0.0,0.0,0.0,0.8034,0.8115,0.824,0.8656,0.8703,0.8627,0.8403,0.8034,0.7699,0.0,0.0,0.0,0.0,0.0,0.0,0.0,0.0,0.0,0.0,0.0,0.0,0.0,0.0,0.0,0.0,0.0,0.0,0.0,0.0,0.0,0.0,0.0,0.0,0.0,0.0,0.0,0.0,0.0,0.0,0.0,0.0,0.0,0.0,0.0,0.0,0.0,0.0,0.0,0.0,0.0,0.0,0.0,0.0,0.0,0.0,0.0,0.0,0.0,0.0,0.0,0.0,0.0,0.0,0.0,0.0,0.0,0.0,0.0,0.0,0.0,0.0,0.0,0.0,0.0,0.0,0.0,0.0,0.0,0.0,0.0,0.0,0.0,0.0,0.0,0.0,0.0,0.0,0.0,0.0,0.0,0.0,0.0,0.0,0.0,0.0,0.0,0.0,0.0,0.0,0.0,0.0,0.0,0.0,0.0,0.0,0.0,0.0,0.0,0.0,0.0,0.0,0.0,0.8053,0.8115,0.824,0.8656,0.8703,0.8627,0.8403,0.7929,0.7562,0.7375,0.0,0.0,0.0,0.0,0.0,0.0,0.0,0.0,0.0,0.0,0.0,0.0,0.0,0.0,0.0,0.0,0.0,0.0,0.0,0.0,0.0,0.0,0.0,0.0,0.0,0.0,0.0,0.0,0.0,0.0,0.0,0.0,0.0,0.0,0.0,0.0,0.0,0.0,0.0,0.0,0.0,0.0,0.0,0.0,0.0,0.0,0.0,0.0,0.0,0.0,0.0,0.0,0.0,0.0,0.0,0.0,0.0,0.0,0.0,0.0,0.0,0.0,0.0,0.0,0.0,0.0,0.0,0.0,0.0,0.0,0.0,0.0,0.0,0.0,0.0,0.0,0.0,0.0,0.0,0.0,0.0,0.0,0.0,0.0,0.0,0.0,0.0,0.0,0.0,0.0,0.0,0.0,0.0,0.0,0.0,0.0,0.0,0.0,0.0,0.0,0.0,0.0,0.8049,0.8115,0.824,0.8656,0.8703,0.8589,0.8289,0.786,0.7491,0.7197,0.0,0.0,0.0,0.0,0.0,0.0,0.0,0.0,0.0,0.0,0.0,0.0,0.0,0.0,0.0,0.0,0.0,0.0,0.0,0.0,0.0,0.0,0.0,0.0,0.0,0.0,0.0,0.0,0.0,0.0,0.0,0.0,0.0,0.0,0.0,0.0,0.0,0.0,0.0,0.0,0.0,0.0,0.0,0.0,0.0,0.0,0.0,0.0,0.0,0.0,0.0,0.0,0.0,0.0,0.0,0.0,0.0,0.0,0.0,0.0,0.0,0.0,0.0,0.0,0.0,0.0,0.0,0.0,0.0,0.0,0.0,0.0,0.0,0.0,0.0,0.0,0.0,0.0,0.0,0.0,0.0,0.0,0.0,0.0,0.0,0.0,0.0,0.0,0.0,0.0,0.0,0.0,0.0,0.0,0.0,0.0,0.0,0.0,0.0,0.0,0.0,0.0,0.8039,0.8134,0.8259,0.8661,0.8703,0.8551,0.814,0.7805,0.7441,0.7023,0.0,0.0,0.0,0.0,0.0,0.0,0.0,0.0,0.0,0.0,0.0,0.0,0.0,0.0,0.0,0.0,0.0,0.0,0.0,0.0,0.0,0.0,0.0,0.0,0.0,0.0,0.0,0.0,0.0,0.0,0.0,0.0,0.0,0.0,0.0,0.0,0.0,0.0,0.0,0.0,0.0,0.0,0.0,0.0,0.0,0.0,0.0,0.0,0.0,0.0,0.0,0.0,0.0,0.0,0.0,0.0,0.0,0.0,0.0,0.0,1.7402,0.0,0.0,0.0,0.0,0.0,0.0,0.0,0.0,0.0,0.0,0.0,0.0,0.0,0.0,0.0,0.0,0.0,0.0,0.0,0.0,0.0,0.0,0.0,0.0,0.0,0.0,0.0,0.0,0.0,0.0,0.0,0.0,0.0,0.0,0.0,0.0,0.0,0.0,0.0,0.0,0.0,0.8077,0.8226,0.8429,0.8675,0.8703,0.8551,0.814,0.7882,0.7535,0.7036,0.6578,0.0,0.0,0.0,0.0,0.0,0.0,0.0,0.0,0.0,0.0,0.0,0.0,0.0,0.0,0.0,0.0,0.0,0.0,0.0,0.0,0.0,0.0,0.0,0.0,0.0,0.0,0.0,0.0,0.0,0.0,0.0,0.0,0.0,0.0,0.0,0.0,0.0,0.0,0.0,0.0,0.0,0.0,0.0,0.0,0.0,0.0,0.0,0.0,0.0,0.0,0.0,0.0,0.0,0.0,0.0,0.0,0.0,0.0,0.0,0.0,1.7879,0.0,0.0,0.0,0.0,0.0,0.0,0.0,0.0,0.0,0.0,0.0,0.0,0.0,0.0,0.0,0.0,0.0,0.0,0.0,0.0,0.0,0.0,0.0,0.0,0.0,0.0,0.0,0.0,0.0,0.0,0.0,0.0,0.0,0.0,0.0,0.0,0.0,0.0,0.0,0.0,0.8337,0.8403,0.8481,0.868,0.8703,0.8589,0.825,0.7955,0.7653,0.7268,0.681,0.0,0.0,0.0,0.0,0.0,0.0,0.0,0.0,0.0,0.0,0.0,0.0,0.0,0.0,0.0,0.0,0.0,0.0,0.0,0.0,0.0,0.0,0.0,0.0,0.0,0.0,0.0,0.0,0.0,0.0,0.0,0.0,0.0,0.0,0.0,0.0,0.0,0.0,0.0,0.0,0.0,0.0,0.0,0.0,0.0,0.0,0.0,0.0,0.0,0.0,0.0,0.0,0.0,2.0936,2.1043,2.0961,2.0961,2.0924,2.0762,1.9619,1.8797,1.8256,0.0,0.0,0.0,0.0,0.0,0.0,0.0,0.0,0.0,0.0,0.0,0.0,0.0,0.0,0.0,0.0,0.0,0.0,0.0,0.0,0.0,0.0,0.0,0.0,0.0,1.3047,1.267,0.0,0.0,0.0,0.0,0.0,0.0,0.0,0.0,0.0,0.0,0.0,0.0,0.8714,0.8651,0.8594,0.8727,0.8742,0.867,0.8403,0.8098,0.7805,0.7516,0.7078,0.6577,0.0,0.0,0.0,0.0,0.0,0.0,0.0,0.0,0.0,0.0,0.0,0.0,0.0,0.0,0.0,0.0,0.0,0.0,0.0,0.0,0.0,0.0,0.0,0.0,0.0,0.0,0.0,0.0,0.0,0.0,0.0,0.0,1.9019,1.9339,0.0,0.0,0.0,0.0,0.0,0.0,0.0,0.0,0.0,0.0,0.0,0.0,0.0,2.1132,2.0977,2.1081,2.1328,2.1698,2.1745,2.211,2.2775,2.2775,2.2586,2.2236,2.2032,0.0,2.0131,1.9752,0.0,0.0,0.0,0.0,0.0,0.0,0.0,0.0,0.0,0.0,0.0,0.0,0.0,0.0,0.0,0.0,0.0,0.0,0.0,0.0,0.0,0.0,1.4728,1.4574,1.4397,1.4081,0.0,1.2344,1.1342,1.1308,1.0738,0.0,0.0,0.0,0.0,0.0,0.0,0.0,0.8968,0.908,0.914,0.898,0.8946,0.8789,0.8441,0.8338,0.8101,0.7525,0.7429,0.7068,0.6352,0.6044,0.0,0.0,0.0,0.0,0.0,0.0,0.0,0.0,0.0,0.0,0.0,0.0,0.0,0.0,0.0,0.0,0.0,0.0,0.0,0.0,0.0,0.0,0.0,0.0,0.0,0.0,0.0,0.0,0.0,1.9314,1.9863,2.0149,2.021,2.0257,0.0,0.0,0.0,0.0,0.0,0.0,0.0,0.0,0.0,2.1809,2.246,2.2766,2.2679,2.2911,2.3034,2.3137,2.3137,2.3238,2.3453,2.3453,2.3358,2.3188,2.3188,2.2711,2.187,2.0992,2.0475,2.0216,0.0,0.0,0.0,0.0,1.89,1.8667,1.8326,1.7941,0.0,0.0,0.0,0.0,0.0,0.0,0.0,0.0,0.0,0.0,0.0,0.0,0.0,1.4995,1.4917,1.4756,1.4383,1.3714,1.2894,0.0,1.1342,1.0886,1.0478,0.0,0.0,0.0,0.0,0.9505,0.9527,0.9482,0.9397,0.9175,0.9175,0.9061,0.8751,0.8632,0.84,0.8016,0.7683,0.733,0.6913,0.6437,0.5981,0.0,0.0,0.0,0.0,0.0,0.0,0.0,0.0,0.0,0.0,0.0,0.0,0.0,0.0,0.0,0.0,0.0,0.0,0.0,0.0,0.0,0.0,0.0,0.0,0.0,0.0,0.0,0.0,2.054,2.1047,2.1128,2.1209,2.1327,0.0,0.0,0.0,0.0,0.0,0.0,2.25,2.2719,2.2891,2.2998,2.3623,2.3945,2.3945,2.4258,2.438,2.4357,2.4357,2.4322,2.4192,2.4192,2.4173,2.4067,2.4067,2.3838,2.3314,2.2073,2.1447,2.1343,2.1062,2.0983,2.0941,2.0563,2.0245,1.9852,1.943,1.8981,1.8615,1.8339,0.0,1.7926,1.744,0.0,0.0,0.0,0.0,1.6173,1.574,1.5669,1.5668,1.5465,1.5442,1.534,1.5061,1.4842,1.4227,0.0,1.2067,1.1645,1.1009,0.0,0.0,0.0,0.0,1.0193,1.0144,1.0105,0.993,0.9675,0.9594,0.9459,0.918,0.8975,0.8742,0.8479,0.8074,0.7674,0.7364,0.6844,0.6325,0.5851,0.0,0.0,0.0,0.0,0.0,0.0,0.0,0.0,0.0,0.0,0.0,0.0,0.0,0.0,0.0,0.0,0.0,0.0,0.0,0.0,0.0,0.0,0.0,0.0,0.0,0.0,0.0,0.0,0.0,2.2366,2.2942,0.0,0.0,0.0,0.0,2.3128,2.3305,2.3622,2.4049,2.3855,2.3906,2.4307,2.4365,2.4385,2.4385,2.4404,2.4619,2.5029,2.5029,2.5254,2.5625,2.5625,2.5391,2.5029,2.5029,2.4795,2.4224,2.2958,2.2157,2.1707,2.1343,2.1182,2.1182,2.114,2.1006,2.082,2.0801,2.049,2.0102,2.0084,1.9698,1.9108,1.8495,1.8141,0.0,0.0,1.7479,1.7763,1.7131,1.7252,1.7297,1.6507,1.6339,1.618,1.5662,1.5393,1.4952,0.0,1.3154,1.263,1.2274,0.0,1.1298,1.1087,1.1094,1.1072,1.0851,1.1056,1.1027,1.0584,1.0367,1.0087,0.9602,0.9397,0.9089,0.8703,0.8656,0.8298,0.752,0.7146,0.6718,0.6169,0.5513,0.0,0.0,0.0,0.0,0.0,0.0,0.0,0.0,0.0,0.0,0.0,0.0,0.0,0.0,0.0,0.0,0.0,0.0,0.0,0.0,0.0,0.0,0.0,0.0,0.0,0.0,0.0,0.0,2.4133,2.4304,0.0,2.4713,2.4805,2.4807,2.4764,2.4804,2.5007,2.5257,2.5305,2.5453,2.5945,2.6035,2.6094,2.6094,2.6094,2.6172,2.6318,2.6318,2.626,2.6162,2.6162,2.5918,2.5498,2.5498,2.5244,2.4814,2.4373,2.3748,2.3055,2.2759,2.2442,2.2212,2.204,2.174,2.1471,2.1471,2.1208,2.0815,2.0689,2.0438,2.0042,1.9689,1.9386,1.9151,1.8813,1.8759,1.8676,1.8372,1.8218,1.8014,1.7311,1.7189,1.6969,1.6252,1.6052,1.5792,1.5072,1.4272,1.3589,1.3201,1.2834,1.2473,1.2279,1.2186,1.2024,1.1827,1.1752,1.165,1.1351,1.092,1.0556,1.0269,0.9894,0.9582,0.9279,0.8932,0.8557,0.8294,0.758,0.6986,0.6538,0.5829,0.5162,0.0,0.0,0.0,0.0,0.0,0.0,0.0,0.0,0.0,0.0,0.0,0.0,0.0,0.0,0.0,0.0,0.0,0.0,0.0,0.0,0.0,0.0,0.0,0.0,0.0,0.0,2.4765,2.5469,2.5668,2.5872,2.6262,2.6307,2.6365,2.6522,2.651,2.6537,2.6678,2.6681,2.6833,2.7172,2.727,2.7327,2.7327,2.7327,2.7266,2.7104,2.7104,2.6967,2.6592,2.6455,2.623,2.5947,2.5752,2.5566,2.5293,2.5293,2.4873,2.4209,2.3871,2.3506,2.3104,2.2961,2.257,2.2121,2.2034,2.1845,2.1566,2.1438,2.1226,2.0954,2.0732,2.0377,2.0099,1.9853,1.9737,1.9549,1.911,1.8954,1.8781,1.8073,1.7808,1.7569,1.6953,1.6645,1.6373,1.5952,1.511,1.4345,1.3956,1.366,1.3384,1.318,1.3001,1.2872,1.2671,1.2544,1.2406,1.2152,1.1665,1.1233,1.0973,1.0509,1.0067,0.9733,0.9311,0.897,0.8703,0.7965,0.7328,0.6801,0.5981,0.5239,0.4596,0.0,0.0,0.0,0.0,0.0,0.0,0.0,0.0,0.0,0.0,0.0,0.0,0.0,0.0,0.0,0.0,0.0,0.0,0.0,0.0,0.0,0.0,0.0,2.4328,2.5784,2.6749,2.636,2.6986,2.7533,2.7739,2.7692,2.7862,2.841,2.8299,2.8247,2.8267,2.8046,2.7925,2.7935,2.7935,2.7935,2.7935,2.7935,2.7763,2.7429,2.7429,2.7337,2.7021,2.6662,2.6476,2.6436,2.5947,2.5762,2.5762,2.5742,2.5488,2.5096,2.4609,2.418,2.3809,2.3809,2.3402,2.2779,2.2549,2.2451,2.2441,2.2388,2.2167,2.1802,2.1568,2.1126,2.0618,2.0322,2.0388,2.0333,1.948,1.9557,1.9597,1.8746,1.8294,1.7978,1.7676,1.7151,1.6648,1.6476,1.5675,1.4958,1.4594,1.4198,1.3898,1.3694,1.3628,0.0,1.3367,1.3394,1.3332,1.3064,1.2628,1.2147,1.1662,1.1129,1.0562,0.996,0.9922,0.9539,0.8775,0.8347,0.7743,0.7019,0.5958,0.5133,0.4631,0.0,0.0,0.0,0.0,0.0,0.0,0.0,0.0,0.0,0.0,0.0,0.0,0.0,0.0,0.0,0.0,0.0,0.0,0.0,0.0,0.0,0.0,2.7038,2.6646,2.6783,2.7394,2.8711,2.8711,2.8866,2.9452,2.9322,2.918,2.9183,2.8932,2.8942,2.9276,2.887,2.8777,2.9134,2.8884,2.878,2.878,2.878,2.8717,2.8603,2.8603,2.8443,2.8091,2.7981,2.7752,2.7482,2.6983,2.6793,2.6763,2.6443,2.6186,2.6026,2.52,2.4629,2.4248,2.4248,2.3929,2.3524,2.3435,2.3187,2.2882,2.275,2.2639,2.249,2.2227,2.2055,2.1839,2.163,2.1493,2.1282,2.0917,2.0731,2.0473,1.9658,1.9152,1.8676,1.8028,1.7524,1.7147,1.6935,1.6528,1.6108,1.5739,1.5309,1.4974,1.4933,1.4634,0.0,1.4324,1.4183,1.4035,1.38,1.3331,1.2836,1.2351,1.1752,1.1202,1.0787,1.0218,0.9803,0.9576,0.8765,0.783,0.6792,0.5967,0.5412,0.0,0.0,0.0,0.0,0.0,0.0,0.0,0.0,0.0,0.0,0.0,0.0,0.0,0.0,0.0,0.0,0.0,0.0,0.0,0.0,0.0,0.0,2.8478,2.8905,2.908,2.8727,2.8832,2.9795,3.0017,3.0236,3.0613,3.0433,3.0234,3.0199,2.9958,2.98,2.9971,2.9881,2.9817,2.9774,2.9748,2.9705,2.9459,2.9459,2.9396,2.929,2.929,2.9106,2.875,2.8568,2.8347,0.0,2.7693,2.7391,2.7199,2.6889,2.6667,0.0,0.0,0.0,0.0,0.0,2.4258,2.4053,2.4053,2.3887,2.3598,2.3299,2.3196,2.3158,2.2719,2.2574,2.253,2.2264,2.2087,2.1909,2.1616,2.1419,2.1123,2.0447,1.9861,1.9281,1.8625,1.8045,1.7554,1.7261,1.7017,0.0,1.6574,1.6072,1.5699,1.5699,1.5276,1.4977,1.4977,1.4734,1.4489,1.437,1.398,1.3473,1.2902,1.2369,0.0,0.0,0.0,1.018,0.9657,0.8844,0.0,0.0,0.0,0.5951,0.5498,0.0,0.0,0.0,0.3319,0.2811,0.0,0.0,0.0,0.0,0.0,0.0,0.0,0.0,0.0,0.0,0.0,0.0,0.0,0.0,0.0,0.0,2.9499,3.0362,3.133,3.116,3.0754,3.0273,3.0965,3.1495,3.154,3.1323,3.1218,3.1451,3.1195,3.0924,3.0653,0.0,0.0,0.0,0.0,3.0563,3.0149,3.0098,2.9962,2.9741,2.969,2.9501,2.9175,2.8844,2.8662,2.8642,2.8259,2.7834,2.741,2.736,2.7077,2.6567,2.6265,2.5863,2.5486,2.48,2.4531,2.4492,2.4492,0.0,0.0,2.3926,2.3789,2.3666,2.3017,2.2847,2.2803,2.253,2.2441,2.2353,2.1909,2.1785,2.1633,2.1123,2.042,1.9717,1.929,1.8587,1.791,1.7554,1.7302,1.7172,1.7139,1.6574,1.6128,1.6128,1.5741,1.5484,1.5484,1.511,1.4817,1.4776,0.0,0.0,1.3325,1.3024,1.2386,1.1316,1.1149,1.0588,0.9435,0.8794,0.8162,0.7434,0.7166,0.6658,0.5935,0.5751,0.5364,0.4764,0.3946,0.3178,0.0,0.0,0.0,0.0,0.0,0.0,0.0,0.0,0.0,0.0,0.0,0.0,0.0,0.0,0.0,3.0874,3.1228,3.1644,3.2458,3.29,3.2889,3.2389,3.2128,3.2263,3.3068,3.2902,3.2845,3.306,3.2787,3.2532,3.2266,3.1878,0.0,3.1481,3.1358,3.1205,3.1112,3.0739,3.0553,3.0489,0.0,0.0,2.9827,2.9744,2.9703,2.9683,2.9219,2.8972,2.8859,2.8488,2.7967,2.7283,2.6433,2.6041,2.5962,2.5556,2.5254,2.4941,2.4941,2.4717,2.4346,2.3926,2.3789,2.3711,2.3183,2.3057,0.0,2.2794,2.2706,2.2662,2.2353,2.2132,2.1871,2.1222,2.0569,1.9934,1.9311,1.8757,1.8241,1.7959,1.7708,1.7538,1.7392,1.6771,1.636,1.636,1.6121,1.5955,1.5955,1.5699,1.5443,1.5269,1.5067,1.4597,1.3747,1.333,1.2827,1.2109,1.1446,1.07,0.9809,0.9357,0.8833,0.818,0.7547,0.7049,0.6685,0.6168,0.5744,0.539,0.4312,0.3676,0.0,0.0,0.0,0.0,0.0,0.0,0.0,0.0,0.0,0.0,0.0,2.9708,0.0,0.0,3.1162,3.176,3.2424,3.2985,3.3373,3.3815,3.3764,3.2998,3.3134,3.3341,3.36,3.3718,3.381,3.3741,3.3486,3.3167,3.291,3.2651,3.2291,3.1808,3.1918,3.1764,3.1381,3.1143,3.0915,3.0688,3.045,3.0222,2.9994,2.9994,2.9994,2.9984,2.9746,2.9518,2.927,2.8804,2.8373,2.8027,2.7185,2.6639,2.6245,2.6014,2.5779,2.5582,2.5448,2.5264,2.5,2.457,2.4277,2.4023,2.3594,2.331,2.3091,2.2969,2.2969,2.2882,2.2662,2.2539,2.235,2.1861,2.1133,2.0433,1.9973,1.9254,1.8603,1.8282,1.7991,1.7789,1.7587,1.718,1.6853,1.6763,1.6443,1.6245,1.6245,1.6038,1.5865,1.5741,1.5517,1.5017,1.4205,1.3299,1.2619,1.2318,1.1558,1.085,1.0368,0.9884,0.9304,0.8702,0.8248,0.7722,0.7195,0.6897,0.6481,0.5938,0.5216,0.4535,0.0,0.0,0.0,0.0,0.0,0.0,0.0,0.0,2.9377,2.998,3.0633,3.1142,3.1361,3.2074,3.2587,3.2475,3.3351,3.403,3.4138,3.4449,3.4323,3.3459,3.395,3.4328,3.4074,3.4409,3.4525,3.4361,3.4095,3.3828,3.3517,3.3497,3.3145,3.2289,3.2538,3.2392,3.175,3.1667,3.1374,3.0946,3.0864,3.0584,3.0129,3.0129,3.0087,2.9994,2.9994,2.9787,2.9404,2.8938,2.8752,2.865,2.8048,2.74,2.6703,2.6324,2.6197,2.6149,2.5927,2.5878,2.5809,2.5358,2.4916,2.4382,2.4006,2.3531,2.3091,2.3091,2.3091,2.3047,2.2882,2.2847,2.2731,2.2435,2.1655,2.088,2.0606,1.9752,1.8962,1.8603,1.8322,1.808,1.7902,1.7668,1.7432,1.718,1.6804,1.6558,1.6558,1.6319,1.6147,1.6078,1.5784,1.5297,1.4462,1.3245,1.2489,1.2305,1.1706,1.1186,1.085,1.0368,0.9803,0.9193,0.8932,0.8475,0.7748,0.7595,0.7215,0.6528,0.6138,0.5359,3.0283,2.9948,2.9603,2.9438,2.9421,2.9537,0.0,0.0,3.057,3.1097,3.2051,3.2775,3.2567,3.3222,3.3882,3.408,3.4063,3.4162,3.4619,3.5147,3.536,3.499,3.4633,3.4771,3.566,3.5523,3.5462,3.5593,3.5572,3.5298,3.4825,3.4526,3.4202,3.3879,3.3575,3.3304,3.2989,3.257,3.2218,3.1833,3.1485,3.106,3.0605,3.0605,3.0387,2.9994,2.9994,2.9963,2.988,2.9415,2.9228,2.9187,2.8671,2.8206,2.7654,2.6782,2.6448,2.6448,2.64,2.64,2.633,2.5879,2.5298,2.4667,2.4296,2.3664,2.3091,2.3091,2.3091,2.3091,2.3057,2.2925,2.2707,2.2299,2.1659,2.1004,2.0451,1.9752,1.9183,1.8962,1.8772,1.862,1.8571,1.8201,1.7797,1.7432,1.718,1.7009,1.7009,1.664,1.6244,1.5957,1.5727,1.5166,1.4122,1.363,1.3046,1.2342,1.2231,1.1855,1.1111,1.0812,1.04,0.9803,0.943,0.9013,0.8546,0.8012,0.7633,0.733,0.6606,0.5747,3.0035,3.0224,3.0547,0.0,3.057,3.1034,3.1107,3.1309,3.17,3.2252,3.3006,3.3615,3.384,3.4177,3.4505,0.0,3.4545,3.4631,3.5208,3.5473,3.5795,3.6306,3.5746,3.5505,3.5951,3.6117,3.6156,3.6102,3.5906,3.5687,3.5478,3.5035,3.4646,3.4367,3.403,3.3749,3.3466,3.305,3.2706,3.2267,3.1902,3.1526,3.1091,3.1091,3.0833,3.0387,3.0118,2.9994,2.9984,2.9787,2.9704,2.9663,2.9197,2.8897,2.8588,2.7523,2.696,2.6699,2.6544,2.6496,2.6466,2.6275,2.5819,2.5285,2.4901,2.4272,2.3688,2.3388,2.3232,2.3091,2.3091,2.3057,2.2931,2.2746,2.2048,2.1291,2.1037,2.0214,1.9429,1.9192,1.9002,1.8851,1.874,1.8531,1.8371,1.817,1.7635,1.7261,1.7261,1.7098,1.6726,1.6015,1.5621,1.5071,1.4287,1.3792,1.3346,1.301,1.2562,1.215,1.1818,1.126,1.0738,1.0255,0.9846,0.9354,0.8703,0.8432,0.8055,0.7484,0.7142,0.656,3.0411,0.0,0.0,3.1176,3.1768,3.2411,3.2193,3.2529,3.3031,3.3445,3.3972,3.4474,3.4831,3.4988,3.503,3.503,3.492,3.5016,3.5545,3.5749,3.617,3.7084,3.6701,3.6379,3.645,3.647,3.6441,3.6417,3.6114,3.5906,3.5797,3.5423,3.5035,3.4646,3.4423,3.4142,3.3738,3.3523,3.324,3.279,3.2455,3.2103,3.1722,3.1488,3.1195,3.0853,3.0387,3.018,3.018,3.0046,2.9994,2.9963,2.9622,2.9415,2.9157,2.8212,2.7598,2.7102,2.6835,2.6736,2.6736,2.6736,2.6337,2.5835,2.5447,2.4832,2.4157,2.3632,2.3363,2.3188,2.3135,2.3091,2.3091,2.3091,2.244,2.1733,2.1524,2.0695,1.9846,1.9448,1.9271,1.9082,1.8891,1.8812,1.8772,1.8772,1.821,1.7757,1.7676,1.7471,1.7004,1.6185,1.5651,1.5112,1.4493,1.4029,1.371,1.3492,1.2936,1.2526,1.2305,1.1706,1.1149,1.0663,1.0255,0.9728,0.9046,0.8851,0.8475,0.7825,0.7595,0.7138,0.0,0.0,3.2607,3.2408,3.2854,3.3348,3.3348,3.3991,3.465,3.4675,3.5069,3.5458,3.547,3.5511,3.5596,3.5596,3.5163,3.5016,3.5545,3.6062,3.6579,3.7132,3.718,3.728,0.0,3.6578,3.6112,3.6665,3.6429,3.6114,3.5797,3.5797,3.5522,3.4991,3.4991,3.4713,3.4097,3.4097,3.3907,3.3547,3.3275,3.2931,3.2458,3.1743,3.1371,3.1329,3.0864,3.0667,3.0626,3.018,2.9994,2.9994,2.9984,2.9704,2.9249,2.8773,2.8247,2.7793,2.7407,2.7262,2.7262,2.7262,2.6789,2.6094,2.5686,2.5057,2.4325,2.3666,2.3503,2.3416,2.3188,2.3091,2.3091,2.3091,2.2769,2.2288,2.1633,2.1168,2.0625,1.976,1.9606,1.9518,1.9301,1.9112,1.9002,1.9002,1.8812,1.8571,1.8402,1.7684,1.6966,1.636,1.5988,1.5471,1.4665,1.4569,1.4245,1.3564,1.3499,1.3119,1.2342,1.2077,1.1706,1.1074,1.07,1.0293,0.9846,0.9268,0.8889,0.8661,0.7863,0.7288,0.0,0.0,3.3328,3.3133,3.3819,3.4483,3.4294,3.4494,3.468,3.468,3.4818,3.5069,3.5433,3.5285,3.5203,3.5559,3.5126,3.5087,3.6014,3.629,3.6723,3.7613,3.7409,0.0,0.0,0.0,0.0,3.6665,3.6592,3.6429,3.6168,3.5895,3.5742,3.5533,3.5202,3.4869,3.4713,3.4322,3.403,3.3918,3.3636,3.3268,3.2941,3.2368,3.1982,3.1774,3.1019,3.0688,3.0646,3.018,2.9994,2.9994,2.9994,2.9901,2.9704,2.9239,2.8783,2.8276,2.7569,2.7309,2.7309,2.7309,2.7148,2.6847,2.6393,2.5767,2.5102,2.4557,2.4082,2.3667,2.3406,2.3373,2.3319,2.3144,2.2779,2.2428,2.223,2.1504,2.0801,2.0507,2.0091,1.9784,1.9706,1.9627,1.9587,1.9587,1.9091,1.87,1.8612,1.8149,1.7618,1.714,1.6572,1.5973,1.5446,1.4921,1.4497,1.4245,1.3783,1.3309,1.29,1.2452,1.1929,1.1298,1.1037,1.0556,0.9884,0.9576,0.916,0.8699,0.8136,0.7676,0.0,3.3232,3.39,3.4,3.4616,3.5209,3.5027,3.4969,3.4969,3.4969,3.4818,3.4826,3.5144,3.5059,3.5026,3.5276,3.5101,3.5234,3.6002,3.629,3.6723,3.7601,3.7397,3.7397,0.0,0.0,0.0,3.7,3.6916,3.6754,3.6483,3.6223,3.6016,3.5797,3.5478,3.5202,3.4991,3.4601,3.4311,3.4086,3.3861,3.3636,3.3342,3.3047,3.2798,3.2521,3.1824,3.1395,3.1207,3.0641,3.0297,3.0141,3.0047,2.9994,2.9942,2.9477,2.9011,2.8514,2.7759,2.7444,2.7309,2.7309,2.7309,2.7216,2.675,2.6166,2.5587,2.5057,2.4422,2.3894,2.3667,2.3634,2.3537,2.3319,2.3069,2.2781,2.2549,2.1945,2.1378,2.0988,2.0549,2.0191,1.9931,1.9902,1.9902,1.9902,1.9478,1.9091,1.8922,1.8698,1.8317,1.7757,1.7304,1.6756,1.6077,1.5543,1.5065,1.4613,1.4101,1.3674,1.3309,1.2716,1.2157,1.1632,1.1298,1.0775,1.0105,0.9846,0.943,0.8899,0.8518,0.8094,3.3538,3.3941,3.4363,3.4964,3.5327,3.5533,3.5508,3.5495,3.5483,3.542,3.4994,3.4675,0.0,0.0,3.504,3.4856,3.5002,3.5284,3.5533,3.6074,3.6603,0.0,0.0,0.0,0.0,0.0,0.0,3.7613,0.0,3.7024,3.6754,3.67,3.6429,3.5852,3.5797,3.5577,3.5047,3.4991,3.4713,3.4142,3.4142,3.3974,3.3625,3.3625,3.3625,3.3547,3.3125,3.2646,3.2114,3.1443,3.0821,3.0391,3.0141,2.9994,2.9942,2.9497,2.9052,2.8587,2.8121,2.7655,2.7309,2.7309,2.7309,2.7226,2.6781,2.6324,2.5778,2.5122,2.4628,2.4184,2.3894,2.3841,2.3754,2.3547,2.3503,2.3341,2.2679,2.2529,2.2181,2.1192,2.0959,2.0715,2.0057,1.9942,1.9942,1.9942,1.9942,1.9784,1.9381,1.9341,1.9037,1.8237,1.8145,1.7682,1.6575,1.6461,1.5926,1.4784,1.4552,1.4191,1.3616,1.3001,1.2472,1.2059,1.1453,1.0925,1.0519,1.0105,0.97,0.9299,0.8913,0.8522,3.3183,3.3983,3.4752,3.5098,3.5535,3.5834,3.5549,3.5495,3.527,3.4487,3.4211,3.411,0.0,0.0,0.0,3.4721,3.4684,0.0,3.5485,3.6074,0.0,3.7132,0.0,3.7829,3.7974,3.7866,0.0,0.0,3.7625,3.7304,3.7024,3.6808,3.6646,3.6483,3.6004,3.5742,3.5577,3.5202,3.4813,3.4423,3.4423,3.4255,3.3974,3.3974,3.3861,3.3547,3.3125,3.2646,3.2168,3.1646,3.1011,3.0391,3.0339,3.0193,2.9984,2.986,2.9528,2.9063,2.8597,2.7924,2.7309,2.7309,2.7309,2.7289,2.7164,2.6801,2.6299,2.5799,2.531,2.48,2.4245,2.411,2.4024,2.3797,2.3634,2.343,2.3268,2.2863,2.2399,2.2133,2.1588,2.0964,2.0488,2.0411,2.0411,2.0411,2.0411,2.0255,1.9824,1.9745,1.9541,1.9037,1.8782,1.8373,1.7737,1.7107,1.663,1.6341,1.5705,1.5155,1.4706,1.3861,1.3167,1.2594,1.1927,1.1298,1.07,1.0331,0.9932,0.9525,0.9096,0.8776,3.3691,3.4354,3.4871,3.5258,3.559,3.5724,3.5307,3.5077,3.4757,3.3895,3.3621,0.0,3.3533,0.0,0.0,0.0,0.0,0.0,3.5356,3.5775,3.6254,0.0,3.7312,0.0,3.7962,3.7986,3.7986,0.0,3.7838,3.7637,3.737,3.7209,3.6982,3.67,3.6386,3.6059,3.5797,3.5368,3.5035,3.4702,3.4702,3.4579,3.4255,3.4255,3.4188,3.3998,0.0,3.3341,3.2868,3.2276,3.1635,3.103,3.0569,3.0297,3.0141,3.0047,2.9704,2.9239,2.8773,2.8152,2.7521,2.7372,2.7309,2.7309,2.7309,2.6978,2.6521,2.6009,2.5564,2.5086,2.4492,2.4325,2.4282,2.4024,2.3894,2.3764,2.3677,2.3262,2.2863,2.2549,2.1785,2.1112,2.0898,2.0732,2.0605,2.0605,2.0605,2.0489,2.0255,2.0137,1.9942,1.9578,1.9314,1.8964,1.8463,1.7876,1.736,1.693,1.6315,1.5789,1.5374,1.4498,1.3789,1.3288,1.2581,1.1922,1.1319,1.0894,1.0416,0.9916,0.9602,0.9189,3.4352,3.4717,3.4889,3.5402,3.5511,3.5315,3.4834,3.4407,3.3975,3.3355,0.0,3.2882,3.2882,3.327,3.3708,3.4049,0.0,3.4742,3.4993,3.5342,3.5785,3.6242,3.6831,3.7372,3.7829,3.7938,3.7986,3.7986,3.7986,3.7892,3.7649,3.7596,3.7316,3.6754,3.67,3.644,3.5852,3.5588,3.5312,3.5047,3.5047,3.4869,3.4579,3.4524,3.4524,3.4524,0.0,0.0,3.3672,3.303,3.2372,3.1716,3.0809,3.0443,3.0391,3.0099,2.9746,2.9321,2.8794,2.8349,2.7935,2.7475,2.7309,2.7309,2.7309,2.7029,2.6615,2.6138,2.5658,2.5168,2.4714,2.4549,2.4454,2.4292,2.4206,2.4153,2.3884,2.3677,2.3331,2.2726,2.1948,2.1339,2.128,2.0948,2.0683,2.0683,2.0683,2.0683,2.0683,2.0498,2.0225,1.9981,1.9794,1.9466,1.8959,1.8672,1.8115,1.7208,1.6733,1.6349,1.5894,1.5102,1.4423,1.4005,1.3279,1.2632,1.2052,1.1565,1.1013,1.0401,1.0157,0.9654,3.366,3.4174,3.4618,3.515,3.4943,3.4527,3.4222,3.3773,0.0,0.0,3.1871,3.1852,3.1852,3.1926,3.2234,3.2938,0.0,0.0,0.0,0.0,3.5653,0.0,0.0,0.0,0.0,0.0,0.0,0.0,0.0,3.7986,3.7933,3.7744,3.7423,3.7024,3.6808,3.6538,3.6223,3.5895,3.5577,3.5312,3.5102,3.4991,3.4869,3.4635,3.4524,3.4524,3.4524,0.0,3.318,3.3104,3.2347,3.1286,3.0911,3.0609,3.0391,3.0099,2.9942,2.9756,2.8907,2.8566,2.8359,2.7579,2.7309,2.7309,2.7309,2.7247,2.7092,2.6625,2.6123,2.5668,2.5179,2.4786,2.4497,2.4454,2.4335,2.4206,2.4153,2.3937,2.3624,2.315,2.264,2.217,2.186,2.139,2.1089,2.1089,2.1089,2.1089,2.1089,2.077,2.0459,2.0264,2.0186,1.9962,1.9504,1.9289,1.8937,1.8417,1.7963,1.7435,1.6871,1.5934,1.511,1.4491,1.3585,1.287,1.2252,1.1766,1.1305,1.0882,1.0424,0.9955,3.3633,3.4071,3.4347,3.4689,3.439,3.3969,3.3671,0.0,0.0,0.0,3.1289,3.1188,3.1188,0.0,0.0,0.0,0.0,0.0,0.0,0.0,0.0,0.0,0.0,0.0,0.0,0.0,0.0,0.0,0.0,3.7986,3.7986,3.7744,3.7542,3.737,3.7089,3.6754,3.6483,3.6332,3.607,3.5588,3.5478,3.5257,3.498,3.4813,3.4646,3.4524,3.4524,0.0,3.3431,3.3223,3.2603,3.1793,3.1234,3.0817,3.0568,3.0297,2.9995,2.9539,2.8856,2.8452,2.8142,2.7517,2.7309,2.7309,2.7309,2.7309,2.7216,2.675,2.6283,2.5782,2.5303,2.4848,2.4497,2.4497,2.4411,2.4335,2.4196,2.411,2.391,2.3569,2.3177,2.2734,2.2291,2.1849,2.1477,2.1245,2.1205,2.1205,2.1205,2.0935,2.0741,2.0625,2.043,2.0147,1.9794,1.9548,1.924,1.874,1.8402,1.791,1.727,1.6474,1.5739,1.5174,1.4288,1.3559,1.3045,1.2455,1.1891,1.1335,1.0868,1.0368,3.3506,3.3883,3.404,3.4156,3.379,3.3375,3.3085,3.2331,0.0,0.0,3.0729,3.0486,3.0486,0.0,3.1314,0.0,0.0,0.0,0.0,0.0,0.0,0.0,0.0,0.0,0.0,0.0,0.0,0.0,0.0,0.0,3.7986,3.7785,3.7691,3.7691,3.7358,3.7089,3.6874,3.6754,3.644,3.6004,3.5852,3.5588,3.5146,3.5102,3.4924,3.459,3.459,0.0,0.0,3.3224,3.2785,3.2186,3.1484,3.1034,3.0786,3.0505,2.9942,2.9239,2.8773,2.8307,2.7852,2.7455,2.7309,2.7309,2.7309,2.7309,2.7226,2.6864,2.6356,2.5802,2.5461,2.491,2.4497,2.4497,2.4497,2.4454,2.4282,2.4249,2.4196,2.397,2.3626,2.3181,2.2726,2.2281,2.1876,2.1391,2.132,2.132,2.132,2.1138,2.0945,2.0945,2.0586,2.0225,1.9942,1.9754,1.9408,1.874,1.8571,1.8121,1.7441,1.6853,1.627,1.5692,1.4977,1.4356,1.3779,1.3179,1.2491,1.1843,1.1327,1.0727,3.242,3.316,3.3662,3.3452,3.2995,3.2524,3.2281,0.0,0.0,3.0266,2.9778,2.9458,2.9458,2.9494,2.9856,0.0,0.0,3.1994,0.0,0.0,0.0,0.0,0.0,0.0,0.0,0.0,0.0,0.0,0.0,0.0,3.7986,3.7986,3.7986,3.7986,3.7691,3.7542,3.7542,3.6982,3.6646,3.6592,3.6059,3.5797,3.5742,3.5467,3.5202,3.4935,3.4935,0.0,0.0,3.3135,3.2525,3.1633,3.1343,3.1034,3.0786,3.0505,2.9942,2.9239,2.8773,2.8307,2.7852,2.7455,2.7309,2.7309,2.7309,2.7309,2.7299,2.7258,2.6604,2.5875,2.5823,2.5181,2.4497,2.4497,2.4497,2.4497,2.4454,2.4454,2.4454,2.4454,2.4093,2.3691,2.3226,2.2761,2.2307,2.1803,2.1731,2.1731,2.1731,2.1397,2.1167,2.1167,2.0809,2.0411,1.9942,1.9863,1.9557,1.874,1.87,1.829,1.7432,1.718,1.6599,1.5733,1.5436,1.4908,1.4046,1.3568,1.3009,1.232,1.1585,1.0895,3.1332,3.196,3.2317,3.2387,3.21,3.1774,3.1486,0.0,2.9775,2.9505,2.902,2.865,2.8783,2.9088,2.9544,0.0,0.0,0.0,0.0,0.0,0.0,0.0,0.0,0.0,0.0,0.0,0.0,0.0,0.0,0.0,3.7986,3.7986,3.7986,3.7986,3.7892,3.7744,3.7596,3.7143,3.6862,3.67,3.6266,3.6004,3.5797,3.5687,3.5467,3.5179,3.4714,0.0,0.0,3.2871,3.2252,3.1578,3.1476,3.1281,3.0991,3.0395,2.9739,2.9015,2.8408,2.7903,2.7489,2.7372,2.7309,2.7309,2.7309,2.7309,2.7247,2.6967,2.6428,2.5813,2.5554,2.4972,2.4497,2.4497,2.4497,2.4497,2.4497,2.4497,2.4497,2.4497,2.4352,2.4136,2.3681,2.3453,2.3163,2.2708,2.2635,2.2635,2.2635,2.2239,2.2,2.2,2.1154,2.0411,1.9942,1.9902,1.9557,1.874,1.87,1.829,1.7432,1.7221,1.673,1.5955,1.5567,1.5026,1.4279,1.399,1.3392,1.2577,1.1972,1.137,3.0147,3.081,3.1301,3.1344,3.1157,3.0882,0.0,0.0,2.9026,2.8911,2.8466,2.8179,2.8391,2.873,2.915,0.0,0.0,3.0963,0.0,0.0,0.0,0.0,0.0,0.0,0.0,0.0,0.0,0.0,0.0,0.0,0.0,3.7986,3.7986,3.7986,3.7986,3.788,3.7744,3.7411,3.7078,3.6808,3.6538,3.6277,3.5961,3.5961,3.5717,3.5286,0.0,0.0,0.0,3.2724,3.2181,3.1618,3.1618,3.1338,3.092,3.0395,2.9671,2.8842,2.8321,2.7827,2.7404,2.7404,2.7357,2.7309,2.7309,2.7309,2.7216,2.675,2.6144,2.5585,2.5096,2.4745,2.4497,2.4497,2.4497,2.4497,2.4497,2.4497,2.4497,2.4497,2.4497,2.4363,2.396,2.3919,2.3722,2.3256,2.3184,2.3184,2.3103,2.2727,2.2482,2.24,2.1479,2.0709,2.0311,2.0118,1.9654,1.8909,1.8763,1.8331,1.7514,1.7302,1.6894,1.6294,1.5824,1.5318,1.4685,1.437,1.3737,1.2918,1.2448,1.1714,2.8814,2.9894,3.09,3.044,3.0132,2.9863,0.0,0.0,2.8377,2.8657,2.8286,2.7962,2.8179,2.8219,2.8438,2.9179,0.0,0.0,0.0,0.0,0.0,0.0,0.0,0.0,0.0,0.0,0.0,0.0,0.0,0.0,0.0,3.7986,3.7986,3.7986,3.7986,3.7986,3.7986,3.7744,3.7423,3.7078,3.6808,3.6538,3.6266,3.6266,3.5839,0.0,0.0,0.0,0.0,3.279,3.2336,3.1618,3.1618,3.1131,3.0518,3.0518,2.9766,2.871,2.87,2.8211,2.7584,2.7584,2.7441,2.7309,2.7309,2.7309,2.7216,2.675,2.5927,2.5086,2.4621,2.4507,2.4497,2.4497,2.4497,2.4497,2.4497,2.4497,2.4497,2.4497,2.4497,2.4363,2.396,2.3919,2.3722,2.3256,2.3184,2.3103,2.2839,2.2645,2.24,2.2205,2.1783,2.14,2.1214,2.0589,1.9947,1.9342,1.8904,1.8402,1.774,1.7505,1.7188,1.6689,1.6294,1.5873,1.5394,1.4727,1.4062,1.3398,1.2918,1.1929,2.7213,2.7924,2.8484,2.8341,2.85,2.8597,2.825,0.0,2.7809,2.7888,2.772,2.7696,2.795,2.8111,2.8386,2.8992,2.9654,0.0,0.0,0.0,0.0,0.0,0.0,0.0,0.0,0.0,0.0,0.0,0.0,0.0,0.0,3.7986,3.7986,3.7986,3.7986,3.7986,3.7986,3.7744,3.7542,3.7423,3.6928,3.6646,3.6592,3.6375,0.0,0.0,0.0,0.0,0.0,3.2824,3.2323,3.1863,3.1863,3.1425,3.0704,3.0229,2.9585,2.8908,2.8386,2.8078,2.7857,2.7857,2.7726,2.7489,2.7489,2.7404,2.7143,2.6366,2.5451,2.4683,2.4538,2.4497,2.4497,2.4497,2.4497,2.4497,2.4497,2.4497,2.4497,2.4497,2.4497,2.4456,2.4311,2.4333,2.4281,2.4094,2.4073,2.4031,2.3778,2.3556,2.329,2.3087,2.2486,2.1859,2.1229,2.0851,2.0319,1.9667,1.9303,1.8795,1.8136,1.7647,1.7188,1.6697,1.6294,1.5873,1.5394,1.4852,1.4104,1.3179,1.2534,1.1757,0.0,2.6532,2.7027,2.7204,2.7404,0.0,0.0,0.0,2.7243,2.7265,2.7278,2.7371,2.7708,2.7857,2.8113,2.8607,2.9409,0.0,0.0,0.0,0.0,0.0,0.0,0.0,0.0,0.0,0.0,0.0,0.0,0.0,0.0,3.7986,3.7986,3.7986,3.7986,3.7986,3.7986,3.7838,3.7691,3.7596,3.7209,3.6834,3.6433,3.626,0.0,0.0,0.0,0.0,0.0,3.2842,3.2454,3.2156,3.1978,3.1451,3.0729,3.0052,2.9487,2.8936,2.8481,2.8233,2.8139,2.8139,2.7914,2.7584,2.7584,2.7327,2.6895,2.6092,2.5357,2.4714,2.4549,2.4497,2.4497,2.4497,2.4497,2.4497,2.4497,2.4497,2.4497,2.4497,2.4497,2.4497,2.4497,2.4497,2.4497,2.4497,2.4497,2.4368,2.411,2.3884,2.3667,2.3363,2.2794,2.218,2.1703,2.1207,2.0698,2.0204,1.9745,1.9281,1.8768,1.8079,1.7557,1.7219,1.6603,1.6121,1.5658,1.4943,1.4104,1.3185,1.2491,1.1843,0.0,0.0,0.0,0.0,0.0,0.0,0.0,0.0,0.0,2.685,2.6891,2.7003,2.74,2.7482,2.7644,2.8099,2.9083,0.0,0.0,0.0,0.0,0.0,0.0,0.0,0.0,0.0,0.0,0.0,0.0,0.0,0.0,3.7986,3.7986,3.7986,3.7986,3.7986,3.7986,3.7986,3.7892,3.7649,3.756,3.7021,3.6033,3.5986,0.0,0.0,0.0,0.0,0.0,3.2896,3.2711,3.2392,3.1899,3.1209,3.0537,3.0105,2.9476,2.8803,2.8803,2.8664,2.8441,2.8395,2.8066,2.7631,2.7631,2.7118,2.6532,2.6096,2.5595,2.5086,2.4662,2.4528,2.4497,2.4497,2.4497,2.4497,2.4497,2.4497,2.4497,2.4497,2.4497,2.4497,2.4497,2.4497,2.4497,2.4497,2.4497,2.4325,2.3884,2.3797,2.3624,2.3188,2.2706,2.2441,2.2397,2.1636,2.1067,2.0867,2.0239,1.977,1.9539,1.876,1.8213,1.8004,1.712,1.6451,1.6046,1.4943,1.4062,1.3398,1.2765,1.2215,2.2446,0.0,2.4947,2.5077,2.5316,2.5625,0.0,0.0,0.0,0.0,0.0,0.0,0.0,0.0,2.7563,2.7644,0.0,2.9826,0.0,0.0,0.0,0.0,0.0,0.0,0.0,0.0,0.0,0.0,0.0,0.0,0.0,3.7986,3.7986,3.7986,3.7986,3.7986,3.7986,3.7986,3.7986,3.788,3.7285,3.6731,3.6285,3.5678,0.0,0.0,0.0,0.0,3.3158,3.2746,3.2427,3.2124,3.1577,3.0937,3.0298,3.0186,2.9642,2.9035,2.9035,2.8896,2.8664,2.8488,2.8301,2.816,2.7726,2.7118,2.6594,2.648,2.5844,2.5158,2.5055,2.4766,2.4497,2.4497,2.4497,2.4497,2.4497,2.4497,2.4497,2.4497,2.4497,2.4497,2.4497,2.4497,2.4497,2.4497,2.4497,2.4411,2.4153,2.3937,2.3711,2.3406,2.2979,2.2618,2.2441,2.1861,2.1461,2.1248,2.0703,2.0218,1.9957,1.9153,1.8481,1.8012,1.683,1.6038,1.5567,1.4943,1.4272,1.361,1.3349,1.275,2.098,2.2261,2.3699,2.4134,2.4544,2.4999,2.5464,0.0,0.0,0.0,0.0,0.0,0.0,0.0,0.0,0.0,2.8614,0.0,0.0,0.0,0.0,0.0,0.0,0.0,0.0,0.0,0.0,0.0,0.0,0.0,0.0,3.7613,3.7733,3.7974,3.7745,3.7733,3.7986,3.7986,3.7866,3.7613,3.7192,3.6601,3.5817,3.5278,3.4613,0.0,0.0,0.0,3.2891,3.2604,3.2302,3.1917,3.1367,3.085,3.0343,3.0129,2.9732,2.9255,2.9255,2.9128,2.8896,2.8664,2.8488,2.8348,2.8066,2.764,2.7154,2.6713,2.6072,2.5482,2.5241,2.4848,2.4497,2.4497,2.4497,2.4497,2.4497,2.4497,2.4497,2.4497,2.4497,2.4497,2.4497,2.4497,2.4497,2.4497,2.4497,2.4411,2.4249,2.398,2.3711,2.3503,2.3067,2.2759,2.2618,2.2132,2.1785,2.1571,2.1149,2.0802,2.0518,1.9808,1.8955,1.802,1.7106,1.6266,1.5526,1.5218,1.4738,1.4074,1.3781,1.329,1.9896,2.098,2.2379,2.3338,2.3958,2.4426,2.4883,0.0,0.0,0.0,0.0,0.0,0.0,0.0,0.0,0.0,0.0,0.0,0.0,0.0,0.0,0.0,0.0,0.0,0.0,0.0,0.0,0.0,0.0,0.0,0.0,3.7072,3.7276,3.7733,3.73,3.7288,3.7733,3.7745,3.7517,3.7072,3.6988,3.633,3.5206,3.4834,3.4325,0.0,0.0,0.0,3.2466,3.2317,3.2018,3.1605,3.1088,3.0742,3.0477,3.0079,2.9783,2.9542,2.9531,2.9347,2.9128,2.8896,2.871,2.8488,2.8441,2.8243,2.7866,2.7055,2.6433,2.593,2.544,2.4941,2.459,2.4518,2.4497,2.4497,2.4497,2.4497,2.4497,2.4497,2.4497,2.4497,2.4497,2.4497,2.4497,2.4497,2.4497,2.4454,2.4282,2.4024,2.3797,2.3634,2.3198,2.2891,2.2847,2.2451,2.2097,2.182,2.1571,2.1248,2.0952,2.0377,1.9427,1.8186,1.7647,1.688,1.5925,1.5747,1.5273,1.4589,1.4244,1.3789,1.9323,1.9903,2.0667,2.1887,2.281,2.351,2.3981,0.0,0.0,0.0,0.0,0.0,0.0,0.0,0.0,0.0,0.0,0.0,0.0,0.0,0.0,0.0,0.0,0.0,0.0,0.0,0.0,0.0,0.0,0.0,0.0,3.6519,3.6567,3.6639,3.6567,3.6567,3.6651,3.6651,3.6603,3.6519,3.6074,3.5623,3.5206,3.453,3.3997,0.0,0.0,3.2558,3.242,3.1582,3.1203,3.1077,3.0549,3.0285,3.0228,3.0205,3.0011,2.9794,2.9588,2.9485,2.9393,2.9128,2.9035,2.8896,2.8535,2.8395,2.8279,2.7913,2.733,2.6647,2.5951,2.5451,2.4983,2.459,2.4497,2.4497,2.4497,2.4497,2.4497,2.4497,2.4497,2.4497,2.4497,2.4497,2.4497,2.4497,2.4497,2.4497,2.4454,2.4282,2.412,2.412,2.3677,2.3285,2.3057,2.2838,2.2583,2.2309,2.1741,2.1203,2.0736,2.0155,1.9535,1.8853,1.8104,1.7443,1.6868,1.6491,1.5897,1.5188,1.4949,1.4442,1.8754,1.9128,1.9632,2.0332,2.1683,2.2936,2.3408,0.0,0.0,0.0,0.0,0.0,0.0,0.0,0.0,0.0,0.0,0.0,0.0,0.0,0.0,0.0,0.0,0.0,0.0,0.0,0.0,0.0,0.0,0.0,0.0,0.0,3.611,3.6398,3.6134,3.5978,3.5978,3.5701,3.5701,3.5978,3.5737,3.5324,3.474,3.4318,3.3813,3.3226,0.0,3.2179,3.1651,3.1203,3.0847,3.056,3.0308,3.0216,3.0216,3.0216,3.0136,3.0057,2.9783,2.9737,2.9691,2.9393,2.9312,2.9266,2.8896,2.8757,2.871,2.8337,2.7714,2.707,2.6595,2.5975,2.5347,2.4964,2.4683,2.4497,2.4497,2.4497,2.4497,2.4497,2.4497,2.4497,2.4497,2.4497,2.4497,2.4497,2.4497,2.4497,2.4497,2.4335,2.4206,2.4206,2.3894,2.358,2.3319,2.3101,2.275,2.2264,2.183,2.1437,2.1069,2.0578,2.0021,1.9417,1.8756,1.8137,1.7466,1.7033,1.6586,1.6135,1.567,1.5102,1.8273,1.8603,1.8913,1.9183,0.0,2.2408,2.2787,0.0,0.0,0.0,0.0,0.0,0.0,0.0,0.0,0.0,0.0,0.0,0.0,0.0,0.0,0.0,0.0,0.0,0.0,0.0,0.0,0.0,0.0,0.0,0.0,0.0,3.5617,3.6026,3.5641,3.5437,3.5437,3.504,3.504,3.5437,3.5437,3.5072,3.4384,3.4081,3.3555,3.2855,3.2381,3.1708,3.1008,3.0882,3.0583,3.0216,3.0216,3.0216,3.0216,3.0216,3.0216,3.017,3.0011,2.9977,2.992,2.968,2.9588,2.9542,2.9266,2.9174,2.9035,2.8675,2.8114,2.7561,2.7154,2.6475,2.5744,2.543,2.5001,2.4658,2.4658,2.4658,2.4658,2.4658,2.4625,2.4583,2.4583,2.454,2.4497,2.4497,2.454,2.4583,2.4583,2.4497,2.4411,2.4368,2.411,2.3841,2.359,2.3319,2.2969,2.2362,2.1998,2.1696,2.1482,2.1069,2.0568,1.9952,1.9499,1.8868,1.8017,1.7711,1.7378,1.6967,1.6289,1.573,1.7991,1.8233,1.8563,1.8913,2.0351,0.0,2.1926,2.3143,0.0,2.4497,0.0,0.0,0.0,0.0,0.0,0.0,0.0,0.0,0.0,0.0,0.0,0.0,0.0,0.0,0.0,0.0,0.0,0.0,0.0,0.0,0.0,0.0,0.0,3.4895,3.4859,3.4835,3.4835,3.4799,3.4799,3.4835,3.4835,3.4713,3.4372,3.368,3.3191,3.282,3.1608,3.1077,3.0973,3.048,3.025,3.0216,3.0216,3.0216,3.0216,3.0216,3.0216,3.0216,3.017,3.017,3.0125,2.9931,2.9886,2.984,2.9542,2.9301,2.9082,2.9082,2.8863,2.8454,2.754,2.6934,2.6411,2.5976,2.5498,2.5158,2.5158,2.5158,2.5158,2.5158,2.4988,2.4861,2.4861,2.4658,2.4497,2.4497,2.47,2.4861,2.4861,2.5031,2.5073,2.4861,2.4615,2.4282,2.3841,2.359,2.3319,2.3047,2.2441,2.1963,2.1696,2.1482,2.1015,2.0294,2.0249,1.9741,1.8756,1.8688,1.818,1.725,1.6756,1.6258,1.774,1.7991,1.8241,1.8563,1.9802,0.0,0.0,2.2647,2.3667,0.0,0.0,0.0,0.0,0.0,0.0,0.0,0.0,0.0,0.0,0.0,0.0,0.0,0.0,0.0,0.0,0.0,0.0,0.0,0.0,0.0,0.0,0.0,0.0,3.4775,3.4775,3.4619,3.4294,3.4294,3.4186,3.3873,3.4138,3.4198,3.3957,3.3161,3.2512,3.1925,3.1262,3.0824,3.0503,3.0296,3.0216,3.0216,3.0216,3.0216,3.0216,3.0216,3.0216,3.0216,3.0216,3.0216,3.017,3.0091,3.0091,3.0045,2.9829,2.9691,2.9554,2.9405,2.9301,2.9026,2.8204,2.7407,2.674,2.6436,2.5753,2.52,2.52,2.52,2.52,2.52,2.5158,2.5073,2.5073,2.4988,2.4956,2.4956,2.5031,2.5073,2.5073,2.5158,2.5158,2.5073,2.4743,2.4411,2.4229,2.3884,2.358,2.3363,2.2838,2.2407,2.2132,2.1785,2.1472,2.1195,2.0609,2.0019,1.9471,1.9012,1.845,1.78,1.7286,1.6669,1.7456,1.77,1.7951,0.0,0.0,0.0,2.1117,0.0,0.0,0.0,0.0,0.0,0.0,0.0,0.0,0.0,0.0,0.0,0.0,0.0,0.0,0.0,0.0,0.0,0.0,0.0,0.0,0.0,0.0,0.0,0.0,0.0,0.0,0.0,3.4234,3.4007,3.3647,3.3553,3.3421,3.3179,3.3312,3.3409,3.3422,3.2629,3.1926,3.1379,3.0928,3.056,3.0216,3.0216,3.0216,3.0216,3.0216,3.0216,3.0216,3.0216,3.0216,3.0216,3.0216,3.0112,2.9986,2.9986,2.9871,2.9689,2.9578,2.9454,2.9376,2.9218,2.9071,2.8901,2.8401,2.7818,2.7227,2.6778,2.6088,2.5496,2.5411,2.5411,2.5411,2.5411,2.538,2.5338,2.5338,2.5242,2.52,2.52,2.5413,2.5562,2.5562,2.5723,2.5798,2.5573,2.5177,2.4867,2.4625,2.4229,2.3937,2.3721,2.3285,2.2882,2.253,2.2087,2.1785,2.1696,2.0916,2.0374,2.0019,1.9379,1.8781,1.8319,1.7714,1.7099,1.7098,1.7375,0.0,0.0,0.0,0.0,0.0,0.0,0.0,0.0,0.0,0.0,0.0,0.0,0.0,0.0,0.0,0.0,0.0,0.0,0.0,0.0,0.0,0.0,0.0,0.0,0.0,0.0,0.0,0.0,0.0,0.0,0.0,0.0,3.3015,3.291,3.2898,3.2618,3.2618,3.2898,3.2317,3.2364,3.2887,3.2052,3.1587,3.1344,3.0537,3.0216,3.0216,3.0216,3.0216,3.0216,3.0216,3.0216,3.0216,3.0216,3.0216,3.0216,3.0204,2.9894,2.9504,2.9493,2.9137,2.87,2.87,2.8539,2.8389,2.8389,2.8226,2.8008,2.8008,2.7985,2.7829,2.708,2.653,2.6146,2.5948,2.5906,2.5906,2.5906,2.5738,2.5623,2.5623,2.5391,2.5211,2.5211,2.584,2.6292,2.6292,2.69,2.7053,2.6379,2.6054,2.5635,2.4956,2.4668,2.4421,2.4206,2.3764,2.3285,2.2847,2.2362,2.1963,2.1687,2.123,2.0772,2.0292,1.9808,1.9304,1.8781,1.8048,1.7574,1.7057,0.0,0.0,0.0,0.0,0.0,0.0,0.0,0.0,0.0,0.0,0.0,0.0,0.0,0.0,0.0,0.0,0.0,0.0,0.0,0.0,0.0,0.0,0.0,0.0,0.0,0.0,0.0,0.0,0.0,0.0,0.0,0.0,0.0,3.2676,3.2452,3.204,3.1994,3.1818,3.1555,3.1402,3.1693,3.2317,3.1567,3.1048,3.081,3.0376,3.0216,3.0216,3.0216,3.0216,3.0216,3.0216,3.0216,3.0216,3.0216,3.0216,3.017,2.9825,2.9619,2.9435,2.9056,2.8827,2.87,2.87,2.8657,2.8626,2.8626,2.8539,2.8416,2.8086,2.7983,2.7853,2.7323,2.6836,2.6396,2.6146,2.6369,2.6557,2.6409,2.6628,2.6813,2.6813,2.6715,2.6671,2.6671,2.6878,2.702,2.702,2.7184,2.7216,2.7031,2.68,2.6387,2.5646,2.5397,2.4968,2.427,2.3894,2.359,2.3285,2.2847,2.2485,2.222,2.1607,2.1069,2.0564,1.9945,1.9304,1.8781,1.8427,1.7908,1.6677,0.0,0.0,0.0,0.0,0.0,0.0,0.0,0.0,0.0,0.0,0.0,0.0,0.0,0.0,0.0,0.0,0.0,0.0,0.0,0.0,0.0,0.0,0.0,0.0,0.0,0.0,0.0,0.0,0.0,0.0,0.0,0.0,0.0,3.1785,3.1587,3.1271,3.1179,3.1028,3.0826,3.0826,3.1068,3.1486,3.1057,3.0769,3.0578,3.0306,3.0216,3.0216,3.0216,3.0216,3.0216,3.0216,3.0216,3.0193,2.9998,2.9929,2.986,2.9355,2.9056,2.8838,2.8517,2.8276,2.8115,2.8115,2.8115,2.8115,2.8115,2.8115,2.8046,2.7759,2.7679,2.7595,2.722,2.6941,2.67,2.6652,2.6781,2.695,2.6998,2.7173,2.7315,2.7315,2.7315,2.7315,2.7315,2.7479,2.7676,2.7861,2.7883,2.7807,2.7576,2.7465,2.7092,2.6397,2.5976,2.5448,2.4786,2.4245,2.3851,2.3634,2.3101,2.2662,2.2397,2.183,2.1293,2.0826,2.0209,1.9625,1.9112,1.8751,1.8326,0.0,0.0,0.0,0.0,0.0,0.0,0.0,0.0,0.0,0.0,0.0,0.0,0.0,0.0,0.0,0.0,0.0,0.0,0.0,0.0,0.0,0.0,0.0,0.0,0.0,0.0,0.0,0.0,0.0,0.0,0.0,0.0,0.0,3.0857,3.0656,3.0578,3.0578,3.026,3.0237,0.0,3.0461,3.0438,3.0438,3.0531,3.0554,3.0508,3.0237,3.0124,3.0078,3.0078,3.0078,3.0078,3.0078,3.0078,3.0021,2.9584,2.9424,2.9355,2.8815,2.8344,2.7977,2.7931,2.761,2.719,2.719,2.719,2.719,2.719,2.719,2.719,2.719,2.719,2.7149,2.6974,2.6933,2.6986,2.7285,2.7153,2.7191,2.7656,2.7602,2.7446,2.7446,2.7446,2.7446,2.7446,2.7818,2.8265,2.8749,2.8803,2.8593,2.8111,2.8056,2.7815,2.7102,2.6375,2.5868,2.5607,2.4702,2.411,2.3841,2.3188,2.2706,2.2441,2.1963,2.1508,2.1042,2.0555,2.0073,1.9633,1.9104,1.8743,0.0,0.0,0.0,0.0,0.0,0.0,0.0,0.0,0.0,0.0,0.0,0.0,0.0,0.0,0.0,0.0,0.0,0.0,0.0,0.0,0.0,0.0,0.0,0.0,0.0,0.0,0.0,0.0,0.0,0.0,0.0,0.0,0.0,2.9843,3.0111,3.0306,3.0306,2.9837,2.9698,0.0,2.9316,2.9109,2.9143,3.0161,3.0279,2.9742,2.9698,2.9412,2.9022,2.9022,2.9022,2.9022,2.9022,2.9022,2.901,2.8907,2.8873,2.8804,2.831,2.8069,2.792,2.7518,2.7282,2.719,2.719,2.719,2.719,2.719,2.719,2.719,2.719,2.719,2.719,2.7149,2.7149,2.7193,2.7473,2.7807,2.8105,2.8233,2.8507,2.867,2.8486,2.8497,2.8497,2.8497,2.8574,2.8683,2.8792,2.8803,2.876,2.8661,2.865,2.8361,2.761,2.6922,2.6273,2.5628,2.4702,2.4153,2.411,2.3634,2.3154,2.2706,2.223,2.1874,2.1553,2.0699,2.0246,2.011,1.9425,1.8966,0.0,0.0,0.0,0.0,0.0,0.0,0.0,0.0,0.0,0.0,0.0,0.0,0.0,0.0,0.0,0.0,0.0,0.0,0.0,0.0,0.0,0.0,0.0,0.0,0.0,0.0,0.0,0.0,0.0,0.0,0.0,2.8964,2.9114,2.9114,2.9355,2.9481,2.9481,2.924,2.9114,2.9114,2.8827,2.87,2.8712,2.9383,2.9475,2.9114,2.9114,2.8964,2.87,2.87,2.87,2.87,2.87,2.87,2.8666,2.8436,2.8356,2.8287,2.7793,2.7621,2.7575,2.727,2.719,2.719,2.719,2.719,2.719,2.719,2.719,2.719,2.719,2.719,2.719,2.719,2.719,2.7385,2.798,2.8271,2.856,2.9015,2.91,2.9082,2.8943,2.885,2.8803,2.8803,2.8803,2.8803,2.8803,2.8803,2.8803,2.8803,2.8803,2.8659,2.8269,2.7586,2.6899,2.6163,2.5338,2.4681,2.4217,2.398,2.3537,2.2969,2.2485,2.2043,2.1696,2.0961,2.051,2.0292,1.9791,1.9333,0.0,0.0,0.0,0.0,0.0,0.0,0.0,0.0,0.0,0.0,0.0,0.0,0.0,0.0,0.0,0.0,0.0,0.0,0.0,0.0,0.0,0.0,0.0,0.0,0.0,0.0,0.0,0.0,0.0,0.0,2.8362,2.8528,2.8574,2.8574,2.8654,2.87,2.87,2.862,2.8574,2.8574,2.8494,2.8448,2.8448,2.8448,2.8494,2.8574,2.8574,2.8528,2.8448,2.8448,2.8448,2.8448,2.8448,2.8448,2.8402,2.8,2.7851,2.7793,2.7328,2.719,2.719,2.719,2.719,2.719,2.719,2.719,2.719,2.719,2.719,2.719,2.719,2.719,2.719,2.719,2.719,2.7465,2.8482,2.8582,2.8727,2.9693,2.9508,2.9174,2.9128,2.8943,2.885,2.8803,2.885,2.885,2.8803,2.885,2.885,2.8803,2.8803,2.8803,2.8803,2.8137,2.7444,2.6802,2.6047,2.5267,2.4346,2.4292,2.3937,2.3319,2.2784,2.2309,2.182,2.1365,2.0871,2.0419,2.011,1.9745,0.0,0.0,0.0,0.0,0.0,0.0,0.0,0.0,0.0,0.0,0.0,0.0,0.0,0.0,0.0,0.0,0.0,0.0,0.0,0.0,0.0,0.0,0.0,0.0,0.0,0.0,0.0,0.0,0.0,0.0,2.7126,2.7756,2.8069,2.8069,2.8482,2.87,2.87,2.8287,2.8069,2.8069,2.7633,2.7385,2.7385,2.7385,2.7656,2.8069,2.8069,2.7828,2.7385,2.7385,2.7385,2.7385,2.7385,2.7385,2.7373,2.7316,2.7334,2.7282,2.7213,2.719,2.719,2.719,2.719,2.719,2.719,2.719,2.719,2.719,2.719,2.719,2.719,2.719,2.719,2.719,2.719,2.7465,2.8482,2.8657,2.8923,2.9738,2.9646,2.9347,2.9128,2.9082,2.8989,2.885,2.8943,2.8989,2.8803,2.8943,2.8989,2.8803,2.8803,2.8803,2.8803,2.8137,2.7478,2.6993,2.6256,2.5527,2.4839,2.4572,2.4325,2.4077,2.3363,2.2794,2.2309,2.182,2.1374,2.0907,2.0464,2.011,0.0,0.0,0.0,0.0,0.0,0.0,0.0,0.0,0.0,0.0,0.0,0.0,0.0,0.0,0.0,0.0,0.0,0.0,0.0,0.0,0.0,0.0,0.0,0.0,0.0,0.0,0.0,0.0,0.0,2.6603,2.6891,2.7231,2.744,2.7564,2.777,2.7874,2.7874,2.7667,2.7564,2.7564,2.7293,2.719,2.719,2.719,2.7305,2.7564,2.7564,2.7438,2.719,2.719,2.719,2.719,2.719,2.719,2.719,2.719,2.719,2.719,2.719,2.719,2.719,2.719,2.719,2.719,2.719,2.719,2.719,2.719,2.719,2.719,2.719,2.719,2.719,2.719,2.719,2.7465,2.8482,2.87,2.8923,2.9738,2.9794,2.9646,2.9347,2.9301,2.9301,2.9209,2.9255,2.9301,2.9209,2.9255,2.9301,2.9209,2.9082,2.8989,2.8989,2.856,2.7941,2.7048,2.6723,2.6097,2.5105,2.4946,2.4743,2.4368,2.3667,2.3144,2.2794,2.2309,2.1865,2.1365,2.106,2.0618,0.0,0.0,0.0,0.0,0.0,0.0,0.0,0.0,0.0,0.0,0.0,0.0,0.0,0.0,0.0,0.0,0.0,0.0,0.0,0.0,0.0,0.0,0.0,0.0,0.0,0.0,0.0,0.0,0.0,2.6354,2.6685,2.6768,2.6933,2.7108,2.7108,2.7149,2.719,2.719,2.719,2.719,2.719,2.719,2.719,2.719,2.719,2.719,2.719,2.719,2.719,2.719,2.719,2.719,2.719,2.719,2.719,2.719,2.719,2.719,2.719,2.719,2.719,2.719,2.719,2.719,2.719,2.719,2.719,2.719,2.719,2.719,2.719,2.719,2.719,2.719,2.719,2.7465,2.8482,2.8896,2.9276,2.9863,2.9977,2.9874,2.9634,2.9588,2.9588,2.9531,2.9542,2.9588,2.9485,2.9542,2.9588,2.9485,2.9301,2.922,2.922,2.8868,2.8256,2.7237,2.6986,2.6411,2.537,2.5285,2.5115,2.4711,2.4186,2.3711,2.3188,2.2784,2.2353,2.1865,2.166,2.1203,0.0,0.0,0.0,0.0,0.0,0.0,0.0,0.0,0.0,0.0,0.0,0.0,0.0,0.0,0.0,0.0,0.0,0.0,0.0,0.0,0.0,0.0,0.0,0.0,0.0,0.0,0.0,0.0,0.0,2.6199,2.624,2.6479,2.6727,2.6891,2.6933,2.7026,2.719,2.719,2.719,2.719,2.719,2.719,2.719,2.719,2.719,2.719,2.719,2.719,2.719,2.719,2.719,2.719,2.719,2.719,2.719,2.719,2.719,2.719,2.719,2.719,2.719,2.719,2.719,2.719,2.719,2.719,2.719,2.719,2.719,2.719,2.719,2.719,2.719,2.719,2.719,2.7465,2.8482,2.9458,3.0113,3.0159,3.017,3.0136,2.9931,2.9886,2.9783,2.9531,2.9737,2.9794,2.9531,2.9737,2.9783,2.9531,2.9485,2.9485,2.9485,2.8833,2.8221,2.769,2.6998,2.6313,2.5623,2.5559,2.5433,2.5158,2.5115,2.4562,2.3503,2.3188,2.2828,2.2353,2.2141,2.1794,0.0,0.0,0.0,0.0,0.0,0.0,0.0,0.0,0.0,0.0,0.0,0.0,0.0,0.0,0.0,0.0,0.0,0.0,0.0,0.0,0.0,0.0,0.0,0.0,0.0,0.0,0.0,0.0,0.0,0.0,2.5702,2.5847,2.6144,2.6674,2.685,2.6985,2.719,2.719,2.7059,2.6737,2.6737,2.6565,2.6255,2.6255,2.6439,2.6737,2.6737,2.6921,2.719,2.719,2.719,2.719,2.719,2.719,2.719,2.719,2.719,2.719,2.719,2.719,2.719,2.719,2.719,2.719,2.719,2.719,2.719,2.719,2.7301,2.7412,2.7412,2.7505,2.7638,2.7638,2.7883,2.8291,2.899,2.9713,3.0216,3.0216,3.0216,3.017,3.0091,3.0091,3.0045,2.9943,3.0045,3.0045,2.9943,3.0045,3.0045,2.9943,2.9817,2.9737,2.9737,2.9048,2.8411,2.792,2.7355,2.6749,2.6001,2.599,2.5812,2.5464,2.5464,2.4999,2.4153,2.4057,2.3667,2.3101,2.2882,2.2485,0.0,0.0,0.0,0.0,0.0,0.0,0.0,0.0,0.0,0.0,0.0,0.0,0.0,0.0,0.0,0.0,0.0,0.0,0.0,0.0,0.0,0.0,0.0,0.0,0.0,0.0,0.0,0.0,0.0,0.0,2.5033,2.5136,2.5488,2.6211,2.652,2.6723,2.6834,2.6926,2.6714,2.6249,2.6249,2.6037,2.5716,2.5716,2.5888,2.6249,2.6249,2.66,2.719,2.719,2.719,2.719,2.719,2.719,2.719,2.719,2.719,2.719,2.719,2.719,2.719,2.719,2.719,2.719,2.719,2.719,2.7231,2.726,2.7412,2.7522,2.7603,2.7748,2.7893,2.7893,2.8269,2.8715,2.9056,2.9689,3.0257,3.0317,3.0352,3.0306,3.0216,3.0216,3.0216,3.0216,3.0216,3.0216,3.0216,3.0216,3.0216,3.0216,3.0091,2.9954,2.9783,2.9026,2.8386,2.7923,2.7355,2.6867,2.6365,2.6313,2.6188,2.5812,2.5822,2.5475,2.4882,2.4711,2.4401,2.397,2.3624,2.3232,0.0,0.0,0.0,0.0,0.0,0.0,0.0,0.0,0.0,0.0,0.0,0.0,0.0,0.0,0.0,0.0,0.0,0.0,0.0,0.0,0.0,0.0,0.0,0.0,0.0,0.0,0.0,0.0,0.0,2.4133,2.4183,2.4385,2.4814,2.5466,2.592,2.6149,2.6086,2.6348,2.6186,2.5693,2.5693,2.5681,2.567,2.567,2.567,2.5693,2.5693,2.6216,2.7144,2.7156,2.7167,2.7167,2.7179,2.719,2.719,2.719,2.719,2.719,2.719,2.719,2.719,2.719,2.719,2.719,2.719,2.719,2.7219,2.7441,2.7522,2.7563,2.7841,2.7933,2.7933,2.7933,2.8257,2.8598,2.8621,2.9444,3.0282,3.0551,3.0611,3.0532,3.0261,3.0216,3.0216,3.0216,3.0216,3.0216,3.0216,3.0216,3.0216,3.0216,3.0216,3.0021,2.9538,2.8859,2.8216,2.7629,2.6986,2.6633,2.6603,2.6603,2.6479,2.624,2.6199,2.6032,2.5644,2.5168,2.4903,2.4903,2.4454,2.398,1.3589,0.0,0.0,0.0,0.0,0.0,0.0,0.0,0.0,0.0,0.0,0.0,0.0,0.0,0.0,0.0,0.0,0.0,0.0,0.0,0.0,0.0,0.0,0.0,0.0,0.0,0.0,0.0,2.2717,2.2945,2.3597,2.4161,2.466,2.4997,2.5115,2.5313,2.5587,2.5677,2.5492,2.513,2.513,2.4946,2.4613,2.4613,2.4809,2.513,2.513,2.552,2.6163,2.6519,2.6668,2.6714,2.7082,2.719,2.719,2.719,2.719,2.719,2.719,2.719,2.719,2.719,2.719,2.719,2.719,2.719,2.7219,2.7441,2.7655,2.7869,2.8231,2.8311,2.8311,2.8311,2.8418,2.8621,2.9003,2.9624,3.0172,3.0314,3.0625,3.0781,3.0532,3.0487,3.0442,3.0216,3.0216,3.0261,3.0442,3.0487,3.0544,3.0748,3.0793,3.0582,3.0036,2.9444,2.8847,2.8126,2.7566,2.7115,2.6809,2.6809,2.6727,2.6479,2.6479,2.6437,2.6313,2.5728,2.5295,2.5115,2.4818,2.4444,0.0,0.0,0.0,0.0,0.0,0.0,1.479,1.5051,0.0,0.0,0.0,0.0,0.0,0.0,0.0,0.0,0.0,0.0,0.0,0.0,0.0,0.0,0.0,0.0,0.0,0.0,0.0,2.2056,2.2105,2.2368,2.3063,2.3519,2.3913,2.4332,2.447,2.4626,2.4808,2.5,2.4903,2.4465,2.4576,2.4464,2.42,2.42,2.4349,2.4613,2.4613,2.4797,2.5119,2.5612,2.5945,2.6186,2.6485,2.6548,2.6548,2.6548,2.6726,2.6909,2.6909,2.7047,2.719,2.719,2.719,2.719,2.719,2.719,2.7272,2.7586,2.7909,2.8203,2.8431,2.851,2.851,2.851,2.851,2.8595,2.8907,2.9388,2.9906,3.0273,3.0752,3.105,3.0826,3.0781,3.0724,3.0544,3.0544,3.0589,3.0724,3.0781,3.0826,3.0984,3.0984,3.0678,2.9926,2.9574,2.9049,2.818,2.7737,2.74,2.7167,2.7056,2.6933,2.6727,2.6727,2.6685,2.6603,2.6229,2.5884,2.5611,2.5411,2.5126,0.0,0.0,0.0,0.0,0.0,0.0,1.4882,1.4796,1.4835,0.0,0.0,0.0,0.0,0.0,0.0,0.0,0.0,0.0,0.0,0.0,0.0,0.0,0.0,0.0,0.0,2.1022,2.1244,2.1464,2.1845,2.2252,2.2628,2.2665,2.2972,2.3558,2.3858,2.3973,2.3912,2.4329,2.434,2.3897,2.408,2.4189,2.42,2.42,2.42,2.42,2.42,2.42,2.4235,2.4659,2.5142,2.5635,2.5693,2.5716,2.5716,2.5716,2.6003,2.6432,2.6478,2.676,2.711,2.7167,2.719,2.719,2.719,2.719,2.7313,2.776,2.8203,2.851,2.851,2.851,2.851,2.851,2.851,2.851,2.851,2.8931,2.9498,3.0219,3.0862,3.1202,3.105,3.1017,3.1017,3.0984,3.0984,3.1029,3.1017,3.1017,3.1017,3.1062,3.1015,3.0579,2.9565,2.9423,2.8987,2.798,2.7696,2.7563,2.7563,2.7383,2.719,2.7015,2.7015,2.6933,2.6727,2.6644,2.6467,2.6238,2.6052,2.5843,0.0,0.0,0.0,0.0,0.0,0.0,1.4665,1.4862,1.5035,0.0,0.0,0.0,0.0,0.0,0.0,0.0,0.0,0.0,0.0,0.0,0.0,0.0,0.0,0.0,0.0,2.0741,2.1022,2.1244,2.1769,2.2138,2.2214,2.2515,2.2746,2.288,2.3106,2.3293,2.3442,2.3516,2.3694,2.3897,2.3934,2.4043,2.42,2.42,2.42,2.42,2.42,2.42,2.42,2.4292,2.4625,2.5107,2.5543,2.5716,2.5716,2.5716,2.5773,2.5922,2.6363,2.657,2.668,2.7093,2.719,2.719,2.719,2.719,2.7313,2.776,2.8203,2.851,2.851,2.851,2.851,2.851,2.851,2.851,2.851,2.8931,2.9364,2.9486,3.0332,3.1037,3.119,3.1217,3.1184,3.1029,3.0984,3.1062,3.1229,3.1217,3.1306,3.1528,3.1201,3.0642,3.0007,2.9564,2.898,2.8174,2.8099,2.7978,2.7841,2.776,2.7719,2.7731,2.7679,2.7679,2.7638,2.6933,2.655,2.6509,2.6479,2.6343,0.0,0.0,0.0,1.4835,0.0,0.0,0.0,1.4493,1.4617,0.0,0.0,0.0,0.0,0.0,0.0,0.0,0.0,0.0,0.0,0.0,0.0,0.0,0.0,0.0,0.0,2.0017,2.0482,2.1014,2.1391,2.1747,2.209,2.2289,2.2478,2.2703,2.2815,2.2964,2.315,2.3261,2.3409,2.3593,2.3787,2.397,2.4043,2.4152,2.42,2.42,2.42,2.42,2.42,2.42,2.4338,2.4579,2.4855,2.4958,2.4958,2.4958,2.5107,2.5348,2.5601,2.5865,2.6175,2.668,2.6852,2.6898,2.711,2.7353,2.7598,2.7852,2.8203,2.851,2.851,2.851,2.851,2.851,2.851,2.851,2.851,2.8715,2.8979,2.9256,2.9725,3.0296,3.1001,3.1304,3.1484,3.1362,3.1362,3.1407,3.1484,3.1572,3.1609,3.1487,3.1295,3.0882,3.0092,2.9641,2.9173,2.8522,2.8287,2.8139,2.803,2.7962,2.7893,2.7893,2.7893,2.7893,2.7893,2.7464,2.726,2.726,2.7126,2.6992,0.0,0.0,0.0,0.0,0.0,1.4427,0.0,0.0,0.0,0.0,0.0,0.0,0.0,0.0,0.0,0.0,0.0,0.0,0.0,0.0,0.0,0.0,0.0,0.0,0.0,1.935,1.9909,2.0659,2.0853,2.1182,2.1742,2.1885,2.2114,2.2451,2.2574,2.274,2.2927,2.3113,2.3224,2.3298,2.3641,2.3787,2.3861,2.4043,2.4152,2.4152,2.4189,2.42,2.42,2.42,2.42,2.42,2.42,2.42,2.42,2.42,2.4441,2.4786,2.4889,2.5199,2.5647,2.6152,2.6421,2.6593,2.7111,2.7557,2.7933,2.7962,2.8243,2.851,2.851,2.851,2.851,2.851,2.851,2.851,2.851,2.855,2.8671,2.9133,2.9301,2.9687,3.0597,3.1127,3.1404,3.1404,3.1404,3.1448,3.1448,3.1634,3.1594,3.1168,3.1137,3.0847,2.9963,2.967,2.9306,2.8867,2.8526,2.8327,2.8327,2.8111,2.8002,2.8002,2.8002,2.8042,2.8082,2.8082,2.8002,2.7881,2.7696,2.7563,0.0,0.0,0.0,0.0,1.5457,0.0,0.0,0.0,0.0,0.0,0.0,0.0,0.0,0.0,0.0,0.0,0.0,0.0,0.0,0.0,0.0,0.0,0.0,0.0,0.0,0.0,1.9706,1.9994,2.0175,2.0401,2.0576,2.1152,2.1481,2.1555,2.2105,2.2515,2.274,2.2777,2.2964,2.3298,2.3335,2.3446,2.3629,2.3824,2.3934,2.3934,2.4116,2.42,2.42,2.42,2.42,2.42,2.42,2.42,2.42,2.42,2.4235,2.4338,2.4763,2.4946,2.5096,2.5624,2.6106,2.6633,2.729,2.7655,2.7921,2.8099,2.8351,2.851,2.851,2.851,2.851,2.851,2.851,2.851,2.851,2.8657,2.8776,2.8837,2.9358,2.9935,3.0157,3.023,3.0266,3.0266,3.0447,3.0531,3.0531,3.0729,3.0817,3.0768,3.0368,3.0036,2.9901,2.946,2.9113,2.9052,2.8843,2.8724,2.8724,2.8538,2.8431,2.8431,2.8431,2.8498,2.8685,2.8685,2.8419,2.7893,2.7893,2.7841,0.0,0.0,0.0,0.0,0.0,0.0,1.4887,0.0,1.4606,0.0,0.0,0.0,0.0,0.0,0.0,0.0,0.0,0.0,0.0,0.0,0.0,0.0,0.0,0.0,0.0,0.0,0.0,0.0,1.9636,1.9925,2.0252,2.0607,2.0855,2.0999,2.126,2.1511,2.1718,2.1811,2.1966,2.2146,2.2361,2.2539,2.2611,2.2835,2.3123,2.3491,2.3562,2.3853,2.42,2.42,2.42,2.42,2.42,2.42,2.42,2.42,2.42,2.4223,2.443,2.4499,2.4616,2.5197,2.6039,2.6916,2.7165,2.7674,2.8111,2.8179,2.8339,2.851,2.851,2.8578,2.8657,2.8657,2.8776,2.8855,2.8855,2.8934,2.8961,2.8961,2.9236,2.9457,2.9488,3.0048,3.0462,3.0462,3.0504,3.0587,3.0587,3.0794,3.0795,3.0461,3.036,3.0191,2.9868,2.9489,2.9275,2.9275,2.9,2.8791,2.8791,2.8618,2.855,2.8657,2.8657,2.8776,2.8961,2.8961,2.8855,2.859,2.859,2.859,1.7642,0.0,0.0,0.0,0.0,0.0,0.0,0.0,0.0,0.0,0.0,0.0,0.0,0.0,0.0,0.0,0.0,0.0,0.0,0.0,0.0,0.0,0.0,0.0,0.0,0.0,0.0,1.8402,1.867,1.9066,1.9629,1.9856,2.011,2.0446,2.0571,2.0705,2.0917,2.108,2.1196,2.1312,2.1592,2.1766,2.1836,2.2009,2.2408,2.2898,2.2968,2.337,2.3994,2.3994,2.4074,2.42,2.42,2.42,2.42,2.42,2.42,2.42,2.4273,2.4309,2.4462,2.5059,2.5896,2.6705,2.6897,2.7348,2.779,2.783,2.8056,2.8294,2.8373,2.8576,2.8791,2.8882,2.9,2.9091,2.9091,2.9131,2.9209,2.93,2.9339,2.9404,2.9443,2.9902,3.0257,3.0257,3.0298,3.0339,3.0339,3.0595,3.0568,3.0144,3.0251,3.0231,2.9829,2.9611,2.947,2.9419,2.9145,2.8961,2.8882,2.8736,2.8736,2.8882,2.8882,2.8961,2.9157,2.9157,2.9209,2.93,2.917,2.9091,0.0,0.0,0.0,1.6677,0.0,0.0,0.0,0.0,1.5,0.0,0.0,0.0,0.0,0.0,0.0,0.0,0.0,0.0,0.0,0.0,0.0,0.0,0.0,0.0,0.0,0.0,0.0,1.704,1.7072,1.742,1.8228,1.8711,1.9209,1.9803,2.0203,2.0492,2.0705,2.0705,2.0928,2.1312,2.1312,2.1417,2.1627,2.1836,2.2009,2.2148,2.2354,2.281,2.343,2.343,2.3717,2.42,2.42,2.42,2.42,2.42,2.42,2.4236,2.4418,2.461,2.4872,2.5329,2.5517,2.5671,2.6403,2.6619,2.6707,2.6908,2.7318,2.7779,2.796,2.8414,2.8843,2.9052,2.9091,2.9091,2.9091,2.9236,2.947,2.974,2.9934,3.0152,3.033,2.9702,2.914,2.914,2.9324,2.9429,2.9429,2.9661,2.9829,2.9817,2.9817,2.9817,2.9792,2.9792,2.9702,2.9419,2.938,2.9302,2.9091,2.9091,2.9091,2.9091,2.9091,2.9197,2.938,2.938,2.9509,2.9753,2.93,2.9091,0.0,0.0,1.7994,1.7061,0.0,0.0,0.0,0.0,0.0,0.0,0.0,0.0,0.0,0.0,0.0,0.0,0.0,0.0,0.0,0.0,0.0,0.0,0.0,0.0,0.0,0.0,0.0,1.6792,1.6908,1.7135,1.7379,1.807,1.8516,1.8736,1.9269,1.9564,1.9633,1.9735,1.9915,2.0195,2.033,2.0464,2.0598,2.0831,2.1163,2.1666,2.1857,2.2309,2.2937,2.2937,2.3236,2.3659,2.3659,2.3973,2.4381,2.4236,2.4273,2.4418,2.4646,2.4814,2.5016,2.5182,2.5539,2.5959,2.6359,2.6709,2.7024,2.7223,2.7432,2.7566,2.7641,2.8172,2.8731,2.8935,2.9375,2.9793,2.9947,3.0011,3.0088,3.0177,3.0254,3.033,3.0406,3.0177,2.9973,2.9973,3.0011,3.005,3.005,3.0139,3.019,3.019,3.019,3.019,3.019,3.0075,2.9895,2.9702,2.9509,2.938,2.9314,2.917,2.917,2.9314,2.9314,2.9431,2.965,2.965,2.9779,3.0011,2.9844,2.9767,1.8516,1.8516,0.0,1.7316,1.7065,0.0,1.5802,0.0,0.0,0.0,0.0,0.0,0.0,0.0,0.0,0.0,0.0,0.0,0.0,0.0,0.0,0.0,0.0,0.0,0.0,0.0,1.6085,1.6229,1.6352,1.6513,0.0,0.0,1.7818,1.8177,1.8616,1.8932,1.9108,1.9175,1.9341,1.9605,1.9736,1.9911,2.0118,2.0313,2.0663,2.115,2.1337,2.1785,2.2409,2.2476,2.281,2.3248,2.3502,2.3909,2.4306,2.4312,2.449,2.4742,2.4849,2.5064,2.53,2.53,2.5624,2.6045,2.62,2.6468,2.6749,2.6906,2.709,2.7238,2.7299,2.7878,2.8525,2.89,2.9466,2.9986,3.033,3.0406,3.0406,3.0482,3.0495,3.0533,3.0596,3.0596,3.0558,3.0406,3.0406,3.0406,3.0406,3.0406,3.0406,3.0406,3.0406,3.0406,3.0406,3.0228,3.0049,2.9895,2.9689,2.956,2.956,2.9417,2.9417,2.956,2.956,2.9611,2.9792,2.9869,2.9972,3.0113,3.0241,3.0305]}]]